[[{"header":{"parameterUnit":"m.s-1","parameterCategory":1,"la1":30.6,"la2":29.2853,"lo1":-89.7004,"lo2":-87.6739,"dy":0.0162,"dx":0.0183,"nx":112,"ny":82,"refTime":"2026-03-13T12:00:00:Z","depth":0,"parameterNumber":2,"parameterNumberName":"U-component_of_WINDS"},"data":[0.0,0.0,0.0,0.0,0.0,0.0,0.0,0.0,0.0,0.0,0.0,0.0,0.0,0.0,0.0,0.0,0.0,0.0,0.0,0.0,0.0,0.0,0.0,0.0,0.0,0.0,0.0,0.0,0.0,0.0,0.0,0.0,0.0,0.0,0.0,0.0,0.0,0.0,0.0,0.0,0.0,0.0,0.0,0.0,0.0,0.0,0.0,0.0,0.0,0.0,0.0,0.0,0.0,0.0,0.0,0.0,0.0,0.0,0.0,0.0,0.0,0.0,0.0,0.0,0.0,0.0,0.0,0.0,0.0,0.0,0.0,0.0,0.0,0.0,0.0,0.0,0.0,0.0,0.0,0.0,0.0,0.0,0.0,0.0,0.0,0.0,0.0,0.0,0.0,0.0,0.0,-2.7847,-2.9404,-3.0404,-3.0404,-3.0288,-2.9607,-2.8181,0.0,0.0,0.0,0.0,0.0,0.0,0.0,0.0,0.0,0.0,0.0,0.0,0.0,0.0,0.0,0.0,0.0,0.0,0.0,0.0,0.0,0.0,0.0,0.0,0.0,0.0,0.0,0.0,0.0,0.0,0.0,0.0,0.0,0.0,0.0,0.0,0.0,0.0,0.0,0.0,0.0,0.0,0.0,0.0,0.0,0.0,0.0,0.0,0.0,0.0,0.0,0.0,0.0,0.0,0.0,0.0,0.0,0.0,0.0,0.0,0.0,0.0,0.0,0.0,0.0,0.0,0.0,0.0,0.0,0.0,0.0,0.0,0.0,0.0,0.0,0.0,0.0,0.0,0.0,0.0,0.0,0.0,0.0,0.0,0.0,0.0,0.0,0.0,0.0,0.0,0.0,0.0,0.0,0.0,0.0,0.0,0.0,0.0,0.0,0.0,0.0,0.0,0.0,0.0,-2.735,-2.9185,-2.9989,-3.0404,-3.0404,-2.9717,-2.8956,-2.8142,0.0,0.0,0.0,0.0,0.0,0.0,0.0,0.0,0.0,0.0,0.0,0.0,0.0,0.0,0.0,0.0,0.0,0.0,0.0,0.0,0.0,0.0,0.0,0.0,0.0,0.0,0.0,0.0,0.0,0.0,0.0,0.0,0.0,0.0,0.0,0.0,0.0,0.0,0.0,0.0,0.0,0.0,0.0,0.0,0.0,0.0,0.0,0.0,0.0,0.0,0.0,0.0,0.0,0.0,0.0,0.0,0.0,0.0,0.0,0.0,0.0,0.0,0.0,0.0,0.0,0.0,0.0,0.0,0.0,0.0,0.0,0.0,0.0,0.0,0.0,0.0,0.0,0.0,0.0,0.0,0.0,0.0,0.0,0.0,0.0,0.0,0.0,0.0,0.0,0.0,0.0,0.0,0.0,0.0,0.0,0.0,0.0,0.0,0.0,0.0,0.0,0.0,0.0,-2.6916,-2.7669,-2.9518,-3.0121,-3.0404,-3.0404,-3.0019,-2.9323,-2.8161,-2.6848,0.0,0.0,0.0,0.0,0.0,0.0,0.0,0.0,0.0,0.0,0.0,0.0,0.0,0.0,0.0,0.0,0.0,0.0,0.0,0.0,0.0,0.0,0.0,0.0,0.0,0.0,0.0,0.0,0.0,0.0,0.0,0.0,0.0,0.0,0.0,0.0,0.0,0.0,0.0,0.0,0.0,0.0,0.0,0.0,0.0,0.0,0.0,0.0,0.0,0.0,0.0,0.0,0.0,0.0,0.0,0.0,0.0,0.0,0.0,0.0,0.0,0.0,0.0,0.0,0.0,0.0,0.0,0.0,0.0,0.0,0.0,0.0,0.0,0.0,0.0,0.0,0.0,0.0,0.0,0.0,0.0,0.0,0.0,0.0,0.0,0.0,0.0,0.0,0.0,0.0,0.0,0.0,0.0,0.0,0.0,0.0,0.0,0.0,0.0,0.0,0.0,0.0,-2.7447,-2.7997,-2.9526,-2.9887,-3.0035,-3.0096,-2.9923,-2.9221,-2.787,-2.6921,0.0,0.0,0.0,0.0,0.0,0.0,0.0,0.0,0.0,0.0,0.0,0.0,0.0,0.0,0.0,0.0,0.0,0.0,0.0,0.0,0.0,0.0,0.0,0.0,0.0,0.0,0.0,0.0,0.0,0.0,0.0,0.0,0.0,0.0,0.0,0.0,0.0,0.0,0.0,0.0,0.0,0.0,0.0,0.0,0.0,0.0,0.0,0.0,0.0,0.0,0.0,0.0,0.0,0.0,0.0,0.0,0.0,0.0,0.0,0.0,0.0,0.0,0.0,0.0,0.0,0.0,0.0,0.0,0.0,0.0,0.0,0.0,0.0,0.0,0.0,0.0,0.0,0.0,0.0,0.0,0.0,0.0,0.0,0.0,0.0,0.0,0.0,0.0,0.0,0.0,0.0,0.0,0.0,0.0,0.0,0.0,0.0,0.0,0.0,0.0,0.0,0.0,-2.7267,-2.8187,-2.9548,-2.9236,-2.8995,-2.9173,-2.8511,-2.7744,-2.6943,-2.6073,0.0,0.0,0.0,0.0,0.0,0.0,0.0,0.0,0.0,0.0,0.0,0.0,0.0,0.0,0.0,0.0,0.0,0.0,0.0,0.0,0.0,0.0,0.0,0.0,0.0,0.0,0.0,0.0,0.0,0.0,0.0,0.0,0.0,0.0,0.0,0.0,0.0,0.0,0.0,0.0,0.0,0.0,0.0,0.0,0.0,0.0,0.0,0.0,0.0,0.0,0.0,0.0,0.0,0.0,0.0,0.0,0.0,0.0,0.0,0.0,0.0,0.0,0.0,0.0,0.0,0.0,0.0,0.0,0.0,0.0,0.0,0.0,0.0,0.0,0.0,0.0,0.0,0.0,0.0,0.0,0.0,0.0,0.0,0.0,0.0,0.0,0.0,0.0,0.0,0.0,0.0,0.0,0.0,0.0,0.0,0.0,0.0,0.0,0.0,0.0,0.0,0.0,-2.6058,-2.6651,0.0,-2.801,-2.807,-2.816,-2.8,-2.759,-2.6846,0.0,0.0,0.0,0.0,0.0,0.0,0.0,0.0,0.0,0.0,0.0,0.0,0.0,0.0,0.0,0.0,0.0,0.0,0.0,0.0,0.0,0.0,0.0,0.0,0.0,0.0,0.0,0.0,0.0,0.0,0.0,0.0,0.0,0.0,0.0,0.0,0.0,0.0,0.0,0.0,0.0,0.0,0.0,0.0,0.0,0.0,0.0,0.0,0.0,0.0,0.0,0.0,0.0,0.0,0.0,0.0,0.0,0.0,0.0,0.0,0.0,0.0,0.0,0.0,0.0,0.0,0.0,0.0,0.0,0.0,0.0,0.0,0.0,0.0,0.0,0.0,0.0,0.0,0.0,0.0,0.0,0.0,0.0,0.0,0.0,0.0,0.0,0.0,0.0,0.0,0.0,0.0,0.0,0.0,0.0,0.0,0.0,0.0,0.0,0.0,0.0,0.0,-2.5185,-2.5179,-2.5407,0.0,-2.6814,-2.6909,-2.6719,-2.6842,-2.6626,-2.5955,0.0,0.0,0.0,0.0,0.0,0.0,0.0,0.0,0.0,0.0,0.0,0.0,0.0,0.0,0.0,0.0,0.0,0.0,0.0,0.0,0.0,0.0,0.0,0.0,0.0,0.0,0.0,0.0,0.0,0.0,0.0,0.0,0.0,0.0,0.0,0.0,0.0,0.0,0.0,0.0,0.0,0.0,0.0,0.0,0.0,0.0,0.0,0.0,0.0,0.0,0.0,0.0,0.0,0.0,0.0,0.0,0.0,0.0,0.0,0.0,0.0,0.0,0.0,0.0,0.0,0.0,0.0,0.0,0.0,0.0,0.0,0.0,0.0,0.0,0.0,0.0,0.0,0.0,0.0,0.0,0.0,0.0,0.0,0.0,0.0,0.0,0.0,0.0,0.0,0.0,0.0,0.0,0.0,0.0,0.0,0.0,0.0,0.0,0.0,0.0,0.0,0.0,-2.5022,-2.4791,-2.4707,-2.5577,-2.5687,-2.5437,-2.4837,-2.4799,-2.4569,0.0,0.0,0.0,0.0,0.0,0.0,0.0,0.0,0.0,0.0,0.0,0.0,0.0,0.0,0.0,0.0,0.0,0.0,0.0,0.0,0.0,0.0,0.0,0.0,0.0,0.0,0.0,0.0,0.0,0.0,0.0,0.0,0.0,0.0,0.0,0.0,0.0,0.0,0.0,0.0,0.0,0.0,0.0,0.0,0.0,0.0,0.0,0.0,0.0,0.0,0.0,0.0,0.0,0.0,0.0,0.0,0.0,0.0,0.0,0.0,0.0,0.0,0.0,0.0,0.0,0.0,0.0,0.0,0.0,0.0,0.0,0.0,0.0,0.0,0.0,0.0,0.0,0.0,0.0,0.0,0.0,0.0,0.0,0.0,0.0,0.0,0.0,0.0,0.0,0.0,0.0,0.0,0.0,0.0,0.0,0.0,0.0,0.0,0.0,0.0,0.0,0.0,0.0,-2.364,-2.3465,-2.3386,-2.388,-2.4285,-2.4432,-2.4244,-2.459,-2.455,-2.3978,0.0,0.0,0.0,0.0,0.0,0.0,0.0,0.0,0.0,0.0,0.0,0.0,0.0,0.0,0.0,0.0,0.0,0.0,0.0,0.0,0.0,0.0,0.0,0.0,0.0,0.0,0.0,0.0,0.0,0.0,0.0,0.0,0.0,0.0,0.0,0.0,0.0,0.0,0.0,0.0,0.0,0.0,0.0,0.0,0.0,0.0,0.0,0.0,0.0,0.0,0.0,0.0,0.0,0.0,0.0,0.0,0.0,0.0,0.0,0.0,0.0,0.0,0.0,0.0,0.0,0.0,0.0,0.0,0.0,0.0,0.0,0.0,0.0,0.0,0.0,0.0,0.0,0.0,0.0,0.0,0.0,0.0,0.0,0.0,0.0,0.0,0.0,0.0,0.0,0.0,0.0,0.0,0.0,0.0,0.0,0.0,0.0,0.0,0.0,0.0,0.0,0.0,-2.3018,-2.291,-2.2701,-2.2717,-2.3304,-2.3611,-2.3421,-2.3998,-2.4023,-2.3231,0.0,0.0,0.0,0.0,0.0,0.0,0.0,0.0,0.0,0.0,0.0,0.0,0.0,0.0,0.0,0.0,0.0,0.0,0.0,0.0,0.0,0.0,0.0,0.0,0.0,0.0,0.0,0.0,0.0,0.0,0.0,0.0,0.0,0.0,0.0,0.0,0.0,0.0,0.0,0.0,0.0,0.0,0.0,0.0,0.0,0.0,0.0,0.0,0.0,0.0,0.0,0.0,0.0,0.0,0.0,0.0,0.0,0.0,0.0,0.0,0.0,0.0,0.0,0.0,0.0,0.0,0.0,0.0,0.0,0.0,0.0,0.0,0.0,0.0,0.0,0.0,0.0,0.0,0.0,0.0,0.0,0.0,0.0,0.0,0.0,0.0,0.0,0.0,0.0,0.0,0.0,0.0,0.0,0.0,0.0,0.0,0.0,0.0,0.0,0.0,0.0,0.0,-2.2857,-2.2822,-2.2461,-2.206,-2.27,-2.2981,-2.2557,-2.3214,-2.3212,-2.217,0.0,0.0,0.0,0.0,0.0,0.0,0.0,0.0,0.0,0.0,0.0,0.0,0.0,0.0,0.0,0.0,0.0,0.0,0.0,0.0,0.0,0.0,0.0,0.0,0.0,0.0,0.0,0.0,0.0,0.0,0.0,0.0,0.0,0.0,0.0,0.0,0.0,0.0,0.0,0.0,0.0,0.0,0.0,0.0,0.0,0.0,0.0,0.0,0.0,0.0,0.0,0.0,0.0,0.0,0.0,0.0,0.0,0.0,0.0,0.0,-2.9041,0.0,0.0,0.0,0.0,0.0,0.0,0.0,0.0,0.0,0.0,0.0,0.0,0.0,0.0,0.0,0.0,0.0,0.0,0.0,0.0,0.0,0.0,0.0,0.0,0.0,0.0,0.0,0.0,0.0,0.0,0.0,0.0,0.0,0.0,0.0,0.0,0.0,0.0,0.0,0.0,0.0,-2.2307,-2.211,-2.1943,-2.2204,-2.2578,-2.2765,-2.267,-2.3065,-2.2983,-2.2222,0.0,0.0,0.0,0.0,0.0,0.0,0.0,0.0,0.0,0.0,0.0,0.0,0.0,0.0,0.0,0.0,0.0,0.0,0.0,0.0,0.0,0.0,0.0,0.0,0.0,0.0,0.0,0.0,0.0,0.0,0.0,0.0,0.0,0.0,0.0,0.0,0.0,0.0,0.0,0.0,0.0,0.0,0.0,0.0,0.0,0.0,0.0,0.0,0.0,0.0,0.0,0.0,0.0,0.0,0.0,0.0,0.0,0.0,0.0,0.0,0.0,-2.9355,0.0,0.0,0.0,0.0,0.0,0.0,0.0,0.0,0.0,0.0,0.0,0.0,0.0,0.0,0.0,0.0,0.0,0.0,0.0,0.0,0.0,0.0,0.0,0.0,0.0,0.0,0.0,0.0,0.0,0.0,0.0,0.0,0.0,0.0,0.0,0.0,0.0,0.0,0.0,0.0,-2.1799,-2.1583,-2.1477,-2.1913,-2.2093,-2.2307,-2.2669,-2.286,-2.2717,-2.2142,-2.1808,0.0,0.0,0.0,0.0,0.0,0.0,0.0,0.0,0.0,0.0,0.0,0.0,0.0,0.0,0.0,0.0,0.0,0.0,0.0,0.0,0.0,0.0,0.0,0.0,0.0,0.0,0.0,0.0,0.0,0.0,0.0,0.0,0.0,0.0,0.0,0.0,0.0,0.0,0.0,0.0,0.0,0.0,0.0,0.0,0.0,0.0,0.0,0.0,0.0,0.0,0.0,0.0,0.0,-3.0225,-3.0259,-3.0291,-3.0835,-3.0804,-3.0294,-2.9337,-2.9127,-2.9462,0.0,0.0,0.0,0.0,0.0,0.0,0.0,0.0,0.0,0.0,0.0,0.0,0.0,0.0,0.0,0.0,0.0,0.0,0.0,0.0,0.0,0.0,0.0,0.0,0.0,-1.9731,-1.9392,0.0,0.0,0.0,0.0,0.0,0.0,0.0,0.0,0.0,0.0,0.0,0.0,-2.1348,-2.1134,-2.1039,-2.1445,-2.1491,-2.1744,-2.2361,-2.2401,-2.2233,-2.185,-2.1814,-2.1244,0.0,0.0,0.0,0.0,0.0,0.0,0.0,0.0,0.0,0.0,0.0,0.0,0.0,0.0,0.0,0.0,0.0,0.0,0.0,0.0,0.0,0.0,0.0,0.0,0.0,0.0,0.0,0.0,0.0,0.0,0.0,0.0,-2.9557,-3.0307,0.0,0.0,0.0,0.0,0.0,0.0,0.0,0.0,0.0,0.0,0.0,0.0,0.0,0.0,-3.1292,-3.0739,-3.0432,-3.0448,-2.9922,-2.9724,-2.9724,-2.9788,-2.9791,-2.9711,-2.9543,0.0,-2.9477,-2.9574,0.0,0.0,0.0,0.0,0.0,0.0,0.0,0.0,0.0,0.0,0.0,0.0,0.0,0.0,0.0,0.0,0.0,0.0,0.0,0.0,0.0,0.0,-1.9915,-1.9826,-1.9434,-1.9056,0.0,-1.8866,-1.8746,-1.8432,0.0,0.0,0.0,0.0,0.0,0.0,0.0,0.0,-2.1007,-2.0682,-2.0566,-2.1023,-2.1071,-2.1118,-2.1212,-2.1228,-2.1195,-2.1144,-2.0543,-2.0219,-2.0251,-1.9538,0.0,0.0,0.0,0.0,0.0,0.0,0.0,0.0,0.0,0.0,0.0,0.0,0.0,0.0,0.0,0.0,0.0,0.0,0.0,0.0,0.0,0.0,0.0,0.0,0.0,0.0,0.0,0.0,0.0,-2.889,-2.9759,-2.9375,-3.0199,-3.0645,0.0,0.0,0.0,0.0,0.0,0.0,0.0,0.0,0.0,-2.9774,-2.9781,-2.9977,-3.0387,-3.0147,-2.9989,-3.0004,-3.0087,-3.0103,-3.0118,-3.0507,-3.0687,-3.0687,-3.0687,-3.0238,-2.9544,-2.9529,-2.9019,-2.8236,0.0,0.0,0.0,0.0,0.0,-2.3625,-2.2762,0.0,0.0,0.0,0.0,0.0,0.0,0.0,0.0,0.0,0.0,0.0,0.0,0.0,0.0,-1.9281,-1.9005,-1.8821,-1.8821,-1.8056,-1.7571,0.0,-1.8119,-1.8163,-1.8861,0.0,0.0,0.0,0.0,0.0,-2.0097,-1.9798,-1.9796,-2.0533,-2.06,-2.0699,-2.0975,-2.0991,-2.0991,-2.0991,-2.0703,-2.0382,-2.0086,-1.9749,-1.9346,0.0,0.0,0.0,0.0,0.0,0.0,0.0,0.0,0.0,0.0,0.0,0.0,0.0,0.0,0.0,0.0,0.0,0.0,0.0,0.0,0.0,0.0,0.0,0.0,0.0,0.0,0.0,0.0,-2.9592,-2.9826,-2.8879,-2.9882,-3.0394,0.0,0.0,0.0,0.0,0.0,0.0,-2.9587,-2.9051,-2.899,-2.9592,-2.9597,-2.9765,-3.0073,-3.0088,-2.999,-2.9781,-3.0241,-3.0334,-3.0133,-3.0632,-3.0866,-3.0866,-3.0866,-3.0235,-2.9206,-2.9196,-2.8419,-2.7187,-2.7272,-2.6393,-2.5014,-2.467,-2.3974,-2.3068,-2.239,-2.2159,-2.2016,-2.1121,0.0,-2.022,-1.9458,0.0,0.0,0.0,0.0,-1.8915,-1.8463,0.0,-1.9049,-1.8543,-1.8409,-1.8409,-1.8409,-1.7252,-1.6525,0.0,-1.7711,-1.7728,-1.8372,0.0,0.0,0.0,0.0,-1.8372,-1.9115,-1.892,-1.9029,-1.9849,-1.9937,-2.0143,-2.0632,-2.0665,-2.0665,-2.0665,-2.0665,-2.0412,-1.9861,-1.9845,-1.9547,-1.89,0.0,0.0,0.0,0.0,0.0,0.0,0.0,0.0,0.0,0.0,0.0,0.0,0.0,0.0,0.0,0.0,0.0,0.0,0.0,0.0,0.0,0.0,0.0,0.0,0.0,0.0,0.0,0.0,0.0,-2.9555,-3.0616,0.0,0.0,0.0,0.0,-3.1294,-3.1278,-3.0995,-3.0473,-3.0401,-3.0416,-3.0428,-3.043,-3.076,-3.1406,-3.1406,-3.1028,-3.0273,-3.0301,-2.9877,-2.9087,-2.9115,-2.9129,-2.9129,-2.9129,-2.8737,-2.8099,-2.834,-2.7699,-2.6421,-2.5107,-2.4524,-2.4294,-2.3031,-2.2524,-2.2363,-2.1746,-2.1536,-2.1536,-2.1473,-2.0643,-1.9408,-1.8123,-1.7702,0.0,0.0,-1.772,-1.7704,-1.7649,-1.7677,-1.7704,-1.7649,-1.766,-1.766,-1.766,-1.6897,-1.6403,0.0,-1.637,-1.6073,-1.7175,0.0,-1.7524,-1.8092,-1.8131,-1.8125,-1.8171,-1.8151,-1.8347,-1.8912,-1.8972,-1.9188,-1.9711,-1.9764,-1.9764,-1.9764,-1.9764,-1.9749,-1.9702,-1.9702,-1.9528,-1.9194,-1.8658,0.0,0.0,0.0,0.0,0.0,0.0,0.0,0.0,0.0,0.0,0.0,0.0,0.0,0.0,0.0,0.0,0.0,0.0,0.0,0.0,0.0,0.0,0.0,0.0,0.0,0.0,0.0,0.0,-2.7939,-2.8698,0.0,-2.8311,-2.8435,-2.856,-2.856,-2.856,-2.8652,-2.8886,-2.8886,-2.91,-2.9519,-2.9533,-2.9647,-2.9889,-2.9889,-2.9766,-2.9473,-2.9473,-2.9286,-2.9002,-2.9002,-2.9002,-2.8975,-2.865,-2.8108,-2.7409,-2.6658,-2.6337,-2.6232,-2.5384,-2.4764,-2.4276,-2.3794,-2.3303,-2.2814,-2.2594,-2.2518,-2.2368,-2.1487,-2.0069,-1.8663,-1.8199,-1.7498,-1.6894,-1.6894,-1.6557,-1.6187,-1.6187,-1.6528,-1.6894,-1.6894,-1.6894,-1.6809,-1.6542,-1.5621,-1.4966,-1.5295,-1.5193,-1.5264,-1.6009,-1.586,-1.5937,-1.6865,-1.6718,-1.6773,-1.7504,-1.7585,-1.7787,-1.8341,-1.84,-1.8458,-1.865,-1.8669,-1.8669,-1.8669,-1.8669,-1.8669,-1.8669,-1.8669,-1.8612,-1.8481,-1.7878,-1.7306,0.0,0.0,0.0,0.0,0.0,0.0,0.0,0.0,0.0,0.0,0.0,0.0,0.0,0.0,0.0,0.0,0.0,0.0,0.0,0.0,0.0,0.0,0.0,0.0,0.0,0.0,-2.7437,-2.7349,-2.793,-2.8068,-2.7404,-2.7528,-2.7682,-2.7682,-2.7682,-2.7875,-2.8319,-2.8346,-2.8557,-2.8989,-2.9002,-2.9002,-2.9002,-2.9002,-2.8844,-2.8556,-2.8556,-2.8427,-2.8149,-2.8149,-2.8149,-2.8122,-2.7583,-2.7068,-2.6547,-2.5301,-2.5047,-2.5411,-2.4838,-2.4337,-2.3884,-2.3884,-2.3382,-2.2659,-2.2372,-2.2249,-2.2029,-2.0646,-1.9362,-1.8311,-1.7892,-1.7118,-1.6386,-1.6386,-1.5897,-1.541,-1.541,-1.5748,-1.6122,-1.6122,-1.6038,-1.5843,-1.5591,-1.4657,-1.3932,-1.4073,-1.4251,-1.4572,-1.5139,-1.4949,-1.5028,-1.5981,-1.5642,-1.5642,-1.6595,-1.6723,-1.6933,-1.7477,-1.7713,-1.7907,-1.8086,-1.8106,-1.8106,-1.8106,-1.8106,-1.8106,-1.8106,-1.8106,-1.8106,-1.8106,-1.732,-1.6833,-1.6691,0.0,0.0,0.0,0.0,0.0,0.0,0.0,0.0,0.0,0.0,0.0,0.0,0.0,0.0,0.0,0.0,0.0,0.0,0.0,0.0,0.0,0.0,0.0,-2.6907,-2.7611,-2.792,-2.7948,-2.8518,-2.8673,-2.8033,-2.8532,-2.8907,-2.8907,-2.8907,-2.8894,-2.888,-2.888,-2.888,-2.888,-2.888,-2.888,-2.8907,-2.8907,-2.8492,-2.767,-2.767,-2.7263,-2.6499,-2.6499,-2.6487,-2.6402,-2.5791,-2.5528,-2.5394,-2.4342,-2.3904,-2.3854,-2.329,-2.3078,-2.3078,-2.3035,-2.2537,-2.1753,-2.0878,-2.059,-2.0352,-1.9052,-1.8585,-1.8331,-1.7088,-1.6436,-1.6095,-1.6095,-1.5752,-1.541,-1.541,-1.541,-1.541,-1.541,-1.5088,-1.4813,-1.4766,-1.4102,-1.3506,-1.3486,-1.3642,-1.3956,-1.4537,-1.4629,-1.4858,-1.5454,-1.5062,0.0,-1.5499,-1.5565,-1.5774,-1.6327,-1.6891,-1.7463,-1.7973,-1.8013,-1.8013,-1.7993,-1.7993,-1.7993,-1.7993,-1.7993,-1.7993,-1.7993,-1.6969,-1.6363,-1.6218,0.0,0.0,0.0,0.0,0.0,0.0,0.0,0.0,0.0,0.0,0.0,0.0,0.0,0.0,0.0,0.0,0.0,0.0,0.0,0.0,0.0,0.0,-2.6169,-2.6769,-2.6491,-2.6419,-2.6845,-2.7072,-2.7098,-2.6909,-2.7072,-2.7196,-2.7196,-2.7196,-2.7002,-2.6575,-2.6517,-2.6517,-2.6517,-2.6517,-2.6756,-2.7196,-2.7196,-2.7061,-2.685,-2.685,-2.6714,-2.6499,-2.6499,-2.5928,-2.4856,-2.4314,-2.349,-2.2513,-2.1829,-2.1542,-2.1594,-2.2061,-2.223,-2.2156,-2.151,-2.1164,-2.091,-2.0687,-2.0171,-1.9607,-1.9217,-1.8477,-1.767,-1.7301,-1.6701,-1.6095,-1.6095,-1.5752,-1.541,-1.541,-1.541,-1.541,-1.541,-1.5088,-1.4697,-1.4385,-1.3887,-1.3418,-1.3115,-1.312,-1.32,-1.3358,-1.3382,-1.361,-1.4202,0.0,0.0,-1.488,-1.4949,-1.5163,-1.5752,-1.5971,-1.6123,-1.6284,-1.6284,-1.6099,0.0,-1.564,-1.564,-1.564,-1.564,-1.564,-1.564,-1.5251,-1.4893,0.0,0.0,0.0,0.0,0.0,0.0,0.0,0.0,0.0,0.0,0.0,0.0,0.0,0.0,0.0,0.0,0.0,0.0,0.0,0.0,0.0,0.0,-2.5421,-2.6329,-2.6574,-2.624,-2.6122,-2.6449,-2.6499,-2.6499,-2.6499,-2.6499,-2.6499,-2.6499,-2.6273,-2.5984,-2.5611,-2.5385,-2.5372,-2.5586,-2.5598,-2.5908,-2.6487,-2.6499,-2.6499,-2.6499,-2.6499,-2.6361,-2.6101,-2.5723,-2.5005,0.0,-2.3017,-2.2167,-2.1351,-2.0824,-2.059,0.0,0.0,0.0,0.0,0.0,-2.0042,-2.0009,-1.9628,-1.9177,-1.8754,-1.8754,-1.8258,-1.7607,-1.7432,-1.6894,-1.6339,-1.6144,-1.5533,-1.4903,-1.4903,-1.4658,-1.4392,-1.4392,-1.3982,-1.3525,-1.3232,-1.2765,-1.2298,-1.207,0.0,0.0,-1.2024,-1.252,-1.3104,-1.3708,-1.3576,-1.3647,0.0,-1.4329,-1.4468,-1.4812,-1.5073,-1.5231,-1.5231,-1.5231,0.0,0.0,0.0,-1.4698,-1.4698,-1.4698,0.0,0.0,0.0,0.0,0.0,0.0,0.0,0.0,-1.3866,-1.3435,0.0,0.0,0.0,0.0,0.0,0.0,0.0,0.0,0.0,0.0,0.0,0.0,0.0,0.0,0.0,0.0,-2.4938,-2.5468,-2.5949,-2.6012,-2.613,-2.644,-2.6499,-2.6499,-2.6499,-2.6499,-2.6499,-2.6499,-2.5845,-2.5428,-2.5365,0.0,0.0,0.0,0.0,-2.5558,-2.6164,-2.6164,-2.6164,-2.6164,-2.6164,-2.5868,-2.5326,-2.4528,-2.3797,-2.3132,-2.181,-2.1163,-2.0975,-2.051,-2.0301,-2.0333,-2.043,-2.0398,-2.0204,-1.9431,-1.9144,0.0,0.0,0.0,0.0,-1.7862,-1.7828,-1.776,-1.7283,-1.6808,-1.6325,-1.5954,-1.5011,-1.4055,-1.4055,-1.3545,-1.3009,-1.3009,-1.2439,-1.1894,-1.1894,-1.1325,-1.0788,-1.0788,-1.0788,-1.0788,-1.0788,-1.1891,-1.2949,-1.3484,-1.319,0.0,-1.3637,-1.3708,-1.3708,-1.3697,0.0,0.0,-1.448,-1.456,-1.456,-1.4502,-1.4502,-1.4502,-1.4502,-1.4502,-1.4502,-1.4502,-1.4502,-1.4502,-1.4502,-1.3956,-1.365,-1.3582,-1.3183,-1.2776,0.0,0.0,0.0,0.0,0.0,0.0,0.0,0.0,0.0,0.0,0.0,0.0,0.0,0.0,0.0,-2.2525,-2.3029,-2.3329,-2.3075,-2.304,-2.3904,-2.6236,-2.6499,-2.6499,-2.6499,-2.6499,-2.6499,-2.6499,-2.5298,-2.4345,-2.3914,-2.3023,0.0,-2.2685,-2.3063,-2.3521,-2.4061,-2.4061,-2.4061,-2.4061,0.0,0.0,-2.39,-2.3404,-2.2493,-2.1285,-2.0627,-1.9714,-1.865,-1.8569,-1.8496,-1.8553,-1.9276,-1.911,-1.8496,-1.8303,-1.8236,-1.8236,-1.8076,-1.8008,-1.7862,-1.7104,-1.6888,-1.6697,-1.5887,-1.5155,0.0,-1.4521,-1.3882,-1.3213,-1.3213,-1.313,-1.3009,-1.3009,-1.2439,-1.1894,-1.1894,-1.1325,-1.0788,-1.0788,-1.0788,-1.0788,-1.0788,-1.1466,-1.2046,-1.2184,-1.2598,-1.2954,-1.3065,-1.3079,-1.306,-1.3,-1.3582,-1.3758,-1.3205,-1.3653,-1.3766,-1.3272,-1.3248,-1.3248,-1.3248,-1.3248,-1.3248,-1.3248,-1.3248,-1.3248,-1.3248,-1.3128,-1.2769,-1.2199,-1.269,-1.2878,0.0,0.0,0.0,0.0,0.0,0.0,0.0,0.0,0.0,0.0,0.0,-2.0498,-2.1085,0.0,-2.1978,-2.2081,-2.2364,-2.2477,-2.2229,-2.2195,-2.272,-2.4183,-2.4345,-2.4453,-2.4681,-2.4717,-2.4717,-2.4717,-2.3745,-2.2947,-2.246,-2.1913,-2.171,-2.199,-2.2458,-2.295,-2.3478,-2.3514,-2.3514,-2.3514,-2.3514,-2.3355,-2.3061,-2.2226,-2.1298,-2.0306,-1.9411,-1.8662,-1.8008,-1.8008,-1.8008,-1.8042,-1.8496,-1.8395,-1.8008,-1.8008,-1.8008,-1.8008,-1.8008,-1.7681,-1.7207,-1.674,-1.628,-1.5721,-1.4906,-1.4404,-1.4007,-1.3653,-1.3001,-1.2389,-1.2389,-1.2089,-1.1787,-1.1787,-1.1398,-1.0958,-1.083,-1.0377,-0.9955,-0.9818,-0.9788,-0.9788,-0.9788,-1.0364,-1.0914,-1.1241,-1.1609,-1.1841,-1.1841,-1.1841,-1.1832,-1.1796,-1.2092,-1.2165,-1.1821,-1.2116,-1.2184,-1.1866,-1.1841,-1.1841,-1.1841,-1.1841,-1.1841,-1.1841,-1.1841,-1.1841,-1.1841,-1.1841,-1.1658,-1.1316,-1.1683,-1.1841,0.0,0.0,0.0,0.0,0.0,0.0,0.0,0.0,-2.0557,-2.015,-2.0376,-2.0821,-2.1263,-2.1428,-2.1496,-2.1512,-2.1501,-2.1468,-2.1414,-2.1392,-2.1392,-2.1392,-2.1866,-2.2353,-2.2724,-2.2769,-2.2769,-2.2769,-2.2043,-2.1495,-2.1141,-2.0939,-2.1022,-2.1472,-2.2015,-2.2506,-2.2925,-2.2936,-2.2936,-2.2936,-2.2936,-2.2673,-2.2121,-2.099,-2.0187,-1.9582,-1.8482,-1.8008,-1.8008,-1.8008,-1.8008,-1.8008,-1.8008,-1.7906,-1.7759,-1.794,-1.7862,-1.7725,-1.7725,-1.7113,-1.628,-1.6105,-1.5508,-1.4773,-1.3994,-1.3711,-1.3521,-1.2862,-1.2165,-1.1635,-1.1577,-1.1076,-1.0593,-1.0593,-1.0334,-1.004,-0.9746,-0.9452,-0.9124,-0.8864,-0.8804,-0.8804,-0.8804,-0.9237,-0.984,-1.0491,-1.0712,-1.0788,-1.0788,-1.0788,-1.0737,-1.0618,-1.0712,-1.0788,-1.0788,-1.0788,-1.0788,-1.0788,-1.0788,-1.0788,-1.0788,-1.0788,-1.0788,-1.0788,-1.0788,-1.0788,-1.0788,-1.0788,-1.0737,-1.0618,-1.0618,-1.0686,-2.0281,-1.9598,0.0,-1.8129,-1.8529,-1.901,0.0,0.0,-1.9708,-1.8954,-1.9181,-1.939,-1.9043,-1.9336,-1.9465,-1.9078,-1.9008,-1.8879,-1.8536,-1.8476,-1.8476,-1.8476,-2.0685,-2.2218,-2.2274,-2.2274,-2.2274,-2.2274,-2.1076,-2.0273,-2.0254,-1.9793,-1.9545,-1.9604,-2.0399,-2.0846,-2.0934,-2.0934,-2.0934,-2.0934,-2.0934,-2.0667,-2.0183,-1.9693,-1.9187,-1.8709,-1.8228,-1.8008,-1.8008,-1.8008,-1.8008,-1.8008,-1.8008,-1.7501,-1.6853,-1.7681,-1.7467,-1.6749,-1.6768,-1.6132,-1.5199,-1.4307,-1.3954,-1.3694,-1.2795,-1.2341,-1.206,-1.169,-1.1336,-1.1038,-1.0812,-1.0688,-1.0593,-1.0593,-1.0334,-1.004,-0.9746,-0.9452,-0.9124,-0.8864,-0.8804,-0.8804,-0.8804,-0.8857,-0.9133,-0.9814,-1.0415,-1.0788,-1.0788,-1.0788,-1.0559,-0.9961,-1.044,-1.0788,-1.0788,-1.0788,-1.0788,-1.0788,-1.0788,-1.0788,-1.0788,-1.0788,-1.0788,-1.0788,-1.0788,-1.0788,-1.0788,-1.0788,-1.0491,-0.9909,-0.9909,-1.0236,-1.8721,0.0,0.0,0.0,-1.8542,-1.9116,-1.9031,-1.9452,-1.9613,-1.8764,-1.8984,-1.915,-1.8685,-1.8754,-1.8734,0.0,-1.8237,-1.8178,-1.8037,-1.8008,-1.8008,-1.8008,-1.9056,-1.9844,-2.007,-2.009,-2.009,-2.009,-1.9553,-1.9132,-1.8879,-1.9156,-1.9287,-1.9287,-2.0155,-2.0605,-2.0605,-2.0605,-2.0605,-2.0605,-2.0605,-2.0332,-1.9902,-1.9482,-1.8916,-1.8227,-1.8086,-1.8008,-1.8008,-1.8008,-1.7681,-1.7182,-1.7192,-1.662,-1.5895,-1.6853,-1.6576,-1.5799,-1.5807,-1.5136,-1.4279,-1.3854,-1.331,-1.2771,-1.2243,-1.2,-1.1806,-1.1303,-1.1089,-1.0922,-1.0667,-1.0593,-1.0593,-1.0593,-1.0492,-1.0294,-1.0,-0.9706,-0.9412,-0.9084,-0.8898,-0.8804,-0.8804,-0.8804,-0.891,-0.9185,-0.9465,-0.964,-0.964,-0.964,-0.9543,-0.9237,-0.9465,-0.964,-0.964,-0.964,-0.964,-0.964,-0.964,-0.964,-0.964,-0.964,-0.964,-0.964,-0.964,-0.964,-0.964,-0.964,-0.9484,-0.9211,-0.9211,-0.9361,-1.7473,0.0,0.0,-1.7905,-1.8378,-1.8975,-1.9065,-1.9435,-1.9524,-1.8758,-1.8887,-1.8975,-1.851,-1.8432,-1.8325,-1.8057,-1.8008,-1.8008,-1.8008,-1.8008,-1.8057,-1.813,-1.8184,-1.8266,-1.8568,-1.85,-1.8432,-1.8432,-1.8432,-1.8344,-1.8193,-1.8887,-1.9336,-1.9453,-2.0214,-2.0605,-2.0605,-2.0605,-2.0605,-2.0605,-2.0478,-2.0156,-1.9727,-1.8916,-1.8081,-1.7226,-1.7226,-1.7226,-1.7226,-1.7226,-1.6828,-1.6219,-1.6202,-1.5631,-1.4879,-1.5544,-1.5367,-1.4772,-1.4772,-1.4135,-1.331,-1.331,-1.2842,-1.2265,-1.2051,-1.1973,-1.1799,-1.1256,-1.1056,-1.0922,-1.0667,-1.0593,-1.0593,-1.0593,-1.0434,-1.0153,-0.9801,-0.9575,-0.935,-0.9038,-0.902,-0.8971,-0.8696,-0.8623,-0.8544,-0.8248,-0.8182,-0.8348,-0.8752,-0.8804,-0.8804,-0.8804,-0.8804,-0.8804,-0.8804,-0.8804,-0.8804,-0.8804,-0.8804,-0.8804,-0.8804,-0.8804,-0.8804,-0.8804,-0.8804,-0.8804,-0.8804,-0.8804,-0.8699,-0.8487,-0.8531,-0.8456,0.0,0.0,-1.7264,-1.7375,-1.7719,-1.8149,-1.8525,-1.8991,-1.9177,-1.8685,-1.8617,-1.849,-1.8105,-1.8027,-1.8027,-1.8008,-1.8008,-1.8008,-1.8008,-1.8008,-1.813,-1.8539,-1.8588,-1.8588,0.0,-1.8237,-1.8027,-1.8027,-1.8027,-1.8169,-1.8559,-1.9043,-1.9473,-1.9883,-2.037,-2.0605,-2.0605,-2.0605,-2.0605,-2.0595,-2.0137,-1.9717,-1.9277,-1.7504,-1.6167,-1.5269,-1.5269,-1.5269,-1.5269,-1.5269,-1.5269,-1.5234,-1.5234,-1.4629,-1.3745,-1.3781,-1.3781,-1.3745,-1.3745,-1.3127,-1.2335,-1.2335,-1.2335,-1.2305,-1.2291,-1.2091,-1.1839,-1.1462,-1.1209,-1.0922,-1.0667,-1.0593,-1.0593,-1.0593,-0.9951,-0.9261,-0.8915,-0.882,-0.8738,-0.8481,-0.9088,-0.9358,-0.8399,-0.8211,-0.7872,-0.6808,-0.6669,-0.7182,-0.8619,-0.8804,-0.8804,-0.8804,-0.8804,-0.8804,-0.8804,-0.8804,-0.8804,-0.8804,-0.8804,-0.8804,-0.8804,-0.8804,-0.8804,-0.8804,-0.8804,-0.8804,-0.8804,-0.8804,-0.8427,-0.7729,-0.7854,-0.7571,0.0,0.0,-1.7252,-1.7007,-1.748,-1.7867,-1.7438,-1.7705,-1.7978,-1.7832,-1.7803,-1.7842,-1.7988,-1.8208,-1.8295,-1.8057,-1.8208,-1.8295,-1.8047,-1.8008,-1.8164,-1.8549,-1.8598,0.0,0.0,0.0,0.0,-1.8037,-1.8008,-1.8193,-1.8578,-1.9053,-1.9482,-1.9902,-2.038,-2.0605,-2.0605,-2.0605,-2.0605,-2.0595,-1.9222,-1.8017,-1.6933,-1.6058,-1.5517,-1.5199,-1.5199,-1.5199,-1.5199,-1.5199,-1.4807,-1.4207,-1.4207,-1.3629,-1.2769,-1.2769,-1.2769,-1.2769,-1.2769,-1.2556,-1.2305,-1.2305,-1.2305,-1.2305,-1.2305,-1.2231,-1.2058,-1.1529,-1.1322,-1.1035,-1.0,-0.9722,-0.9594,-0.9,-0.864,-0.8398,-0.8308,-0.8106,-0.7912,-0.7833,-0.7911,-0.785,-0.7405,-0.7334,-0.7175,-0.6673,-0.6588,-0.6777,-0.7262,-0.7343,-0.7343,-0.7343,-0.7343,-0.7343,-0.7343,-0.7343,-0.7343,-0.7343,-0.7343,-0.7343,-0.7343,-0.7343,-0.7343,-0.7343,-0.7343,-0.7343,-0.7343,-0.7343,-0.7291,-0.7161,-0.7207,-0.7156,-1.6555,-1.6985,-1.7353,-1.7184,-1.7607,-1.7861,-1.7282,-1.7402,-1.7607,-1.7607,-1.7607,-1.7686,-1.7959,-1.8315,-1.8461,-1.8076,-1.8325,-1.8451,-1.8066,-1.81,-1.8354,-1.8783,-1.8867,0.0,0.0,0.0,0.0,-1.8237,-1.8198,-1.8451,-1.9026,-1.9365,-1.9707,-2.0137,-2.0458,-2.0605,-2.0605,-2.0206,-1.9684,-1.9017,-1.785,-1.651,-1.5021,-1.4768,-1.4486,-1.4163,-1.4163,-1.4163,-1.4163,-1.4163,-1.3774,-1.32,-1.32,-1.2842,-1.2305,-1.2305,-1.2305,-1.2305,-1.2305,-1.2305,-1.2305,-1.2305,-1.2305,-1.2305,-1.2305,-1.2231,-1.1972,-1.1175,-1.0866,-1.0478,-0.9179,-0.8844,-0.8683,-0.8124,-0.7762,-0.7535,-0.7535,-0.7365,-0.7207,-0.7207,-0.7322,-0.7284,-0.6796,-0.6409,-0.6149,-0.6002,-0.5984,-0.6127,-0.6554,-0.6588,-0.6588,-0.6588,-0.6588,-0.6588,-0.6588,-0.6588,-0.6588,-0.6588,-0.6588,-0.6588,-0.6588,-0.6588,-0.6588,-0.6588,-0.6588,-0.6588,-0.6588,-0.6663,-0.6635,-0.6511,-0.6599,-0.6561,-1.7191,-1.7435,-1.751,-1.7881,-1.7988,-1.7998,-1.7949,-1.7959,-1.7978,-1.7978,-1.7978,-1.7988,0.0,0.0,-1.849,-1.8115,-1.8383,-1.852,-1.8135,-1.8383,-1.8792,0.0,0.0,0.0,0.0,0.0,0.0,-1.8595,0.0,-1.8997,-1.9863,-1.9837,-2.0031,-2.0508,-2.044,-2.044,-2.044,-1.9413,-1.797,-1.6114,-1.6127,-1.5237,-1.3637,-1.3637,-1.3135,-1.2305,-1.2305,-1.2305,-1.2305,-1.2305,-1.2305,-1.2305,-1.2305,-1.2305,-1.2305,-1.2305,-1.2305,-1.2305,-1.2305,-1.2305,-1.2305,-1.2305,-1.2305,-1.2298,-1.2224,-1.2038,-1.1575,-1.037,-0.9844,-0.9393,-0.8249,-0.7965,-0.7927,-0.7884,-0.726,-0.6634,-0.6625,-0.6621,-0.6621,-0.6621,-0.7298,-0.7523,-0.6507,-0.5539,-0.4897,-0.4891,-0.4894,-0.5292,-0.6376,-0.6514,-0.6514,-0.6514,-0.6514,-0.6514,-0.6514,-0.6514,-0.651,-0.6495,-0.6495,-0.6495,-0.6495,-0.6485,-0.6485,-0.6495,-0.6495,-0.6495,-0.6495,-0.6707,-0.6444,-0.5781,-0.6031,-0.5789,-1.7357,-1.7607,-1.7803,-1.7598,-1.7773,-1.7842,-1.7174,-1.7314,-1.7539,-1.7539,-1.7539,-1.7637,0.0,0.0,0.0,-1.851,-1.9065,0.0,-1.9023,-1.9053,0.0,0.0,0.0,-1.916,-1.8792,-1.9092,0.0,0.0,-1.8676,-1.9355,-1.9883,-1.9136,-1.8929,-1.9383,-1.859,-1.8141,-1.8141,-1.7649,-1.6682,-1.5165,-1.4956,-1.4097,-1.2666,-1.2666,-1.2519,-1.2305,-1.2305,-1.2305,-1.2305,-1.2305,-1.2305,-1.2305,-1.2305,-1.2305,-1.2305,-1.2305,-1.2305,-1.2305,-1.2305,-1.2305,-1.2305,-1.2305,-1.2305,-1.215,-1.1391,-1.1113,-1.082,-0.9502,-0.9072,-0.8761,-0.7608,-0.732,-0.7147,-0.6405,-0.6037,-0.5868,-0.5745,-0.5719,-0.5719,-0.5719,-0.578,-0.5743,-0.5484,-0.5227,-0.5009,-0.4904,-0.4978,-0.5133,-0.5296,-0.5332,-0.5332,-0.5332,-0.5332,-0.5332,-0.5332,-0.5332,-0.5276,-0.518,-0.5169,-0.5169,-0.5169,-0.5075,-0.5068,-0.5169,-0.5169,-0.5169,-0.5197,-0.5339,-0.5362,-0.5295,-0.5342,-0.535,-1.7607,-1.7832,-1.7959,-1.7715,-1.7832,-1.7881,-1.7369,-1.748,-1.7656,-1.7656,-1.7656,0.0,0.0,0.0,0.0,0.0,0.0,0.0,-1.96,-1.9561,-1.9629,0.0,-1.9258,0.0,-1.8469,-1.8276,-1.7906,0.0,-1.8254,-1.8825,-1.8752,-1.8184,-1.7964,-1.8261,-1.7617,-1.705,-1.6601,-1.6436,-1.5619,-1.4116,-1.3944,-1.332,-1.2305,-1.2305,-1.2305,-1.2305,0.0,-1.2305,-1.2305,-1.2305,-1.2305,-1.2305,-1.2305,-1.2305,-1.2261,-1.1805,-1.1657,-1.1583,-1.1136,-1.0987,-1.1136,-1.2003,-1.1996,-1.1539,-1.0969,-1.0484,-0.9873,-0.8604,-0.8217,-0.7956,-0.6837,-0.6548,-0.6382,-0.5807,-0.5637,-0.5566,-0.5515,-0.5443,-0.5395,-0.5395,-0.5324,-0.5233,-0.5233,-0.5233,-0.5206,-0.5125,-0.5179,-0.5203,-0.5125,-0.4999,-0.4887,-0.4887,-0.4887,-0.4887,-0.4887,-0.4887,-0.488,-0.4796,-0.4792,-0.4792,-0.4792,-0.4707,-0.4704,-0.4789,-0.4792,-0.4792,-0.4792,-0.4911,-0.5022,-0.51,-0.5199,-0.5078,-1.791,-1.7906,-1.7828,-1.7974,-1.7906,-1.7872,-1.7974,-1.8008,-1.8008,-1.8008,0.0,0.0,-1.8086,0.0,-1.9163,-1.8675,0.0,-1.9764,-1.9678,-1.9602,-1.9707,-2.008,-1.8916,-1.8056,-1.8012,-1.7217,-1.6655,-1.6497,-1.7376,-1.7743,-1.7317,-1.718,-1.7017,-1.6895,-1.6846,-1.6398,-1.5496,-1.5415,-1.466,-1.3213,-1.3166,-1.2852,-1.2305,-1.2305,-1.2305,-1.2305,0.0,0.0,-1.2305,-1.2305,-1.2305,-1.2305,-1.2305,-1.2224,-1.1996,-1.1124,-1.0714,-1.049,-0.9593,-0.9296,-0.9599,-1.1323,-1.1316,-1.0596,-1.0447,-0.9777,-0.8841,-0.7691,-0.7348,-0.713,-0.6113,-0.5864,-0.5857,-0.5837,-0.5739,-0.5644,-0.5623,-0.5532,-0.5419,-0.5399,-0.5395,-0.5395,-0.5395,-0.5395,-0.5395,-0.5395,-0.5395,-0.5395,-0.5395,-0.5138,-0.4979,-0.4979,-0.4979,-0.4979,-0.4979,-0.4979,-0.4969,-0.4918,-0.4918,-0.4918,-0.4918,-0.4897,-0.4897,-0.4918,-0.4918,-0.4918,-0.4918,-0.5059,-0.5063,-0.4967,-0.513,-0.4722,-1.7988,-1.7432,-1.7035,-1.7794,-1.7432,-1.7035,-1.7828,-1.8008,0.0,0.0,0.0,-1.8081,-1.8432,-1.8945,0.0,-1.8736,0.0,0.0,0.0,0.0,-1.7751,0.0,0.0,0.0,0.0,0.0,0.0,0.0,0.0,-1.6237,-1.7236,-1.6478,-1.5587,-1.4699,-1.4406,-1.4283,-1.437,-1.3879,-1.3499,-1.3206,-1.2991,-1.2677,-1.2305,-1.2305,-1.2305,-1.2305,0.0,0.0,-1.2305,-1.2305,-1.2305,-1.2305,-1.2305,-1.1774,-1.105,-1.0858,-1.0265,-0.9523,-0.9372,-0.9296,-0.9372,-0.9712,-0.9712,-0.9405,-0.8575,-0.8199,-0.7851,-0.6796,-0.6524,-0.6479,-0.6266,-0.6221,-0.6187,-0.602,-0.5936,-0.5882,-0.5793,-0.565,-0.5545,-0.5419,-0.5395,-0.5395,-0.5395,-0.5395,-0.5395,-0.5395,-0.5395,-0.5395,-0.5395,-0.5351,-0.5317,-0.5317,-0.5317,-0.5317,-0.5317,-0.5317,-0.523,-0.5069,-0.5063,-0.5063,-0.5063,-0.4951,-0.4941,-0.5059,-0.5063,-0.5063,-0.5063,-0.5247,-0.4953,-0.4185,-0.424,-0.3782,-1.7398,-1.6957,-1.6602,-1.6541,-1.6184,-1.6114,-1.707,0.0,0.0,0.0,0.0,-1.8076,-1.8237,0.0,0.0,0.0,0.0,0.0,0.0,0.0,0.0,0.0,0.0,0.0,0.0,0.0,0.0,0.0,0.0,0.0,-1.532,-1.4892,-1.4448,-1.4124,-1.3948,-1.3868,-1.3854,-1.3533,-1.328,-1.3005,-1.2857,-1.263,-1.2305,-1.2305,-1.2305,-1.2305,-1.2305,0.0,-1.2305,-1.2305,-1.1996,-1.1502,-1.1502,-1.0901,-0.9965,-0.9437,-0.895,-0.8428,-0.7936,-0.7744,-0.7744,-0.7744,-0.8084,-0.8428,-0.7936,-0.7442,-0.6907,-0.6451,-0.63,-0.63,-0.63,-0.63,-0.6279,-0.6169,-0.6088,-0.5949,-0.5833,-0.5749,-0.5677,-0.5603,-0.5566,-0.5515,-0.5515,-0.5446,-0.5395,-0.5395,-0.5395,-0.5395,-0.5395,-0.499,-0.4855,-0.5359,-0.5395,-0.5395,-0.5395,-0.5395,-0.5361,-0.5254,-0.4789,-0.4756,-0.525,-0.473,-0.4464,-0.4522,-0.4525,-0.4295,-0.3868,-0.3954,-0.3747,-0.3311,-0.3311,-0.2845,-1.6982,-1.6588,-1.6246,-1.5392,-1.5021,-1.5199,-1.6324,-1.6602,0.0,0.0,0.0,-1.7969,0.0,0.0,0.0,0.0,0.0,0.0,0.0,0.0,0.0,0.0,0.0,0.0,0.0,0.0,0.0,0.0,0.0,0.0,-1.3493,-1.3507,-1.3661,-1.3895,-1.3901,-1.3788,-1.3513,-1.3507,-1.328,-1.2784,-1.2784,-1.263,-1.2305,-1.2305,-1.2305,-1.2305,-1.2305,0.0,0.0,-1.207,-1.1502,-1.0783,-1.0565,-0.9852,-0.8879,-0.8084,-0.7668,-0.7365,-0.6567,-0.63,-0.63,-0.63,-0.6834,-0.748,-0.748,-0.6907,-0.63,-0.63,-0.63,-0.63,-0.63,-0.63,-0.63,-0.63,-0.6169,-0.6037,-0.5884,-0.585,-0.584,-0.581,-0.5711,-0.5567,-0.5354,-0.5223,-0.5069,-0.487,-0.4831,-0.4822,-0.4824,-0.4184,-0.4015,-0.4755,-0.4821,-0.4821,-0.4821,-0.4821,-0.4821,-0.4821,-0.4115,-0.4048,-0.4788,-0.4115,-0.3713,-0.3713,-0.3713,-0.338,-0.2711,-0.2711,-0.2611,-0.241,-0.241,-0.1909,-1.7413,-1.6532,-1.5786,-1.5317,-1.4522,-1.4314,-1.6175,0.0,0.0,0.0,-1.8008,-1.7841,-1.7348,0.0,0.0,0.0,0.0,0.0,0.0,0.0,0.0,0.0,0.0,0.0,0.0,0.0,0.0,0.0,0.0,0.0,0.0,-1.3253,-1.326,-1.3293,-1.3293,-1.328,-1.3253,-1.3253,-1.308,-1.2784,-1.2784,-1.263,-1.2305,-1.2305,-1.2305,-1.2305,0.0,0.0,0.0,-1.1316,-1.0901,-1.0708,-0.9782,-0.8841,-0.7936,-0.7821,-0.7211,-0.6416,-0.6338,-0.63,-0.63,-0.63,-0.6377,-0.6451,-0.6451,-0.6377,-0.63,-0.63,-0.63,-0.63,-0.63,-0.63,-0.63,-0.63,-0.6289,-0.6235,-0.6044,-0.5973,-0.5932,-0.5827,-0.5789,-0.5457,-0.4485,-0.4331,-0.4004,-0.3068,-0.2953,-0.2962,-0.2954,-0.2878,-0.2845,-0.2945,-0.2945,-0.2945,-0.2945,-0.2945,-0.2945,-0.2945,-0.2878,-0.2845,-0.2945,-0.2878,-0.2811,-0.2811,-0.2811,-0.2778,-0.2711,-0.2711,-0.2277,-0.1441,-0.1441,-0.0974,-1.5634,-1.5231,-1.4904,-1.4191,-1.3563,-1.3525,-1.4846,0.0,0.0,-1.6123,-1.6448,-1.6473,-1.6295,-1.6428,0.0,0.0,0.0,0.0,0.0,0.0,0.0,0.0,0.0,0.0,0.0,0.0,0.0,0.0,0.0,0.0,0.0,-1.2832,-1.3019,-1.32,-1.3213,-1.312,-1.2971,-1.2971,-1.2817,-1.2516,-1.2516,-1.2418,-1.2305,-1.2305,-1.1959,-1.1391,0.0,0.0,0.0,-1.0045,-0.9556,-0.8945,-0.8537,-0.7783,-0.6911,-0.6911,-0.6644,-0.63,-0.63,-0.63,-0.63,-0.63,-0.63,-0.63,-0.63,-0.63,-0.63,-0.63,-0.63,-0.63,-0.63,-0.63,-0.6141,-0.5473,-0.5354,-0.5146,-0.4397,-0.4772,-0.5029,-0.4329,-0.4643,-0.4675,-0.3602,-0.3337,-0.3146,-0.2756,-0.2716,-0.269,-0.2686,-0.2198,-0.1842,-0.1846,-0.2376,-0.2711,-0.2711,-0.2711,-0.2711,-0.2711,-0.2177,-0.2108,-0.2678,-0.2143,-0.1855,-0.1855,-0.185,-0.1584,-0.1092,-0.1076,-0.0896,-0.0517,-0.0508,-0.0337,-1.4638,-1.4581,-1.4545,-1.3464,-1.3012,-1.3044,0.0,0.0,-1.4021,-1.508,-1.5482,-1.5548,-1.5357,-1.5535,-1.5737,0.0,0.0,0.0,0.0,0.0,0.0,0.0,0.0,0.0,0.0,0.0,0.0,0.0,0.0,0.0,0.0,-1.2536,-1.2757,-1.2933,-1.3026,-1.2926,-1.2656,-1.2737,-1.2636,-1.2305,-1.2305,-1.2305,-1.2298,-1.1996,-1.1465,-1.0783,0.0,0.0,0.0,-0.8998,-0.8428,-0.7783,-0.748,-0.6907,-0.63,-0.63,-0.63,-0.63,-0.63,-0.63,-0.63,-0.63,-0.63,-0.63,-0.63,-0.63,-0.63,-0.63,-0.63,-0.6219,-0.5906,-0.5825,-0.555,-0.4491,-0.4217,-0.4021,-0.3279,-0.3709,-0.4021,-0.324,-0.3619,-0.3768,-0.2708,-0.2444,-0.2261,-0.1949,-0.191,-0.1892,-0.1914,-0.1307,-0.0911,-0.092,-0.1494,-0.1895,-0.1911,-0.191,-0.1918,-0.1899,-0.1291,-0.1227,-0.1888,-0.126,-0.0919,-0.0919,-0.093,-0.0612,0.0,0.0,0.0,0.0,0.0,0.0,-1.5057,-1.5035,-1.4943,-1.3551,-1.3012,-1.3044,0.0,-1.3948,-1.4046,-1.5324,-1.5618,-1.5399,-1.4734,-1.4608,-1.4413,0.0,0.0,0.0,0.0,0.0,0.0,0.0,0.0,0.0,0.0,0.0,0.0,0.0,0.0,0.0,0.0,-1.2305,-1.2311,-1.2311,-1.2636,-1.2643,-1.2311,-1.2636,-1.2636,-1.2305,-1.2305,-1.2305,-1.2268,-1.1273,-1.082,0.0,0.0,0.0,0.0,-0.8237,-0.7821,-0.7706,-0.6718,-0.63,-0.63,-0.63,-0.63,-0.63,-0.63,-0.63,-0.63,-0.63,-0.63,-0.63,-0.63,-0.63,-0.63,-0.63,-0.63,-0.6064,-0.5002,-0.4727,-0.4453,-0.3357,-0.3124,-0.3124,-0.3085,-0.3124,-0.3124,-0.3085,-0.3122,-0.2812,-0.1801,-0.1606,-0.1243,-0.019,-0.0038,-0.0037,-0.0037,-0.0036,0.0,0.0,-0.0035,-0.0035,-0.0034,-0.0034,-0.0034,-0.0035,-0.0035,-0.0035,-0.0036,-0.0036,0.0,0.0,0.0,0.0,0.0,0.0,0.0,0.0,0.0,0.0,-1.3526,-1.3648,-1.3751,-1.3312,-1.3133,-1.3084,-1.3206,-1.3286,-1.3418,-1.362,-1.398,-1.4165,-1.395,-1.3931,-1.3913,-1.3943,0.0,0.0,0.0,0.0,0.0,0.0,0.0,0.0,0.0,0.0,0.0,0.0,0.0,0.0,0.0,-1.2305,-1.2305,-1.2305,-1.2392,-1.2398,-1.2305,-1.2398,-1.2398,-1.2298,-1.1583,-1.1273,-1.1236,-1.0233,0.0,0.0,0.0,0.0,0.0,-0.6911,-0.6819,-0.6863,-0.6454,-0.6361,-0.6433,-0.6334,-0.63,-0.63,-0.63,-0.63,-0.63,-0.63,-0.63,-0.63,-0.63,-0.63,-0.6141,-0.5395,-0.5198,-0.496,-0.3904,-0.3593,-0.3359,-0.2308,-0.2074,-0.1879,-0.1136,-0.1566,-0.187,-0.1111,-0.1566,-0.1747,-0.0673,-0.0522,-0.0409,-0.0037,0.0,0.0,0.0,0.0,0.0,0.0,0.0,0.0,0.0,0.0,0.0,0.0,0.0,0.0,0.0,0.0,0.0,0.0,0.0,0.0,0.0,0.0,0.0,0.0,0.0,0.0303,0.0,-1.3012,-1.3233,-1.3347,-1.3287,-1.3186,-1.3106,-1.3153,-1.3186,-1.31,-1.338,-1.3633,-1.3753,-1.3808,-1.3874,-1.4055,0.0,0.0,0.0,0.0,0.0,0.0,0.0,0.0,0.0,0.0,0.0,0.0,0.0,0.0,0.0,0.0,-1.2305,-1.2305,-1.2305,-1.2305,-1.2305,-1.1922,-1.1731,-1.1731,-1.0714,-1.0228,-1.019,-0.9178,0.0,0.0,0.0,0.0,0.0,-0.63,-0.6354,-0.6422,-0.6334,-0.6354,-0.6422,-0.633,-0.63,-0.63,-0.63,-0.63,-0.63,-0.63,-0.63,-0.6219,-0.5825,-0.5709,-0.555,-0.4882,-0.4414,-0.3865,-0.2813,-0.2542,-0.2268,-0.1254,-0.098,-0.0824,-0.0157,-0.0507,-0.0809,-0.0114,-0.0525,-0.0779,-0.011,0.0,0.0,0.0,0.0,0.0,0.0,0.0,0.0,0.0,0.0,0.0,0.0,0.0,0.0,0.0,0.0,0.0,0.0,0.0,0.0,0.0,0.0,0.0,0.0,0.0,0.0,0.0,0.0,0.0303,0.0,-1.3025,-1.3273,-1.3507,-1.3387,-1.3307,-1.3513,-1.34,0.0,-1.3553,-1.362,-1.372,-1.4035,-1.4088,-1.4088,-1.4088,0.0,0.0,0.0,0.0,0.0,0.0,0.0,0.0,0.0,0.0,0.0,0.0,0.0,0.0,0.0,0.0,-1.2187,-1.2187,-1.2114,-1.2114,-1.2187,-1.1205,-1.0677,-1.0671,-0.9669,-0.9183,-0.9145,-0.8161,0.0,0.0,0.0,0.0,0.0,-0.63,-0.6306,-0.6313,-0.6303,-0.6306,-0.6313,-0.6303,-0.63,-0.63,-0.63,-0.63,-0.63,-0.6222,-0.618,-0.5983,-0.4921,-0.4647,-0.4686,-0.453,-0.3748,-0.2773,-0.1762,-0.1489,-0.1254,-0.0236,0.0,0.0,0.0,0.0,0.0,0.0,0.0,0.0,0.0,0.0,0.0,0.0,0.0,0.0,0.0,0.0,0.0,0.0,0.0,0.0,0.0,0.0,0.0,0.0,0.0,0.0,0.0,0.0,0.0,0.0,0.0,0.0,0.0,0.0,0.0034,0.0101,0.0101,0.0169,-1.318,0.0,-1.3227,-1.3293,-1.3387,-1.346,0.0,-1.3607,-1.3834,0.0,0.0,0.0,0.0,0.0,0.0,0.0,0.0,0.0,0.0,0.0,0.0,0.0,0.0,0.0,0.0,0.0,0.0,0.0,0.0,0.0,0.0,0.0,-1.1162,-1.1162,-1.0421,-1.0383,-1.1162,-1.0153,-0.9669,-0.9631,-0.8613,-0.8161,-0.8127,-0.7099,0.0,0.0,0.0,0.0,-0.63,-0.63,-0.6364,-0.6453,-0.634,-0.6368,-0.645,-0.634,-0.63,-0.63,-0.63,-0.63,-0.618,-0.5354,-0.5079,-0.4882,-0.3787,-0.4062,-0.4375,-0.2778,-0.2152,-0.1723,-0.0667,-0.0392,-0.0314,-0.0079,0.0,0.0,0.0,0.0,0.0,0.0,0.0,0.0,0.0,0.0,0.0,0.0,0.0,0.0,0.0,0.0,0.0,0.0,0.0,0.0,0.0,0.0,0.0,0.0,0.0,0.0,0.0,0.0,0.0,0.0,0.0,0.0,0.0,0.0,0.0337,0.1006,0.1006,0.1797,-1.3654,-1.3414,-1.324,-1.3333,-1.3487,-1.3593,-1.3621,0.0,0.0,0.0,0.0,0.0,0.0,0.0,0.0,0.0,0.0,0.0,0.0,0.0,0.0,0.0,0.0,0.0,0.0,0.0,0.0,0.0,0.0,0.0,0.0,0.0,-1.0115,-1.0115,-0.914,-0.9107,-1.0115,-0.9102,-0.8613,-0.8618,-0.7595,-0.7099,-0.7099,-0.6567,0.0,0.0,0.0,0.0,-0.6392,-0.6327,-0.6381,-0.6497,-0.6354,-0.6347,-0.6405,-0.6327,-0.63,-0.63,-0.63,-0.5983,-0.5473,-0.4882,-0.4373,-0.3787,-0.2735,-0.2815,-0.3051,-0.1919,-0.1254,-0.0745,-0.0157,0.0,0.0,0.0,0.0,0.0,0.0,0.0,0.0,0.0,0.0,0.0,0.0,0.0,0.0,0.0,0.0,0.0,0.0,0.0,0.0,0.0,0.0,0.0,0.0,0.0,0.0,0.0,0.0,0.0,0.0,0.0,0.0,0.0,0.048,0.0724,0.0733,0.1186,0.1673,0.2122,0.2122,0.2699,-1.4088,-1.3721,-1.34,-1.3606,-1.3666,-1.3733,0.0,0.0,0.0,0.0,0.0,0.0,0.0,0.0,0.0,0.0,0.0,0.0,0.0,0.0,0.0,0.0,0.0,0.0,0.0,0.0,0.0,0.0,0.0,0.0,0.0,0.0,0.0,-0.9069,-0.8084,-0.797,-0.8841,-0.8012,-0.7553,-0.7553,-0.6718,-0.63,-0.63,-0.63,-0.63,0.0,0.0,0.0,-0.647,-0.6351,-0.6371,-0.6467,-0.6347,-0.63,-0.63,-0.63,-0.63,-0.6261,-0.6103,-0.5473,-0.4649,-0.4336,-0.3593,-0.2696,-0.1645,-0.1372,-0.1372,-0.1372,-0.0706,0.0,0.0,0.0,0.0,0.0,0.0,0.0,0.0,0.0,0.0,0.0,0.0,0.0,0.0,0.0,0.0,0.0,0.0,0.0,0.0,0.0,0.0,0.0,0.0,0.0068,0.0239,0.0239,0.0307,0.0477,0.034,0.0305,0.0477,0.0477,0.0483,0.0459,0.1372,0.1813,0.1818,0.2688,0.3159,0.3304,0.3304,0.3384,-1.4088,-1.4021,-1.3961,-1.4008,-1.4021,-1.4035,0.0,0.0,0.0,0.0,0.0,0.0,0.0,0.0,0.0,0.0,0.0,0.0,0.0,0.0,0.0,0.0,0.0,0.0,0.0,0.0,0.0,0.0,0.0,0.0,0.0,0.0,0.0,-0.805,-0.7061,-0.6606,-0.6756,-0.6606,-0.6528,-0.6528,-0.6377,-0.63,-0.63,-0.63,-0.63,0.0,0.0,-0.6313,-0.633,-0.631,-0.6313,-0.633,-0.631,-0.63,-0.63,-0.63,-0.63,-0.618,-0.5273,-0.4844,-0.4414,-0.266,-0.1958,-0.1645,-0.0549,-0.0235,-0.0235,-0.0235,-0.0118,0.0,0.0,0.0,0.0,0.0,0.0,0.0,0.0,0.0,0.0,0.0,0.0,0.0,0.0,0.0,0.0,0.0,0.0,0.0,0.0,0.0,0.0,0.0,0.0,0.036,0.1294,0.1365,0.1724,0.2585,0.1829,0.172,0.2584,0.2621,0.2626,0.2637,0.2781,0.2858,0.287,0.3014,0.3519,0.4275,0.4275,0.4731,-1.4088,-1.4088,-1.4122,-1.4282,-1.4202,-1.4088,0.0,0.0,0.0,0.0,0.0,0.0,0.0,0.0,0.0,0.0,0.0,0.0,0.0,0.0,0.0,0.0,0.0,0.0,0.0,0.0,0.0,0.0,0.0,0.0,0.0,0.0,0.0,0.0,-0.6528,-0.63,-0.63,-0.63,-0.63,-0.63,-0.63,-0.63,-0.63,-0.63,-0.63,-0.63,0.0,-0.6344,-0.6409,-0.633,-0.6344,-0.6409,-0.633,-0.63,-0.6219,-0.5667,-0.5431,-0.5276,-0.4217,-0.3478,-0.2856,-0.1919,-0.1215,-0.0628,-0.0157,0.0,0.0,0.0,0.0,0.0,0.0,0.0,0.0,0.0,0.0,0.0,0.0,0.0,0.0,0.0,0.0,0.0,0.0,0.0,0.0,0.0,0.0,0.0,0.0,0.0,0.0219,0.08,0.0873,0.1273,0.2326,0.2398,0.2616,0.3087,0.2657,0.2618,0.3085,0.3087,0.3107,0.3113,0.3667,0.3952,0.3969,0.4538,0.5066,0.5479,0.5479,0.5705,-1.4068,-1.4035,-1.4055,0.0,0.0,0.0,0.0,0.0,0.0,0.0,0.0,0.0,0.0,0.0,0.0,0.0,0.0,0.0,0.0,0.0,0.0,0.0,0.0,0.0,0.0,0.0,0.0,0.0,0.0,0.0,0.0,0.0,0.0,0.0,-0.63,-0.63,-0.63,-0.63,-0.63,-0.63,-0.63,-0.63,-0.63,-0.63,-0.63,-0.63,-0.63,-0.6361,-0.6453,-0.6344,-0.6364,-0.6453,-0.634,-0.6141,-0.5792,-0.4716,-0.4332,-0.4178,-0.313,-0.2259,-0.1542,-0.1305,-0.067,0.0,0.0,0.0,0.0,0.0,0.0,0.0,0.0,0.0,0.0,0.0,0.0,0.0,0.0,0.0,0.0,0.0,0.0,0.0,0.0,0.0,0.0,0.0,0.0,0.0074,0.0331,0.0369,0.0778,0.1849,0.196,0.2365,0.3401,0.3696,0.3845,0.3845,0.3622,0.3585,0.3845,0.3845,0.3841,0.3842,0.4674,0.5061,0.5079,0.5906,0.63,0.63,0.63,0.63,-1.4015,-1.3881,-1.3706,-1.4048,0.0,0.0,0.0,0.0,0.0,0.0,0.0,0.0,0.0,0.0,0.0,0.0,0.0,0.0,0.0,0.0,0.0,0.0,0.0,0.0,0.0,0.0,0.0,0.0,0.0,0.0,0.0,0.0,0.0,0.0,0.0,-0.63,-0.63,-0.63,-0.63,-0.63,-0.63,-0.63,-0.63,-0.63,-0.63,-0.63,-0.63,-0.6306,-0.6313,-0.6303,-0.6306,-0.6313,-0.6303,-0.5709,-0.4701,-0.3603,-0.3227,-0.3076,-0.2069,-0.1647,-0.1418,-0.0446,-0.008,0.0,0.0,0.0,0.0,0.0,0.0,0.0,0.0,0.0,0.0,0.0,0.0,0.0,0.0,0.0,0.0,0.0,0.0,0.0,0.0,0.0,0.0,0.0,0.0,0.0377,0.1356,0.1499,0.187,0.2876,0.2992,0.3418,0.4508,0.5485,0.6069,0.6069,0.5132,0.5016,0.6034,0.6069,0.6076,0.6086,0.6167,0.617,0.618,0.6261,0.63,0.63,0.63,0.63,-1.374,-1.3172,-1.2775,-1.384,0.0,0.0,0.0,0.0,0.0,0.0,0.0,0.0,0.0,0.0,0.0,0.0,0.0,0.0,0.0,0.0,0.0,0.0,0.0,0.0,0.0,0.0,0.0,0.0,0.0,0.0,0.0,0.0,0.0,0.0,0.0,-0.63,-0.63,-0.63,-0.63,-0.63,-0.63,-0.63,-0.63,-0.63,-0.63,-0.63,-0.63,-0.63,-0.63,-0.63,-0.5906,-0.5237,-0.4569,-0.4062,-0.3563,-0.2531,-0.2149,-0.2035,-0.0958,-0.0621,-0.0528,-0.0122,0.0,0.0,0.0,0.0,0.0,0.0,0.0,0.0,0.0,0.0,0.0,0.0,0.0,0.0,0.0,0.0,0.0,0.0,0.0,0.0,0.0,0.0,0.0229,0.0878,0.1,0.1352,0.2392,0.2527,0.293,0.3984,0.4686,0.5237,0.567,0.606,0.63,0.63,0.5906,0.5867,0.63,0.63,0.63,0.63,0.63,0.63,0.63,0.63,0.63,0.63,0.63,0.63,-1.3177,-1.2754,-1.252,0.0,0.0,0.0,0.0,0.0,0.0,0.0,0.0,0.0,0.0,0.0,0.0,0.0,0.0,0.0,0.0,0.0,0.0,0.0,0.0,0.0,0.0,0.0,0.0,0.0,0.0,0.0,0.0,0.0,0.0,0.0,0.0,-0.63,-0.63,-0.63,-0.63,-0.63,-0.63,-0.63,-0.63,-0.63,-0.63,-0.63,-0.63,-0.6103,-0.5786,-0.5786,-0.5157,-0.41,-0.3047,-0.2631,-0.2497,-0.1465,-0.1114,-0.1,-0.0256,0.0,0.0,0.0,0.0,0.0,0.0,0.0,0.0,0.0,0.0,0.0,0.0,0.0,0.0,0.0,0.0,0.0,0.0,0.0,0.0,0.0,0.0,0.0,0.0,0.0275,0.0745,0.1489,0.188,0.2464,0.3474,0.3593,0.4021,0.5079,0.5867,0.63,0.63,0.63,0.63,0.63,0.63,0.63,0.63,0.63,0.63,0.63,0.63,0.63,0.63,0.63,0.63,0.63,0.63,0.63,-1.2235,-1.2706,0.0,0.0,0.0,0.0,0.0,0.0,0.0,0.0,0.0,0.0,0.0,0.0,0.0,0.0,0.0,0.0,0.0,0.0,0.0,0.0,0.0,0.0,0.0,0.0,0.0,0.0,0.0,0.0,0.0,0.0,0.0,0.0,0.0,0.0,-0.63,-0.63,-0.63,-0.63,-0.63,-0.63,-0.63,-0.63,-0.63,-0.63,-0.63,-0.567,-0.4686,-0.4686,-0.4059,-0.2968,-0.1996,-0.1591,-0.1466,-0.0375,0.0,0.0,0.0,0.0,0.0,0.0,0.0,0.0,0.0,0.0,0.0,0.0,0.0,0.0,0.0,0.0,0.0,0.0,0.0,0.0,0.0,0.0,0.0,0.0,0.0,0.0,0.0039,0.0902,0.1607,0.1646,0.2462,0.3513,0.4569,0.4727,0.5118,0.618,0.63,0.63,0.63,0.63,0.63,0.63,0.63,0.63,0.63,0.63,0.63,0.63,0.63,0.63,0.63,0.63,0.63,0.63,0.63,0.63,-1.2667,-1.1706,0.0,0.0,0.0,0.0,0.0,0.0,0.0,0.0,0.0,0.0,0.0,0.0,0.0,0.0,0.0,0.0,0.0,0.0,0.0,0.0,0.0,0.0,0.0,0.0,0.0,0.0,0.0,0.0,0.0,0.0,0.0,0.0,0.0,0.0,-0.63,-0.63,-0.63,-0.63,-0.63,-0.63,-0.63,-0.63,-0.5906,-0.5157,-0.5157,-0.4569,-0.3515,-0.2815,-0.2348,-0.1957,-0.0902,-0.0478,-0.0448,-0.0123,0.0,0.0,0.0,0.0,0.0,0.0,0.0,0.0,0.0,0.0,0.0,0.0,0.0,0.0,0.0,0.0,0.0,0.0,0.0,0.0,0.0,0.0,0.0236,0.098,0.1137,0.1332,0.2073,0.2462,0.293,0.3673,0.4023,0.4608,0.567,0.5825,0.5944,0.6261,0.63,0.63,0.63,0.63,0.63,0.63,0.63,0.63,0.63,0.63,0.63,0.63,0.63,0.63,0.63,0.63,0.63,0.63,0.63,0.6354,-1.1369,0.0,0.0,0.0,0.0,0.0,0.0,0.0,0.0,0.0,0.0,0.0,0.0,0.0,0.0,0.0,0.0,0.0,0.0,0.0,0.0,0.0,0.0,0.0,0.0,0.0,0.0,0.0,0.0,0.0,0.0,0.0,0.0,0.0,0.0,0.0,-0.63,-0.63,-0.6103,-0.567,-0.567,-0.5431,-0.504,-0.5473,-0.5079,-0.4059,-0.3634,-0.3088,-0.2425,-0.1371,-0.098,-0.0903,-0.0238,0.0,0.0,0.0,0.0,0.0,0.0,0.0,0.0,0.0,0.0,0.0,0.0,0.0,0.0,0.0,0.0,0.0,0.0,0.0,0.0,0.0,0.0,0.0,0.0,0.0353,0.0824,0.1489,0.1919,0.2386,0.3007,0.3435,0.3943,0.4608,0.5079,0.555,0.6222,0.63,0.63,0.63,0.63,0.63,0.63,0.63,0.63,0.63,0.63,0.63,0.63,0.63,0.63,0.63,0.63,0.63,0.63,0.63,0.6327,0.6385,0.6385,0.6463,0.0,0.0,0.0,0.0,0.0,0.0,0.0,0.0,0.0,0.0,0.0,0.0,0.0,0.0,0.0,0.0,0.0,0.0,0.0,0.0,0.0,0.0,0.0,0.0,0.0,0.0,0.0,0.0,0.0,0.0,0.0,0.0,0.0,0.0,0.0,0.0,-0.6141,-0.6141,-0.5628,0.0,-0.4569,-0.3984,-0.3007,-0.4062,-0.3984,-0.289,-0.1879,-0.145,-0.1372,-0.0392,0.0,0.0,0.0,0.0,0.0,0.0,0.0,0.0,0.0,0.0,0.0,0.0,0.0,0.0,0.0,0.0,0.0,0.0,0.0,0.0,0.0,0.0079,0.0157,0.0157,0.0157,0.0157,0.0157,0.098,0.1762,0.188,0.2618,0.3279,0.3357,0.4217,0.4844,0.4844,0.567,0.63,0.63,0.63,0.63,0.63,0.63,0.63,0.63,0.63,0.63,0.63,0.63,0.6306,0.632,0.6306,0.63,0.63,0.63,0.6306,0.632,0.632,0.6392,0.6535,0.6612,0.6735,0.0,-0.9681,0.0,0.0,0.0,0.0,0.0,0.0,0.0,0.0,0.0,0.0,0.0,0.0,0.0,0.0,0.0,0.0,0.0,0.0,0.0,0.0,0.0,0.0,0.0,0.0,0.0,0.0,0.0,0.0,0.0,0.0,0.0,0.0,0.0,-0.5906,-0.504,-0.504,-0.4491,0.0,-0.3435,-0.2891,-0.1957,-0.2969,-0.2891,-0.188,-0.0784,-0.0353,-0.0314,-0.0079,0.0,0.0,0.0,0.0,0.0,0.0,0.0,0.0,0.0,0.0,0.0,0.0,0.0,0.0,0.0,0.0,0.0,0.0,0.0,0.0,0.0,0.0628,0.1254,0.1254,0.1254,0.1254,0.1254,0.2074,0.3008,0.3867,0.4217,0.4608,0.5473,0.5786,0.5944,0.5944,0.6141,0.63,0.63,0.63,0.63,0.63,0.63,0.63,0.63,0.63,0.63,0.63,0.63,0.6351,0.6463,0.6361,0.63,0.63,0.63,0.6354,0.6467,0.6467,0.6545,0.6692,0.7576,0.8077,0.0,0.0,0.0,0.0,0.0,0.0,0.0,0.0,0.0,0.0,0.0,0.0,0.0,0.0,0.0,0.0,0.0,0.0,0.0,0.0,0.0,0.0,0.0,0.0,0.0,0.0,0.0,0.0,0.0,0.0,0.0,0.0,0.0,0.0,-0.5909,-0.5348,-0.4809,-0.4211,-0.3398,-0.2386,-0.2386,-0.184,-0.0863,-0.137,-0.1331,-0.0784,-0.0235,0.0,0.0,0.0,0.0,0.0,0.0,0.0,0.0,0.0,0.0,0.0,0.0,0.0,0.0,0.0,0.0,0.0,0.0,0.0,0.0,0.0,0.0353,0.0784,0.0784,0.1528,0.2308,0.2308,0.2308,0.2308,0.2308,0.3125,0.4021,0.4608,0.5118,0.5628,0.6222,0.63,0.63,0.63,0.63,0.63,0.63,0.63,0.63,0.63,0.6361,0.6402,0.6402,0.647,0.6511,0.6511,0.6511,0.6505,0.658,0.6512,0.6511,0.6511,0.6511,0.6508,0.658,0.7138,0.7505,0.7678,0.8824,0.9429,0.0,0.0,0.0,0.0,0.0,0.0,0.0,0.0,0.0,0.0,0.0,0.0,0.0,0.0,0.0,0.0,0.0,0.0,0.0,0.0,0.0,0.0,0.0,0.0,0.0,0.0,0.0,0.0,0.0,0.0,0.0,0.0,-0.6107,-0.5904,-0.5069,-0.4499,-0.4333,-0.3346,-0.2313,-0.1333,-0.1333,-0.0863,0.0,0.0,0.0,0.0,0.0,0.0,0.0,0.0,0.0,0.0,0.0,0.0,0.0,0.0,0.0,0.0,0.0,0.0,0.0,0.0,0.0,0.0,0.0,0.0,0.0039,0.0236,0.0902,0.1645,0.1802,0.2618,0.3357,0.3357,0.3513,0.3593,0.3435,0.4217,0.496,0.496,0.5709,0.63,0.63,0.632,0.6337,0.6337,0.6337,0.6344,0.6371,0.6354,0.6344,0.6375,0.648,0.6552,0.6552,0.6627,0.6702,0.6702,0.6702,0.6712,0.6739,0.6739,0.6836,0.7066,0.7013,0.6999,0.7069,0.8205,0.8837,0.9074,1.0206,1.081,0.0,0.0,0.0,0.0,0.0,0.0,0.0,0.0,0.0,0.0,0.0,0.0,0.0,0.0,0.0,0.0,0.0,0.0,0.0,0.0,0.0,0.0,0.0,0.0,0.0,0.0,0.0,0.0,0.0,0.0,0.0,-0.4914,-0.453,-0.3599,-0.3408,-0.2924,-0.2028,-0.1869,-0.1258,-0.0196,-0.0196,-0.0157,0.0,0.0,0.0,0.0,0.0,0.0,0.0,0.0,0.0,0.0,0.0,0.0,0.0,0.0,0.0,0.0,0.0,0.0,0.0,0.0,0.0,0.0,0.0,0.0,0.0196,0.1137,0.1489,0.1802,0.2657,0.3671,0.4491,0.4491,0.5198,0.5628,0.4686,0.5315,0.6103,0.6103,0.6222,0.63,0.63,0.6402,0.6484,0.6484,0.6484,0.6532,0.6624,0.6525,0.6535,0.6627,0.6658,0.6671,0.6671,0.6688,0.6702,0.6702,0.6702,0.6759,0.6852,0.6856,0.7425,0.8597,0.8325,0.8238,0.8442,0.9563,1.0216,1.035,1.1503,1.208,0.0,0.0,0.0,0.0,0.0,0.0,0.0,0.0,0.0,0.0,0.0,0.0,0.0,0.0,0.0,0.0,0.0,0.0,0.0,0.0,0.0,0.0,0.0,0.0,0.0,0.0,0.0,0.0,0.0,0.0,-0.3872,-0.3889,-0.3682,-0.3238,-0.2664,-0.2175,-0.1703,-0.1045,-0.0477,0.0,0.0,0.0,0.0,0.0,0.0,0.0,0.0,0.0,0.0,0.0,0.0,0.0,0.0,0.0,0.0,0.0,0.0,0.0,0.0,0.0,0.0,0.0,0.0,0.0118,0.0706,0.0902,0.1097,0.2151,0.2854,0.3439,0.3867,0.4805,0.5589,0.5589,0.5944,0.618,0.5709,0.5983,0.6323,0.6402,0.6419,0.6446,0.6491,0.6559,0.66,0.66,0.66,0.6624,0.6692,0.6644,0.6627,0.6695,0.6776,0.6827,0.6827,0.6902,0.6903,0.6903,0.6903,0.7235,0.7993,0.804,0.8589,0.9836,0.9064,0.9058,0.9786,1.0926,1.149,1.1595,1.2766,1.3294,0.0,0.0,0.0,0.0,0.0,0.0,0.0,0.0,0.0,0.0,0.0,0.0,0.0,0.0,0.0,0.0,0.0,0.0,0.0,0.0,0.0,0.0,0.0,0.0,0.0,0.0,0.0,0.0,0.0,0.0,-0.277,-0.2801,-0.2745,-0.2466,-0.1741,-0.1338,-0.1354,-0.0436,0.0,0.0,0.0,0.0,0.0,0.0,0.0,0.0,0.0,0.0,0.0,0.0,0.0,0.0,0.0,0.0,0.0,0.0,0.0,0.0,0.0,0.0,0.0,0.0,0.0196,0.0549,0.1372,0.1762,0.219,0.3203,0.41,0.4766,0.504,0.5709,0.63,0.63,0.6327,0.6354,0.6354,0.6354,0.6399,0.6542,0.6569,0.6566,0.6681,0.6732,0.6759,0.6759,0.6759,0.677,0.6807,0.678,0.6773,0.6807,0.6873,0.694,0.694,0.7038,0.7095,0.7095,0.7404,0.7973,0.8846,0.9192,0.9879,1.0999,1.0183,1.0178,1.1037,1.22,1.2766,1.2766,1.3688,1.4088,0.0,0.0,0.0,0.0,0.0,0.0,0.0,0.0,0.0,0.0,0.0,0.0,0.0,0.0,0.0,0.0,0.0,0.0,0.0,0.0,0.0,0.0,0.0,0.0,0.0,0.0,0.0,0.0,0.0,0.0,-0.1715,-0.1682,-0.1213,-0.019,-0.0114,-0.0076,-0.0076,-0.0037,0.0,0.0,0.0,0.0,0.0,0.0,0.0,0.0,0.0,0.0,0.0,0.0,0.0,0.0,0.0,0.0,0.0,0.0,0.0,0.0,0.0,0.0,0.0,0.0,0.0706,0.1528,0.1568,0.2268,0.324,0.4336,0.4647,0.4924,0.5944,0.6261,0.63,0.63,0.6402,0.6501,0.6501,0.6501,0.6545,0.6658,0.6688,0.6692,0.6698,0.682,0.6873,0.6873,0.6873,0.6923,0.7055,0.6957,0.6923,0.7058,0.7082,0.7085,0.7085,0.7092,0.7095,0.7095,0.8189,0.8846,0.889,0.9923,1.1042,1.2194,1.2151,1.2151,1.22,1.3421,1.3997,1.3997,1.4088,1.4088,0.0,0.0,0.0,0.0,0.0,0.0,0.0,0.0,0.0,0.0,0.0,0.0,0.0,0.0,0.0,0.0,0.0,0.0,0.0,0.0,0.0,0.0,0.0,0.0,0.0,0.0,0.0,0.0,0.0,0.0,-0.0642,-0.0583,-0.0406,0.0,0.0,0.0,0.0,0.0,0.0,0.0,0.0,0.0,0.0,0.0,0.0,0.0,0.0,0.0,0.0,0.0,0.0,0.0,0.0,0.0,0.0,0.0,0.0,0.0,0.0,0.0432,0.102,0.102,0.1722,0.2696,0.34,0.3828,0.4334,0.5431,0.5709,0.5847,0.6291,0.6436,0.646,0.6519,0.658,0.6647,0.6746,0.6688,0.6664,0.6817,0.6848,0.6875,0.6923,0.6984,0.7021,0.7021,0.7021,0.7038,0.7088,0.7051,0.7041,0.7092,0.7095,0.7095,0.7095,0.7095,0.7095,0.7095,0.7489,0.8404,0.9923,1.0394,1.1515,1.3421,1.347,1.347,1.347,1.3913,1.4088,1.4088,1.4088,1.4088,0.0,0.0,0.0,0.0,0.0,0.0,0.0,0.0,0.0,0.0,0.0,0.0,0.0,0.0,0.0,0.0,0.0,0.0,0.0,0.0,0.0,0.0,0.0,0.0,0.0,0.0,0.0,0.0,0.0,0.0,-0.0035,0.0,0.0,0.0,0.0,0.0,0.0,0.0,0.0,0.0,0.0,0.0,0.0,0.0,0.0,0.0,0.0,0.0,0.0,0.0,0.0,0.0,0.0,0.0,0.0,0.0,0.0236,0.0549,0.0549,0.1215,0.2113,0.2113,0.2815,0.3787,0.4491,0.496,0.5392,0.6103,0.6334,0.6395,0.6487,0.6552,0.6586,0.6742,0.6776,0.6817,0.6923,0.6881,0.682,0.6927,0.6957,0.6987,0.7082,0.7095,0.7095,0.7095,0.7095,0.7095,0.7095,0.7095,0.7095,0.7095,0.7095,0.7095,0.7095,0.7095,0.7095,0.7095,0.7837,0.8965,1.0524,1.1348,1.2516,1.4088,1.4088,1.4088,1.4088,1.4088,1.4088,1.4088,1.4088,1.4088,0.0,0.0,0.0,0.0,0.0,0.0,0.0,0.0,0.0,0.0,0.0,0.0,0.0,0.0,0.0,0.0,0.0,0.0,0.0,0.0,0.0,0.0,0.0,0.0,0.0,0.0,0.0,0.0,0.0,0.0,0.0,0.0,0.0,0.0,0.0,0.0,0.0,0.0,0.0,0.0,0.0,0.0,0.0,0.0,0.0,0.0,0.0,0.0,0.0,0.0,0.0,0.0,0.0,0.0,0.0039,0.0039,0.0706,0.1645,0.1645,0.2308,0.3163,0.3163,0.3865,0.4766,0.4766,0.5476,0.6306,0.6306,0.6409,0.6518,0.6525,0.66,0.6753,0.6856,0.6893,0.693,0.7065,0.6991,0.6933,0.7068,0.7095,0.7095,0.7095,0.7095,0.7095,0.7095,0.7095,0.7095,0.7095,0.7095,0.7095,0.7095,0.7095,0.7095,0.7095,0.7139,0.7139,0.7139,0.9309,1.0611,1.0654,1.282,1.4046,1.4088,1.4088,1.4088,1.4088,1.4088,1.4088,1.4088,1.4088,1.4088,-0.374,0.0,0.0,0.0,0.0,0.0,0.0,0.0,0.0,0.0,0.0,0.0,0.0,0.0,0.0,0.0,0.0,0.0,0.0,0.0,0.0,0.0,0.0,0.0,0.0,0.0,0.0,0.0,0.0,0.0,0.0,0.0,0.0,0.0,0.0,0.0,0.0,0.0,0.0,0.0,0.0,0.0,0.0,0.0,0.0,0.0,0.0,0.0,0.0,0.0,0.0,0.0,0.0,0.0471,0.1176,0.1176,0.1801,0.2696,0.2696,0.3359,0.4256,0.4256,0.4999,0.5867,0.5867,0.6133,0.6453,0.6453,0.6522,0.6664,0.6773,0.6909,0.6987,0.7028,0.7038,0.7048,0.7088,0.7065,0.7048,0.7088,0.7095,0.7095,0.7095,0.7095,0.7095,0.7095,0.7095,0.7095,0.7095,0.7095,0.7095,0.7095,0.7095,0.7095,0.7095,0.7885,0.8408,0.8408,0.9792,1.095,1.1809,1.2462,1.3203,1.4088,1.4088,1.4088,1.4088,1.4088,1.4088,1.4088,1.4088,1.4202,0.0,0.0,0.0,0.0,0.0,0.0,0.0,0.0,0.0,0.0,0.0,0.0,0.0,0.0,0.0,0.0,0.0,0.0,0.0,0.0,0.0,0.0,0.0,0.0,0.0,0.0,0.0,0.0,0.0,0.0,0.0,0.0,0.0,0.0,0.0,0.0,0.0,0.0,0.0,0.0,0.0,0.0,0.0,0.0,0.0,0.0,0.0,0.0,0.0038,0.0468,0.0392,0.0039,0.051,0.1058,0.1646,0.2074,0.2891,0.3787,0.3787,0.4453,0.5354,0.5354,0.5786,0.63,0.63,0.6399,0.6511,0.6511,0.6627,0.6831,0.6933,0.7034,0.7095,0.7095,0.7095,0.7095,0.7095,0.7095,0.7095,0.7095,0.7095,0.7095,0.7095,0.7095,0.7095,0.7095,0.7095,0.7095,0.7095,0.7095,0.7095,0.7095,0.7095,0.7316,0.7797,0.8496,0.9104,0.9579,1.0697,1.1595,1.2285,1.2869,1.355,1.4269,1.4389,1.4499,1.4499,1.4329,1.4269,1.4269,1.4269,1.4355,0.0,0.0,0.0,0.0,0.0,0.0,0.0,0.0,0.0,0.0,0.0,0.0,0.0,0.0,0.0,0.0,0.0,0.0,0.0,0.0,0.0,0.0,0.0,0.0,0.0,0.0,0.0,0.0,0.0,0.0,0.0,0.0,0.0,0.0,0.0,0.0,0.0,0.0,0.0,0.0,0.0,0.0,0.0,0.0,0.0,0.0,0.0114,0.0153,0.0275,0.1329,0.1134,0.0275,0.1333,0.1841,0.2036,0.293,0.3943,0.4882,0.4882,0.5512,0.63,0.63,0.63,0.63,0.63,0.6412,0.6545,0.6576,0.6742,0.694,0.7061,0.7095,0.7095,0.7095,0.7095,0.7095,0.7095,0.7095,0.7095,0.7095,0.7095,0.7095,0.7095,0.7095,0.7095,0.7095,0.7095,0.7095,0.7095,0.7095,0.7139,0.7272,0.7316,0.7797,0.8978,0.9192,0.971,1.074,1.188,1.2546,1.2546,1.3827,1.4569,1.4569,1.483,1.5022,1.5055,1.4716,1.4569,1.4569,1.4569,1.4583,-0.0549,-0.0157,0.0,0.0,0.0,0.0,0.0,0.0,0.0,0.0,0.0,0.0,0.0,0.0,0.0,0.0,0.0,0.0,0.0,0.0,0.0,0.0,0.0,0.0,0.0,0.0,0.0,0.0,0.0,0.0,0.0,0.0,0.0,0.0,0.0,0.0,0.0,0.0,0.0,0.0,0.0,0.0,0.0,0.0,0.0,0.0039,0.0725,0.115,0.1369,0.2261,0.2116,0.1372,0.2425,0.332,0.4103,0.4297,0.5079,0.5983,0.5983,0.6141,0.63,0.63,0.63,0.63,0.63,0.6484,0.6705,0.6943,0.7007,0.7061,0.7088,0.7095,0.7095,0.7095,0.7095,0.7095,0.7095,0.7095,0.7095,0.7095,0.7095,0.7095,0.7095,0.7095,0.7095,0.7095,0.7095,0.7095,0.7095,0.7095,0.7492,0.8452,0.854,0.9017,1.0178,1.1123,1.1724,1.1938,1.3281,1.4069,1.4069,1.4628,1.4877,1.4877,1.4981,1.5122,1.5311,1.5017,1.4877,1.4877,1.4877,1.5003,-0.0157,0.0,0.0,0.0,0.0,0.0,0.0,0.0,0.0,0.0,0.0,0.0,0.0,0.0,0.0,0.0,0.0,0.0,0.0,0.0,0.0,0.0,0.0,0.0,0.0,0.0,0.0,0.0,0.0,0.0,0.0,0.0,0.0,0.0,0.0,0.0,0.0,0.0,0.0,0.0,0.0,0.0,0.0,0.0,0.0231,0.0654,0.1124,0.1654,0.2343,0.3296,0.3478,0.3205,0.3711,0.4217,0.4766,0.5315,0.5828,0.63,0.63,0.63,0.63,0.63,0.63,0.6313,0.6385,0.6576,0.6861,0.7034,0.7095,0.7095,0.7095,0.7095,0.7095,0.7095,0.7095,0.7095,0.7095,0.7095,0.7095,0.7095,0.7095,0.7095,0.7095,0.7095,0.7095,0.7095,0.7095,0.7316,0.7929,0.8017,0.8448,0.9618,0.9749,1.0221,1.1338,1.1986,1.2547,1.316,1.3998,1.4522,1.4522,1.4943,1.5251,1.5391,1.5398,1.5471,1.5611,1.5464,1.5317,1.5177,1.5177,1.5257,0.0,0.0,0.0,0.0,0.0,0.0,0.0,0.0,0.0,0.0,0.0,0.0,0.0,0.0,0.0,0.0,0.0,0.0,0.0,0.0,0.0,0.0,0.0,0.0,0.0,0.0,0.0,0.0,0.0,0.0,0.0,0.0,0.0,0.0,0.0,0.0,0.0,0.0,0.0,0.0,0.0,0.0,0.0,0.0189,0.0644,0.1367,0.1731,0.2401,0.334,0.4375,0.489,0.5002,0.5002,0.5002,0.5118,0.5983,0.63,0.63,0.63,0.63,0.63,0.63,0.6317,0.6371,0.6549,0.6732,0.6916,0.7055,0.7095,0.7095,0.7095,0.7095,0.7095,0.7095,0.7095,0.7095,0.7095,0.7095,0.7095,0.7095,0.7095,0.7095,0.7095,0.7095,0.7095,0.7095,0.7316,0.7797,0.8759,0.9104,0.9666,1.0826,1.0907,1.1381,1.2547,1.2632,1.3094,1.4119,1.4442,1.4629,1.4689,1.5197,1.5591,1.5778,1.5784,1.5784,1.5784,1.5784,1.5712,1.5478,1.5478,1.5478,0.0,0.0,0.0,0.0,0.0,0.0,0.0,0.0,0.0,0.0,0.0,0.0,0.0,0.0,0.0,0.0,0.0,0.0,0.0,0.0,0.0,0.0,0.0,0.0,0.0,0.0,0.0,0.0,0.0,0.0,0.0,0.0,0.0,0.0,0.0,0.0,0.0,0.0,0.0,0.0,0.0,0.0,0.0038,0.0794,0.13,0.1634,0.3189,0.4101,0.4583,0.5472,0.5929,0.6103,0.6103,0.6103,0.6141,0.6261,0.63,0.63,0.63,0.63,0.63,0.63,0.6385,0.6542,0.679,0.6859,0.6916,0.7055,0.7095,0.7095,0.7095,0.7095,0.7095,0.7095,0.7095,0.7095,0.7095,0.7095,0.7095,0.7095,0.7095,0.7095,0.7095,0.7095,0.7095,0.7095,0.8017,0.8759,0.889,0.9792,1.0826,1.198,1.2114,1.2595,1.3779,1.3913,1.4067,1.4412,1.475,1.503,1.5284,1.5611,1.5751,1.5784,1.5784,1.5784,1.5784,1.5784,1.5764,1.5731,1.5731,1.5731,0.0,0.0,0.0,0.0,0.0,0.0,0.0,0.0,0.0,0.0,0.0,0.0,0.0,0.0,0.0,0.0,0.0,0.0,0.0,0.0,0.0,0.0,0.0,0.0,0.0,0.0,0.0,0.0,0.0,0.0,0.0,0.0,0.0,0.0,0.0,0.0,0.0,0.0,0.0,0.0,0.0625,0.0852,0.0794,0.185,0.2634,0.3145,0.399,0.4775,0.5468,0.5867,0.6122,0.63,0.63,0.63,0.63,0.63,0.63,0.63,0.63,0.63,0.6313,0.6395,0.6542,0.6763,0.6849,0.6943,0.7021,0.7078,0.7095,0.7095,0.7095,0.7095,0.7095,0.7095,0.7095,0.7095,0.7095,0.7095,0.7095,0.7095,0.7095,0.7095,0.7095,0.7095,0.736,0.8061,0.8584,0.9366,1.0697,1.1295,1.2035,1.3209,1.3482,1.3799,1.4292,1.4496,1.4649,1.477,1.505,1.5344,1.5631,1.5718,1.5784,1.5784,1.5784,1.5784,1.5784,1.5784,1.5784,1.5784,1.5784,1.5784,0.0,0.0,0.0,0.0,0.0,0.0,0.0,0.0,0.0,0.0,0.0,0.0,0.0,0.0,0.0,0.0,0.0,0.0,0.0,0.0,0.0,0.0,0.0,0.0,0.0,0.0,0.0,0.0,0.0,0.0,0.0,0.0,0.0,0.0,0.0,0.0,0.0,0.0,0.0157,0.0432,0.1215,0.1669,0.1829,0.2949,0.3784,0.437,0.4739,0.5353,0.6095,0.6095,0.6159,0.63,0.63,0.63,0.63,0.63,0.63,0.6306,0.6344,0.6385,0.6446,0.6552,0.6749,0.6893,0.693,0.7014,0.7095,0.7095,0.7095,0.7095,0.7095,0.7095,0.7095,0.7095,0.7095,0.7095,0.7095,0.7095,0.7095,0.7095,0.736,0.7577,0.7577,0.7577,0.7885,0.8759,0.9449,1.0458,1.2207,1.2697,1.3255,1.423,1.4516,1.4643,1.4643,1.4836,1.5042,1.5122,1.5351,1.5611,1.5771,1.5784,1.5784,1.5784,1.5784,1.5784,1.5784,1.5784,1.5784,1.5784,1.5784,1.5784,0.0,0.0,0.0,0.0,0.0,0.0,0.0,0.0,0.0,0.0,0.0,0.0,0.0,0.0,0.0,0.0,0.0,0.0,0.0,0.0,0.0,0.0,0.0,0.0,0.0,0.0,0.0,0.0,0.0,0.0,0.0,0.0,0.0,0.0,0.0,0.0,0.0,0.0,0.051,0.1568,0.1568,0.2112,0.3078,0.4033,0.4536,0.4748,0.5588,0.607,0.6293,0.6293,0.6293,0.63,0.63,0.63,0.63,0.63,0.63,0.632,0.6457,0.6563,0.6712,0.6865,0.6876,0.6913,0.7048,0.7092,0.7095,0.7095,0.7095,0.7095,0.7095,0.7095,0.7095,0.7095,0.7095,0.7095,0.7095,0.7095,0.7095,0.7095,0.8061,0.8846,0.8846,0.8846,0.8846,0.889,1.0783,1.233,1.2712,1.3736,1.4572,1.4948,1.4988,1.4995,1.4995,1.5001,1.5129,1.5364,1.5658,1.5771,1.5784,1.5784,1.5784,1.5784,1.5784,1.5784,1.5784,1.5784,1.5784,1.5784,1.5784,1.5784,0.0,0.0,0.0,0.0,0.0,0.0,0.0,0.0,0.0,0.0,0.0,0.0,0.0,0.0,0.0,0.0,0.0,0.0,0.0,0.0,0.0,0.0,0.0,0.0,0.0,0.0,0.0,0.0,0.0,0.0,0.0,0.0,0.0,0.0,0.0,0.0,0.0,0.078,0.1343,0.1605,0.3084,0.3855,0.4078,0.5193,0.5651,0.5572,0.6007,0.6252,0.63,0.63,0.63,0.63,0.63,0.6358,0.6429,0.6334,0.6361,0.6463,0.6573,0.6722,0.6861,0.6869,0.695,0.7034,0.7082,0.7095,0.7095,0.7095,0.7095,0.7095,0.7095,0.7095,0.7095,0.7095,0.7095,0.7095,0.7095,0.7095,0.7388,0.8378,0.8893,0.9464,1.044,1.1235,1.1681,1.1514,1.2292,1.3248,1.4155,1.4581,1.485,1.4995,1.5182,1.5251,1.5251,1.5424,1.5578,1.5678,1.5724,1.5784,1.5784,1.5784,1.5784,1.5784,1.5784,1.5784,1.5784,1.5784,1.5784,1.5784,1.5784,1.5784,0.0,0.0,0.0,0.0,0.0,0.0,0.0,0.0,0.0,0.0,0.0,0.0,0.0,0.0,0.0,0.0,0.0,0.0,0.0,0.0,0.0,0.0,0.0,0.0,0.0,0.0,0.0,0.0,0.0,0.0,0.0,0.0,0.0,0.0,0.0,0.021,0.0631,0.1426,0.2114,0.2796,0.4212,0.4999,0.5153,0.5941,0.6245,0.6118,0.6255,0.63,0.63,0.63,0.63,0.63,0.63,0.6385,0.6501,0.6409,0.6504,0.6647,0.6749,0.6878,0.696,0.696,0.7021,0.7095,0.7095,0.7095,0.7095,0.7095,0.7095,0.7095,0.7095,0.7095,0.7095,0.7095,0.7095,0.7109,0.721,0.7221,0.762,0.9088,0.9713,1.0476,1.1847,1.3145,1.3765,1.3037,1.3464,1.4172,1.5013,1.5117,1.5157,1.5257,1.5438,1.5551,1.5551,1.5718,1.5784,1.5784,1.5784,1.5784,1.5784,1.5784,1.5784,1.5784,1.5784,1.5784,1.5784,1.5784,1.5784,1.5784,1.5784,1.5784]},{"header":{"parameterUnit":"m.s-1","parameterCategory":1,"la1":30.6,"la2":29.2853,"lo1":-89.7004,"lo2":-87.6739,"dy":0.0162,"dx":0.0183,"nx":112,"ny":82,"refTime":"2026-03-13T12:00:00:Z","depth":0,"parameterNumber":3,"parameterNumberName":"V-component_of_WINDS"},"data":[0.0,0.0,0.0,0.0,0.0,0.0,0.0,0.0,0.0,0.0,0.0,0.0,0.0,0.0,0.0,0.0,0.0,0.0,0.0,0.0,0.0,0.0,0.0,0.0,0.0,0.0,0.0,0.0,0.0,0.0,0.0,0.0,0.0,0.0,0.0,0.0,0.0,0.0,0.0,0.0,0.0,0.0,0.0,0.0,0.0,0.0,0.0,0.0,0.0,0.0,0.0,0.0,0.0,0.0,0.0,0.0,0.0,0.0,0.0,0.0,0.0,0.0,0.0,0.0,0.0,0.0,0.0,0.0,0.0,0.0,0.0,0.0,0.0,0.0,0.0,0.0,0.0,0.0,0.0,0.0,0.0,0.0,0.0,0.0,0.0,0.0,0.0,0.0,0.0,0.0,0.0,0.6493,0.5749,0.5395,0.5395,0.5375,0.459,0.2807,0.0,0.0,0.0,0.0,0.0,0.0,0.0,0.0,0.0,0.0,0.0,0.0,0.0,0.0,0.0,0.0,0.0,0.0,0.0,0.0,0.0,0.0,0.0,0.0,0.0,0.0,0.0,0.0,0.0,0.0,0.0,0.0,0.0,0.0,0.0,0.0,0.0,0.0,0.0,0.0,0.0,0.0,0.0,0.0,0.0,0.0,0.0,0.0,0.0,0.0,0.0,0.0,0.0,0.0,0.0,0.0,0.0,0.0,0.0,0.0,0.0,0.0,0.0,0.0,0.0,0.0,0.0,0.0,0.0,0.0,0.0,0.0,0.0,0.0,0.0,0.0,0.0,0.0,0.0,0.0,0.0,0.0,0.0,0.0,0.0,0.0,0.0,0.0,0.0,0.0,0.0,0.0,0.0,0.0,0.0,0.0,0.0,0.0,0.0,0.0,0.0,0.0,0.0,0.0,0.9052,0.782,0.6306,0.5395,0.5395,0.524,0.4457,0.2803,0.0,0.0,0.0,0.0,0.0,0.0,0.0,0.0,0.0,0.0,0.0,0.0,0.0,0.0,0.0,0.0,0.0,0.0,0.0,0.0,0.0,0.0,0.0,0.0,0.0,0.0,0.0,0.0,0.0,0.0,0.0,0.0,0.0,0.0,0.0,0.0,0.0,0.0,0.0,0.0,0.0,0.0,0.0,0.0,0.0,0.0,0.0,0.0,0.0,0.0,0.0,0.0,0.0,0.0,0.0,0.0,0.0,0.0,0.0,0.0,0.0,0.0,0.0,0.0,0.0,0.0,0.0,0.0,0.0,0.0,0.0,0.0,0.0,0.0,0.0,0.0,0.0,0.0,0.0,0.0,0.0,0.0,0.0,0.0,0.0,0.0,0.0,0.0,0.0,0.0,0.0,0.0,0.0,0.0,0.0,0.0,0.0,0.0,0.0,0.0,0.0,0.0,0.0,0.8681,0.8229,0.8013,0.6437,0.5395,0.5395,0.5327,0.4513,0.2805,0.2142,0.0,0.0,0.0,0.0,0.0,0.0,0.0,0.0,0.0,0.0,0.0,0.0,0.0,0.0,0.0,0.0,0.0,0.0,0.0,0.0,0.0,0.0,0.0,0.0,0.0,0.0,0.0,0.0,0.0,0.0,0.0,0.0,0.0,0.0,0.0,0.0,0.0,0.0,0.0,0.0,0.0,0.0,0.0,0.0,0.0,0.0,0.0,0.0,0.0,0.0,0.0,0.0,0.0,0.0,0.0,0.0,0.0,0.0,0.0,0.0,0.0,0.0,0.0,0.0,0.0,0.0,0.0,0.0,0.0,0.0,0.0,0.0,0.0,0.0,0.0,0.0,0.0,0.0,0.0,0.0,0.0,0.0,0.0,0.0,0.0,0.0,0.0,0.0,0.0,0.0,0.0,0.0,0.0,0.0,0.0,0.0,0.0,0.0,0.0,0.0,0.0,0.0,0.8687,0.7797,0.7981,0.6592,0.5567,0.5341,0.531,0.453,0.2776,0.2207,0.0,0.0,0.0,0.0,0.0,0.0,0.0,0.0,0.0,0.0,0.0,0.0,0.0,0.0,0.0,0.0,0.0,0.0,0.0,0.0,0.0,0.0,0.0,0.0,0.0,0.0,0.0,0.0,0.0,0.0,0.0,0.0,0.0,0.0,0.0,0.0,0.0,0.0,0.0,0.0,0.0,0.0,0.0,0.0,0.0,0.0,0.0,0.0,0.0,0.0,0.0,0.0,0.0,0.0,0.0,0.0,0.0,0.0,0.0,0.0,0.0,0.0,0.0,0.0,0.0,0.0,0.0,0.0,0.0,0.0,0.0,0.0,0.0,0.0,0.0,0.0,0.0,0.0,0.0,0.0,0.0,0.0,0.0,0.0,0.0,0.0,0.0,0.0,0.0,0.0,0.0,0.0,0.0,0.0,0.0,0.0,0.0,0.0,0.0,0.0,0.0,0.0,0.9656,0.9193,0.8125,0.6985,0.5998,0.5177,0.4995,0.4239,0.2624,0.2482,0.0,0.0,0.0,0.0,0.0,0.0,0.0,0.0,0.0,0.0,0.0,0.0,0.0,0.0,0.0,0.0,0.0,0.0,0.0,0.0,0.0,0.0,0.0,0.0,0.0,0.0,0.0,0.0,0.0,0.0,0.0,0.0,0.0,0.0,0.0,0.0,0.0,0.0,0.0,0.0,0.0,0.0,0.0,0.0,0.0,0.0,0.0,0.0,0.0,0.0,0.0,0.0,0.0,0.0,0.0,0.0,0.0,0.0,0.0,0.0,0.0,0.0,0.0,0.0,0.0,0.0,0.0,0.0,0.0,0.0,0.0,0.0,0.0,0.0,0.0,0.0,0.0,0.0,0.0,0.0,0.0,0.0,0.0,0.0,0.0,0.0,0.0,0.0,0.0,0.0,0.0,0.0,0.0,0.0,0.0,0.0,0.0,0.0,0.0,0.0,0.0,0.0,0.9324,0.9047,0.0,0.6984,0.6031,0.5697,0.5189,0.4216,0.2614,0.0,0.0,0.0,0.0,0.0,0.0,0.0,0.0,0.0,0.0,0.0,0.0,0.0,0.0,0.0,0.0,0.0,0.0,0.0,0.0,0.0,0.0,0.0,0.0,0.0,0.0,0.0,0.0,0.0,0.0,0.0,0.0,0.0,0.0,0.0,0.0,0.0,0.0,0.0,0.0,0.0,0.0,0.0,0.0,0.0,0.0,0.0,0.0,0.0,0.0,0.0,0.0,0.0,0.0,0.0,0.0,0.0,0.0,0.0,0.0,0.0,0.0,0.0,0.0,0.0,0.0,0.0,0.0,0.0,0.0,0.0,0.0,0.0,0.0,0.0,0.0,0.0,0.0,0.0,0.0,0.0,0.0,0.0,0.0,0.0,0.0,0.0,0.0,0.0,0.0,0.0,0.0,0.0,0.0,0.0,0.0,0.0,0.0,0.0,0.0,0.0,0.0,0.9323,0.9508,0.9342,0.0,0.731,0.6553,0.6169,0.5705,0.4665,0.2871,0.0,0.0,0.0,0.0,0.0,0.0,0.0,0.0,0.0,0.0,0.0,0.0,0.0,0.0,0.0,0.0,0.0,0.0,0.0,0.0,0.0,0.0,0.0,0.0,0.0,0.0,0.0,0.0,0.0,0.0,0.0,0.0,0.0,0.0,0.0,0.0,0.0,0.0,0.0,0.0,0.0,0.0,0.0,0.0,0.0,0.0,0.0,0.0,0.0,0.0,0.0,0.0,0.0,0.0,0.0,0.0,0.0,0.0,0.0,0.0,0.0,0.0,0.0,0.0,0.0,0.0,0.0,0.0,0.0,0.0,0.0,0.0,0.0,0.0,0.0,0.0,0.0,0.0,0.0,0.0,0.0,0.0,0.0,0.0,0.0,0.0,0.0,0.0,0.0,0.0,0.0,0.0,0.0,0.0,0.0,0.0,0.0,0.0,0.0,0.0,0.0,0.0,0.948,1.0427,1.0424,0.8187,0.8099,0.7716,0.6539,0.6529,0.5672,0.0,0.0,0.0,0.0,0.0,0.0,0.0,0.0,0.0,0.0,0.0,0.0,0.0,0.0,0.0,0.0,0.0,0.0,0.0,0.0,0.0,0.0,0.0,0.0,0.0,0.0,0.0,0.0,0.0,0.0,0.0,0.0,0.0,0.0,0.0,0.0,0.0,0.0,0.0,0.0,0.0,0.0,0.0,0.0,0.0,0.0,0.0,0.0,0.0,0.0,0.0,0.0,0.0,0.0,0.0,0.0,0.0,0.0,0.0,0.0,0.0,0.0,0.0,0.0,0.0,0.0,0.0,0.0,0.0,0.0,0.0,0.0,0.0,0.0,0.0,0.0,0.0,0.0,0.0,0.0,0.0,0.0,0.0,0.0,0.0,0.0,0.0,0.0,0.0,0.0,0.0,0.0,0.0,0.0,0.0,0.0,0.0,0.0,0.0,0.0,0.0,0.0,0.0,1.0433,1.1098,1.1217,1.0075,0.911,0.8413,0.8053,0.7138,0.5837,0.404,0.0,0.0,0.0,0.0,0.0,0.0,0.0,0.0,0.0,0.0,0.0,0.0,0.0,0.0,0.0,0.0,0.0,0.0,0.0,0.0,0.0,0.0,0.0,0.0,0.0,0.0,0.0,0.0,0.0,0.0,0.0,0.0,0.0,0.0,0.0,0.0,0.0,0.0,0.0,0.0,0.0,0.0,0.0,0.0,0.0,0.0,0.0,0.0,0.0,0.0,0.0,0.0,0.0,0.0,0.0,0.0,0.0,0.0,0.0,0.0,0.0,0.0,0.0,0.0,0.0,0.0,0.0,0.0,0.0,0.0,0.0,0.0,0.0,0.0,0.0,0.0,0.0,0.0,0.0,0.0,0.0,0.0,0.0,0.0,0.0,0.0,0.0,0.0,0.0,0.0,0.0,0.0,0.0,0.0,0.0,0.0,0.0,0.0,0.0,0.0,0.0,0.0,1.0856,1.1391,1.1504,1.0714,0.9982,0.939,0.902,0.8293,0.7059,0.5124,0.0,0.0,0.0,0.0,0.0,0.0,0.0,0.0,0.0,0.0,0.0,0.0,0.0,0.0,0.0,0.0,0.0,0.0,0.0,0.0,0.0,0.0,0.0,0.0,0.0,0.0,0.0,0.0,0.0,0.0,0.0,0.0,0.0,0.0,0.0,0.0,0.0,0.0,0.0,0.0,0.0,0.0,0.0,0.0,0.0,0.0,0.0,0.0,0.0,0.0,0.0,0.0,0.0,0.0,0.0,0.0,0.0,0.0,0.0,0.0,0.0,0.0,0.0,0.0,0.0,0.0,0.0,0.0,0.0,0.0,0.0,0.0,0.0,0.0,0.0,0.0,0.0,0.0,0.0,0.0,0.0,0.0,0.0,0.0,0.0,0.0,0.0,0.0,0.0,0.0,0.0,0.0,0.0,0.0,0.0,0.0,0.0,0.0,0.0,0.0,0.0,0.0,1.1056,1.1566,1.163,1.073,1.0797,1.0564,0.9691,0.9794,0.891,0.6646,0.0,0.0,0.0,0.0,0.0,0.0,0.0,0.0,0.0,0.0,0.0,0.0,0.0,0.0,0.0,0.0,0.0,0.0,0.0,0.0,0.0,0.0,0.0,0.0,0.0,0.0,0.0,0.0,0.0,0.0,0.0,0.0,0.0,0.0,0.0,0.0,0.0,0.0,0.0,0.0,0.0,0.0,0.0,0.0,0.0,0.0,0.0,0.0,0.0,0.0,0.0,0.0,0.0,0.0,0.0,0.0,0.0,0.0,0.0,0.0,1.5974,0.0,0.0,0.0,0.0,0.0,0.0,0.0,0.0,0.0,0.0,0.0,0.0,0.0,0.0,0.0,0.0,0.0,0.0,0.0,0.0,0.0,0.0,0.0,0.0,0.0,0.0,0.0,0.0,0.0,0.0,0.0,0.0,0.0,0.0,0.0,0.0,0.0,0.0,0.0,0.0,0.0,1.2492,1.2991,1.312,1.2435,1.1911,1.1506,1.1303,1.0847,1.0083,0.8866,0.0,0.0,0.0,0.0,0.0,0.0,0.0,0.0,0.0,0.0,0.0,0.0,0.0,0.0,0.0,0.0,0.0,0.0,0.0,0.0,0.0,0.0,0.0,0.0,0.0,0.0,0.0,0.0,0.0,0.0,0.0,0.0,0.0,0.0,0.0,0.0,0.0,0.0,0.0,0.0,0.0,0.0,0.0,0.0,0.0,0.0,0.0,0.0,0.0,0.0,0.0,0.0,0.0,0.0,0.0,0.0,0.0,0.0,0.0,0.0,0.0,1.7508,0.0,0.0,0.0,0.0,0.0,0.0,0.0,0.0,0.0,0.0,0.0,0.0,0.0,0.0,0.0,0.0,0.0,0.0,0.0,0.0,0.0,0.0,0.0,0.0,0.0,0.0,0.0,0.0,0.0,0.0,0.0,0.0,0.0,0.0,0.0,0.0,0.0,0.0,0.0,0.0,1.3358,1.3849,1.4014,1.3396,1.2982,1.2492,1.1864,1.1491,1.0896,1.0003,0.9454,0.0,0.0,0.0,0.0,0.0,0.0,0.0,0.0,0.0,0.0,0.0,0.0,0.0,0.0,0.0,0.0,0.0,0.0,0.0,0.0,0.0,0.0,0.0,0.0,0.0,0.0,0.0,0.0,0.0,0.0,0.0,0.0,0.0,0.0,0.0,0.0,0.0,0.0,0.0,0.0,0.0,0.0,0.0,0.0,0.0,0.0,0.0,0.0,0.0,0.0,0.0,0.0,0.0,2.1361,2.1984,2.2007,2.2454,2.3055,2.3562,2.0926,2.0206,2.0918,0.0,0.0,0.0,0.0,0.0,0.0,0.0,0.0,0.0,0.0,0.0,0.0,0.0,0.0,0.0,0.0,0.0,0.0,0.0,0.0,0.0,0.0,0.0,0.0,0.0,2.1391,2.1489,0.0,0.0,0.0,0.0,0.0,0.0,0.0,0.0,0.0,0.0,0.0,0.0,1.3996,1.4491,1.4629,1.4027,1.3956,1.3521,1.2395,1.2322,1.1977,1.1193,1.061,0.9991,0.0,0.0,0.0,0.0,0.0,0.0,0.0,0.0,0.0,0.0,0.0,0.0,0.0,0.0,0.0,0.0,0.0,0.0,0.0,0.0,0.0,0.0,0.0,0.0,0.0,0.0,0.0,0.0,0.0,0.0,0.0,0.0,2.0648,2.1074,0.0,0.0,0.0,0.0,0.0,0.0,0.0,0.0,0.0,0.0,0.0,0.0,0.0,0.0,2.1607,2.2487,2.2932,2.2944,2.3908,2.434,2.434,2.4446,2.4504,2.4601,2.4191,0.0,2.2415,2.2286,0.0,0.0,0.0,0.0,0.0,0.0,0.0,0.0,0.0,0.0,0.0,0.0,0.0,0.0,0.0,0.0,0.0,0.0,0.0,0.0,0.0,0.0,2.3214,2.3162,2.2855,2.2509,0.0,2.0409,1.8542,1.7377,0.0,0.0,0.0,0.0,0.0,0.0,0.0,0.0,1.4641,1.5096,1.5253,1.4652,1.4583,1.4514,1.4342,1.4318,1.4262,1.4128,1.3726,1.3225,1.2593,1.2298,0.0,0.0,0.0,0.0,0.0,0.0,0.0,0.0,0.0,0.0,0.0,0.0,0.0,0.0,0.0,0.0,0.0,0.0,0.0,0.0,0.0,0.0,0.0,0.0,0.0,0.0,0.0,0.0,0.0,2.0845,2.1276,2.1638,2.1195,2.0719,0.0,0.0,0.0,0.0,0.0,0.0,0.0,0.0,0.0,2.2183,2.2238,2.2692,2.3634,2.4034,2.423,2.4243,2.4912,2.5259,2.5272,2.5598,2.5749,2.5749,2.5749,2.5037,2.3818,2.3019,2.2017,2.0846,0.0,0.0,0.0,0.0,0.0,2.1601,2.2564,0.0,0.0,0.0,0.0,0.0,0.0,0.0,0.0,0.0,0.0,0.0,0.0,0.0,0.0,2.397,2.384,2.3662,2.3662,2.2448,2.0848,0.0,1.8641,1.7966,1.6468,0.0,0.0,0.0,0.0,0.0,1.5772,1.6176,1.621,1.5298,1.5208,1.5073,1.4721,1.4698,1.4698,1.4698,1.453,1.4205,1.374,1.3541,1.2987,0.0,0.0,0.0,0.0,0.0,0.0,0.0,0.0,0.0,0.0,0.0,0.0,0.0,0.0,0.0,0.0,0.0,0.0,0.0,0.0,0.0,0.0,0.0,0.0,0.0,0.0,0.0,0.0,2.2198,2.2374,2.2614,2.2365,2.1931,0.0,0.0,0.0,0.0,0.0,0.0,2.1447,2.1155,2.1796,2.3539,2.3595,2.4103,2.5234,2.5247,2.5333,2.5548,2.5942,2.6253,2.6484,2.6922,2.7129,2.7129,2.7129,2.6574,2.5556,2.4121,2.2911,2.1918,2.1308,2.1564,2.2277,2.231,2.3,2.4044,2.4703,2.4936,2.4776,2.3873,0.0,2.326,2.1849,0.0,0.0,0.0,0.0,2.3886,2.4335,0.0,2.4055,2.4496,2.4597,2.4597,2.4597,2.3799,2.2589,0.0,2.024,1.9517,1.7975,0.0,0.0,0.0,0.0,1.778,1.6949,1.7224,1.7133,1.6145,1.6037,1.5808,1.5197,1.5152,1.5152,1.5152,1.5152,1.5035,1.473,1.4718,1.4431,1.3827,0.0,0.0,0.0,0.0,0.0,0.0,0.0,0.0,0.0,0.0,0.0,0.0,0.0,0.0,0.0,0.0,0.0,0.0,0.0,0.0,0.0,0.0,0.0,0.0,0.0,0.0,0.0,0.0,0.0,2.4636,2.4353,0.0,0.0,0.0,0.0,2.2116,2.2105,2.2467,2.333,2.3328,2.3978,2.5419,2.5477,2.5753,2.6411,2.6411,2.6794,2.7558,2.7584,2.8044,2.8834,2.8862,2.8876,2.8876,2.8876,2.8549,2.7916,2.637,2.5105,2.4158,2.4245,2.431,2.4347,2.4483,2.4581,2.4728,2.5349,2.5553,2.5553,2.5478,2.5379,2.5236,2.5001,2.499,0.0,0.0,2.5073,2.5109,2.5147,2.5128,2.5109,2.5147,2.5163,2.5163,2.5163,2.4076,2.2943,0.0,2.119,1.9982,1.8991,0.0,1.8669,1.8092,1.8052,1.8086,1.8013,1.8033,1.7834,1.7291,1.7196,1.7013,1.6466,1.6402,1.6402,1.6402,1.6402,1.6389,1.6386,1.6386,1.592,1.4929,1.538,0.0,0.0,0.0,0.0,0.0,0.0,0.0,0.0,0.0,0.0,0.0,0.0,0.0,0.0,0.0,0.0,0.0,0.0,0.0,0.0,0.0,0.0,0.0,0.0,0.0,0.0,0.0,0.0,2.6398,2.6645,0.0,2.5999,2.5659,2.5491,2.5491,2.5491,2.5798,2.6469,2.6527,2.69,2.7769,2.7782,2.7889,2.8117,2.8117,2.8247,2.8524,2.8524,2.8716,2.9002,2.9002,2.9002,2.8975,2.8526,2.8046,2.7529,2.7009,2.6337,2.561,2.5218,2.5365,2.5806,2.5854,2.6167,2.6594,2.6807,2.6896,2.6894,2.6832,2.6452,2.5984,2.5931,2.5821,2.5707,2.5707,2.5926,2.6158,2.6158,2.5944,2.5707,2.5707,2.5707,2.5577,2.5051,2.4461,2.372,2.2783,2.1598,2.0534,1.9858,2.0028,1.9991,1.9189,1.9317,1.9295,1.8688,1.8612,1.8419,1.7867,1.7807,1.7747,1.7544,1.7524,1.7524,1.7524,1.7524,1.7524,1.7524,1.7524,1.7356,1.7009,1.6855,1.6209,0.0,0.0,0.0,0.0,0.0,0.0,0.0,0.0,0.0,0.0,0.0,0.0,0.0,0.0,0.0,0.0,0.0,0.0,0.0,0.0,0.0,0.0,0.0,0.0,0.0,0.0,2.7557,2.7589,2.8113,2.8252,2.7644,2.7769,2.7864,2.7864,2.7864,2.8058,2.8443,2.847,2.8619,2.8989,2.9002,2.9002,2.9002,2.9002,2.916,2.9442,2.9442,2.9566,2.9858,2.9858,2.9858,2.983,2.913,2.8649,2.8282,2.7916,2.7514,2.7071,2.6403,2.6443,2.6878,2.6878,2.7316,2.7919,2.8125,2.8222,2.8196,2.8093,2.7715,2.7275,2.7225,2.6935,2.6609,2.6609,2.6654,2.6691,2.6691,2.647,2.6244,2.6244,2.6044,2.5728,2.5195,2.4574,2.389,2.3079,2.1998,2.1055,2.0553,2.0765,2.0732,1.9956,2.0248,2.0248,1.9474,1.9365,1.9181,1.866,1.8463,1.8302,1.8125,1.8106,1.8106,1.8106,1.8106,1.8106,1.8106,1.8106,1.8106,1.8106,1.7702,1.7167,1.651,0.0,0.0,0.0,0.0,0.0,0.0,0.0,0.0,0.0,0.0,0.0,0.0,0.0,0.0,0.0,0.0,0.0,0.0,0.0,0.0,0.0,0.0,0.0,2.7202,2.7853,2.8288,2.8316,2.8768,2.8862,2.8341,2.8782,2.9097,2.9097,2.9097,2.9083,2.9069,2.9069,2.9069,2.9069,2.9069,2.9069,2.9097,2.9097,2.9504,3.0329,3.0329,3.0748,3.1511,3.1511,3.1496,3.1465,3.0805,3.049,3.0398,2.9139,2.8614,2.8554,2.788,2.7625,2.7625,2.7635,2.8018,2.8606,2.9203,2.9406,2.9406,2.9267,2.9242,2.9194,2.9082,2.8467,2.7807,2.7807,2.7283,2.6691,2.6691,2.6691,2.6691,2.6691,2.6133,2.5592,2.5575,2.4425,2.3393,2.3359,2.2427,2.1491,2.1102,2.1039,2.0878,2.0416,2.0731,0.0,2.0382,2.0331,2.0145,1.9674,1.9218,1.8727,1.821,1.8171,1.8171,1.819,1.819,1.819,1.819,1.819,1.819,1.819,1.8039,1.8014,1.8171,0.0,0.0,0.0,0.0,0.0,0.0,0.0,0.0,0.0,0.0,0.0,0.0,0.0,0.0,0.0,0.0,0.0,0.0,0.0,0.0,0.0,0.0,2.8684,2.8769,2.9421,3.0059,3.0544,3.0734,3.0763,3.0617,3.0734,3.0807,3.0807,3.0807,3.0587,3.0104,3.0104,3.0104,3.0104,3.0104,3.0309,3.0807,3.0807,3.0925,3.1161,3.1161,3.1278,3.1511,3.1511,3.1453,3.1389,3.0773,3.0474,3.0356,2.9501,2.9179,2.9116,2.8493,2.8262,2.8295,2.874,2.8996,2.918,2.9339,2.9695,3.0048,3.002,2.9932,2.9849,2.9816,2.8855,2.7807,2.7807,2.7283,2.6691,2.6691,2.6691,2.6691,2.6691,2.6133,2.5456,2.4915,2.4052,2.3241,2.2716,2.2329,2.2077,2.1959,2.1945,2.1781,2.1306,0.0,0.0,2.0862,2.0813,2.0633,2.0162,1.9989,1.9866,1.971,1.971,1.9836,0.0,2.02,2.02,2.02,2.02,2.02,2.02,1.9389,1.9148,0.0,0.0,0.0,0.0,0.0,0.0,0.0,0.0,0.0,0.0,0.0,0.0,0.0,0.0,0.0,0.0,0.0,0.0,0.0,0.0,0.0,0.0,2.8987,2.9957,3.0235,3.0655,3.1062,3.1451,3.1511,3.1511,3.1511,3.1511,3.1511,3.1511,3.1241,3.0898,3.0522,3.0253,3.0238,3.0492,3.0507,3.0808,3.1496,3.1511,3.1511,3.1511,3.1511,3.1346,3.1106,3.1343,3.1296,0.0,3.0613,3.044,3.0352,2.9671,2.9406,0.0,0.0,0.0,0.0,0.0,2.9783,2.9805,3.0081,3.0393,3.0679,3.0679,3.0613,3.0497,3.0192,2.9262,2.8229,2.7891,2.7386,2.6955,2.6955,2.7067,2.721,2.721,2.6366,2.5436,2.5017,2.4071,2.3191,2.2759,0.0,0.0,2.2673,2.247,2.2135,2.1673,2.1779,2.1735,0.0,2.1244,2.115,2.0862,2.0699,2.0583,2.0583,2.0583,0.0,0.0,0.0,2.0991,2.0991,2.0991,0.0,0.0,0.0,0.0,0.0,0.0,0.0,0.0,1.9306,1.9276,0.0,0.0,0.0,0.0,0.0,0.0,0.0,0.0,0.0,0.0,0.0,0.0,0.0,0.0,0.0,0.0,3.0319,3.0895,3.1409,3.1485,3.1488,3.1509,3.1511,3.1511,3.1511,3.1511,3.1511,3.1511,3.0938,3.0573,3.0498,0.0,0.0,0.0,0.0,3.1074,3.1739,3.1739,3.1739,3.1739,3.1739,3.1451,3.086,3.1324,3.1223,3.0697,3.0577,3.0507,3.0447,2.9842,2.9607,2.9585,2.9518,2.954,2.9673,3.0208,3.0414,0.0,0.0,0.0,0.0,3.1252,3.1271,3.1152,3.0547,2.9784,2.9002,2.827,2.772,2.7363,2.7363,2.7619,2.7897,2.7897,2.6676,2.5508,2.5508,2.4286,2.32,2.32,2.32,2.32,2.32,2.2721,2.2203,2.179,2.2061,0.0,2.1718,2.1673,2.1673,2.1657,0.0,0.0,2.1118,2.1086,2.1086,2.115,2.115,2.115,2.115,2.115,2.115,2.115,2.115,2.115,2.115,2.1491,2.1687,2.1683,2.0107,1.9533,0.0,0.0,0.0,0.0,0.0,0.0,0.0,0.0,0.0,0.0,0.0,0.0,0.0,0.0,0.0,3.1074,3.1697,3.1962,3.147,3.1423,3.1436,3.1476,3.1511,3.1511,3.1511,3.1511,3.1511,3.1511,3.1311,3.1021,3.054,3.0901,0.0,3.1295,3.189,3.2523,3.3193,3.3193,3.3193,3.3193,0.0,0.0,3.2971,3.251,3.2199,3.2006,3.1387,3.1094,3.1039,3.0905,3.0858,3.0801,3.033,3.0435,3.0858,3.0995,3.1035,3.1035,3.1151,3.119,3.1252,3.1584,3.1678,3.1735,3.1952,3.1072,0.0,2.9772,2.878,2.7779,2.7779,2.784,2.7897,2.7897,2.6676,2.5508,2.5508,2.4286,2.32,2.32,2.32,2.32,2.32,2.2873,2.2595,2.2499,2.2381,2.2268,2.218,2.2149,2.2115,2.2015,2.1683,2.1595,2.1869,2.1639,2.166,2.2034,2.2049,2.2049,2.2049,2.2049,2.2049,2.2049,2.2049,2.2049,2.2049,2.212,2.2284,2.2468,2.1924,2.1701,0.0,0.0,0.0,0.0,0.0,0.0,0.0,0.0,0.0,0.0,0.0,2.9756,3.0394,0.0,3.1534,3.1462,3.1717,3.1804,3.1453,3.1406,3.1415,3.1444,3.1442,3.1581,3.1948,3.1994,3.1994,3.1994,3.1654,3.1152,3.0492,3.0792,3.115,3.1478,3.2223,3.2928,3.3608,3.3582,3.3582,3.3582,3.3582,3.3431,3.3088,3.2644,3.2255,3.1874,3.1444,3.1213,3.119,3.119,3.119,3.1171,3.0858,3.0918,3.119,3.119,3.119,3.119,3.119,3.1332,3.1528,3.1734,3.1951,3.2055,3.1516,3.0802,3.0039,2.9278,2.861,2.8156,2.8156,2.8308,2.8456,2.8456,2.7518,2.6537,2.6146,2.5129,2.4183,2.3775,2.3703,2.3703,2.3703,2.3414,2.3141,2.2984,2.2845,2.2747,2.2747,2.2747,2.273,2.266,2.2504,2.2464,2.2647,2.2491,2.2499,2.2734,2.2747,2.2747,2.2747,2.2747,2.2747,2.2747,2.2747,2.2747,2.2747,2.2747,2.2819,2.2947,2.2807,2.2747,0.0,0.0,0.0,0.0,0.0,0.0,0.0,0.0,2.8688,2.9804,3.064,3.1235,3.1598,3.1769,3.1794,3.1594,3.1578,3.153,3.1377,3.1345,3.1345,3.1345,3.1374,3.1629,3.2228,3.2292,3.2292,3.2292,3.1775,3.1203,3.0617,3.0898,3.1313,3.1834,3.2716,3.3445,3.3987,3.4003,3.4003,3.4003,3.4003,3.3615,3.2951,3.2712,3.2227,3.1568,3.1298,3.119,3.119,3.119,3.119,3.119,3.119,3.1249,3.131,3.123,3.1252,3.1329,3.1329,3.1601,3.1951,3.2039,3.2332,3.2417,3.1248,3.0796,3.0368,2.8973,2.8658,2.8708,2.8563,2.8761,2.9005,2.9005,2.8393,2.7585,2.6778,2.597,2.5154,2.4355,2.419,2.419,2.419,2.3986,2.3682,2.3357,2.3236,2.32,2.32,2.32,2.3224,2.33,2.3236,2.32,2.32,2.32,2.32,2.32,2.32,2.32,2.32,2.32,2.32,2.32,2.32,2.32,2.32,2.32,2.3224,2.33,2.33,2.3247,2.6732,2.5484,0.0,2.7326,2.7599,2.8052,0.0,0.0,3.1236,3.1858,3.2563,3.2917,3.2328,3.2744,3.2963,3.2307,3.2189,3.1971,3.1311,3.1211,3.1211,3.1211,3.1326,3.1437,3.1517,3.1517,3.1517,3.1517,3.1394,3.1292,3.1188,3.2379,3.3097,3.3198,3.4544,3.5301,3.5362,3.5362,3.5362,3.5362,3.5362,3.4998,3.4263,3.3599,3.29,3.2161,3.1492,3.119,3.119,3.119,3.119,3.119,3.119,3.1411,3.1696,3.1332,3.143,3.1751,3.1786,3.2092,3.2501,3.2903,3.3075,3.3163,3.3332,3.2898,3.2148,3.1265,3.0521,2.9819,2.9112,2.897,2.9005,2.9005,2.8393,2.7585,2.6778,2.597,2.5154,2.4355,2.419,2.419,2.419,2.417,2.4026,2.3692,2.3392,2.32,2.32,2.32,2.3305,2.361,2.338,2.32,2.32,2.32,2.32,2.32,2.32,2.32,2.32,2.32,2.32,2.32,2.32,2.32,2.32,2.32,2.3357,2.3631,2.3631,2.3471,2.6924,0.0,0.0,0.0,2.862,2.9435,3.0829,3.1281,3.1618,3.2174,3.2882,3.3169,3.2446,3.2564,3.253,0.0,3.1667,3.1565,3.1241,3.119,3.119,3.119,3.125,3.145,3.1885,3.1918,3.1918,3.1918,3.1907,3.1683,3.1266,3.2601,3.3406,3.3406,3.4822,3.56,3.56,3.56,3.56,3.56,3.56,3.5216,3.4472,3.3744,3.2763,3.165,3.1326,3.119,3.119,3.119,3.1332,3.1564,3.1581,3.1841,3.2144,3.1696,3.1842,3.2213,3.2231,3.2551,3.2937,3.3139,3.3361,3.3487,3.3185,3.2858,3.2326,3.1054,3.0467,3.0008,2.9207,2.9005,2.9005,2.9005,2.873,2.8282,2.7475,2.6667,2.586,2.5044,2.453,2.419,2.419,2.419,2.4151,2.4006,2.3876,2.3785,2.3785,2.3785,2.3845,2.3986,2.3876,2.3785,2.3785,2.3785,2.3785,2.3785,2.3785,2.3785,2.3785,2.3785,2.3785,2.3785,2.3785,2.3785,2.3785,2.3785,2.3847,2.3996,2.3996,2.3917,2.7427,0.0,0.0,2.8655,2.9626,3.0589,3.0809,3.1406,3.2017,3.2246,3.2713,3.2865,3.2141,3.2005,3.1819,3.1275,3.119,3.119,3.119,3.119,3.1275,3.1481,3.1495,3.1718,3.2242,3.2124,3.2005,3.2005,3.2005,3.1853,3.1512,3.2713,3.3491,3.3694,3.4923,3.56,3.56,3.56,3.56,3.56,3.538,3.4912,3.4167,3.3349,3.2451,3.1562,3.1562,3.1562,3.1562,3.1562,3.1732,3.2004,3.2056,3.2317,3.2648,3.2315,3.24,3.2697,3.2697,3.2999,3.3361,3.3361,3.3564,3.3697,3.3109,3.2784,3.2307,3.0925,3.0375,3.0008,2.9207,2.9005,2.9005,2.9005,2.9062,2.8872,2.8064,2.7419,2.6774,2.5972,2.5295,2.4815,2.4643,2.4607,2.4552,2.4385,2.4366,2.433,2.4209,2.419,2.419,2.419,2.419,2.419,2.419,2.419,2.419,2.419,2.419,2.419,2.419,2.419,2.419,2.419,2.419,2.419,2.419,2.419,2.4228,2.4303,2.4515,2.4644,0.0,0.0,2.7628,2.957,3.0613,3.1357,3.2087,3.281,3.3132,3.2446,3.2327,3.2107,3.136,3.1224,3.1224,3.119,3.119,3.119,3.119,3.119,3.1481,3.2192,3.2276,3.2276,0.0,3.1667,3.1224,3.1224,3.1224,3.1549,3.2226,3.2983,3.3728,3.4438,3.5194,3.56,3.56,3.56,3.56,3.5583,3.4878,3.415,3.3389,3.2322,3.2074,3.2467,3.2467,3.2467,3.2467,3.2467,3.2467,3.2484,3.2484,3.2761,3.3184,3.3169,3.3169,3.3184,3.3184,3.3433,3.3775,3.3775,3.3775,3.3807,3.377,3.322,3.2417,3.1599,3.0797,3.0008,2.9207,2.9005,2.9005,2.9005,2.9211,2.915,2.8276,2.8081,2.782,2.7,2.6678,2.6336,2.5755,2.5651,2.5451,2.4866,2.4782,2.4639,2.4256,2.419,2.419,2.419,2.419,2.419,2.419,2.419,2.419,2.419,2.419,2.419,2.419,2.419,2.419,2.419,2.419,2.419,2.419,2.419,2.4303,2.4513,2.5293,2.5766,0.0,0.0,2.9143,2.931,3.0277,3.1024,3.0279,3.0666,3.114,3.0886,3.0835,3.0903,3.1157,3.1616,3.1769,3.1275,3.1616,3.1769,3.1258,3.119,3.1461,3.2209,3.2293,0.0,0.0,0.0,0.0,3.1241,3.119,3.1512,3.2259,3.3,3.3744,3.4472,3.5211,3.56,3.56,3.56,3.56,3.5583,3.4677,3.3975,3.3503,3.2652,3.235,3.2501,3.2501,3.2501,3.2501,3.2501,3.2681,3.2968,3.2968,3.3211,3.3592,3.3592,3.3592,3.3592,3.3592,3.3694,3.3807,3.3807,3.3807,3.3807,3.3807,3.3605,3.3128,3.1782,3.1213,3.0735,2.9565,2.9267,2.931,2.9436,2.9523,2.9532,2.9213,2.8742,2.8289,2.8007,2.7477,2.6824,2.6038,2.5896,2.5656,2.4903,2.4804,2.4753,2.4615,2.4591,2.4591,2.4591,2.4591,2.4591,2.4591,2.4591,2.4591,2.4591,2.4591,2.4591,2.4591,2.4591,2.4591,2.4591,2.4591,2.4591,2.4591,2.4591,2.4912,2.5498,2.5769,2.6249,2.8601,2.9345,3.0057,2.9839,3.0497,3.0937,3.0008,3.0142,3.0497,3.0497,3.0497,3.0632,3.1106,3.1802,3.2056,3.1309,3.1819,3.2039,3.1292,3.143,3.187,3.2615,3.2679,0.0,0.0,0.0,0.0,3.1667,3.1599,3.2039,3.3038,3.3541,3.4134,3.4878,3.5346,3.56,3.56,3.5805,3.5694,3.5301,3.4658,3.4039,3.3442,3.2977,3.2825,3.2965,3.2965,3.2965,3.2965,3.2965,3.3151,3.3404,3.3404,3.3564,3.3807,3.3807,3.3807,3.3807,3.3807,3.3807,3.3807,3.3807,3.3807,3.3807,3.3807,3.3605,3.3117,3.1888,3.1334,3.0868,2.979,2.9504,2.9551,2.967,2.9746,2.9804,2.9804,2.9404,2.9041,2.9041,2.8569,2.7913,2.713,2.6823,2.6503,2.5996,2.592,2.5645,2.4894,2.4804,2.4804,2.4804,2.4804,2.4804,2.4804,2.4804,2.4804,2.4804,2.4804,2.4804,2.4804,2.4804,2.4804,2.4804,2.4804,2.4804,2.4804,2.5087,2.5539,2.6115,2.6716,2.7329,2.97,3.0123,3.0328,3.097,3.1157,3.1173,3.1089,3.1106,3.114,3.114,3.114,3.1157,0.0,0.0,3.2107,3.1376,3.1921,3.2158,3.141,3.1921,3.2632,0.0,0.0,0.0,0.0,0.0,0.0,3.2452,0.0,3.2987,3.4404,3.4532,3.4871,3.5611,3.5672,3.5672,3.5672,3.613,3.5846,3.4854,3.4783,3.4222,3.3229,3.3229,3.3451,3.3807,3.3807,3.3807,3.3807,3.3807,3.3807,3.3807,3.3807,3.3807,3.3807,3.3807,3.3807,3.3807,3.3807,3.3807,3.3807,3.3807,3.3807,3.3788,3.3815,3.3301,3.2575,3.2035,3.1342,3.0603,3.0,2.9854,2.9844,2.9815,2.9953,3.0078,3.004,3.0021,3.0021,3.0021,2.9823,2.9485,2.8905,2.8331,2.7953,2.7915,2.7934,2.7225,2.5222,2.4965,2.4965,2.4965,2.4965,2.4965,2.4965,2.4965,2.4946,2.4889,2.4889,2.4889,2.4889,2.4851,2.4851,2.4889,2.4889,2.4889,2.4889,2.5702,2.6212,2.6486,2.807,2.8938,2.9987,3.0497,3.0835,3.048,3.0784,3.0903,2.9822,2.9989,3.0378,3.0378,3.0378,3.0548,0.0,0.0,0.0,3.2141,3.3106,0.0,3.2949,3.3,0.0,0.0,0.0,3.3186,3.2632,3.3068,0.0,0.0,3.3349,3.3525,3.4438,3.4881,3.5415,3.6169,3.6583,3.6786,3.6786,3.6287,3.5774,3.5298,3.4707,3.4138,3.3652,3.3652,3.3707,3.3807,3.3807,3.3807,3.3807,3.3807,3.3807,3.3807,3.3807,3.3807,3.3807,3.3807,3.3807,3.3807,3.3807,3.3807,3.3807,3.3807,3.3807,3.3842,3.4043,3.395,3.3675,3.3137,3.2852,3.2553,3.1998,3.1865,3.1744,3.1305,3.1238,3.1092,3.0439,3.0305,3.0305,3.0305,2.9736,2.9206,2.9057,2.8906,2.8588,2.7992,2.8415,2.8387,2.7244,2.7117,2.7117,2.7117,2.7117,2.7117,2.7117,2.7117,2.683,2.6192,2.6134,2.6134,2.6134,2.5516,2.5477,2.6134,2.6134,2.6134,2.6129,2.6997,2.7748,2.8397,2.8825,2.94,3.0497,3.0886,3.1106,3.0683,3.0886,3.097,3.0161,3.0277,3.0581,3.0581,3.0581,0.0,0.0,0.0,0.0,0.0,0.0,0.0,3.3947,3.388,3.3998,0.0,3.4299,0.0,3.3665,3.4192,3.4673,0.0,3.4513,3.4672,3.5641,3.5978,3.6328,3.6726,3.7039,3.7304,3.7506,3.7024,3.6464,3.5836,3.5399,3.4699,3.3807,3.3807,3.3807,3.3807,0.0,3.3807,3.3807,3.3807,3.3807,3.3807,3.3807,3.3807,3.3802,3.3923,3.3974,3.3999,3.4148,3.4196,3.4148,3.3895,3.3876,3.3993,3.414,3.4292,3.429,3.3724,3.358,3.3462,3.2871,3.273,3.2644,3.2314,3.1968,3.1564,3.1077,3.0673,3.0404,3.0404,3.0,2.9679,2.9679,2.9679,2.9525,2.9063,2.9371,2.9506,2.9063,2.8352,2.7895,2.7895,2.7895,2.7895,2.7895,2.7895,2.7678,2.7198,2.7178,2.7178,2.7178,2.6697,2.6678,2.7159,2.7178,2.7178,2.7178,2.803,2.8665,2.9107,2.9486,2.9943,3.1021,3.1249,3.1271,3.121,3.1249,3.1269,3.121,3.119,3.119,3.119,0.0,0.0,3.1326,0.0,3.3275,3.2924,0.0,3.4844,3.5138,3.5002,3.51,3.5764,3.5576,3.5342,3.5255,3.5694,3.6024,3.6096,3.5725,3.598,3.7137,3.7266,3.734,3.7396,3.7289,3.7488,3.7997,3.7798,3.7217,3.6303,3.6174,3.5312,3.3807,3.3807,3.3807,3.3807,0.0,0.0,3.3807,3.3807,3.3807,3.3807,3.3807,3.3815,3.3876,3.4111,3.4242,3.4311,3.4593,3.4694,3.4612,3.4087,3.4068,3.4258,3.4304,3.4521,3.4652,3.4164,3.402,3.3907,3.339,3.3256,3.3218,3.3103,3.2545,3.2006,3.1891,3.1173,3.0538,3.0423,3.0404,3.0404,3.0404,3.0404,3.0404,3.0404,3.0404,3.0404,3.0404,2.914,2.8236,2.8236,2.8236,2.8236,2.8236,2.8236,2.8179,2.8068,2.8068,2.8068,2.8068,2.7953,2.7953,2.8068,2.8068,2.8068,2.8068,2.8876,2.9272,2.9289,3.0053,3.0456,3.1157,3.1449,3.1621,3.1291,3.1449,3.1621,3.1271,3.119,0.0,0.0,0.0,3.1396,3.2005,3.2814,0.0,3.5517,0.0,0.0,0.0,0.0,3.6802,0.0,0.0,0.0,0.0,0.0,0.0,0.0,0.0,3.6684,3.7175,3.756,3.7981,3.8417,3.7776,3.7823,3.8562,3.7244,3.6468,3.6285,3.5573,3.4711,3.3807,3.3807,3.3807,3.3807,0.0,0.0,3.3807,3.3807,3.3807,3.3807,3.3807,3.3954,3.4135,3.4176,3.4379,3.4632,3.4674,3.4694,3.4674,3.458,3.458,3.4645,3.4879,3.499,3.5049,3.517,3.5201,3.517,3.5089,3.5058,3.4865,3.4141,3.3878,3.3571,3.2852,3.2045,3.125,3.0538,3.0404,3.0404,3.0404,3.0404,3.0404,3.0404,3.0404,3.0404,3.0404,3.0154,2.9962,2.9962,2.9962,2.9962,2.9962,2.9962,2.966,2.8934,2.8896,2.8896,2.8896,2.8261,2.8203,2.8876,2.8896,2.8896,2.8896,2.9756,3.0202,3.0259,3.0409,3.0528,3.1468,3.1641,3.1807,3.186,3.2021,3.2057,3.1603,0.0,0.0,0.0,0.0,3.1309,3.1667,0.0,0.0,0.0,0.0,0.0,0.0,0.0,0.0,0.0,0.0,0.0,0.0,0.0,0.0,0.0,0.0,0.0,3.733,3.7566,3.8011,3.8673,3.8322,3.8102,3.8065,3.7309,3.6486,3.561,3.5206,3.4582,3.3807,3.3807,3.3807,3.3807,3.3807,0.0,3.3807,3.3807,3.3876,3.4006,3.4006,3.4183,3.4467,3.4615,3.4765,3.4935,3.507,3.5113,3.5113,3.5113,3.5016,3.4935,3.507,3.5198,3.5327,3.5453,3.55,3.55,3.55,3.55,3.5385,3.4988,3.4526,3.3955,3.3083,3.2602,3.2199,3.1775,3.1365,3.1077,3.1077,3.0692,3.0404,3.0404,3.0404,3.0404,3.0404,3.0433,3.0436,3.039,3.0404,3.0404,3.0404,3.0404,3.0212,2.9794,2.9813,2.9818,2.9775,2.9447,2.9429,2.9815,2.9834,2.9849,2.9887,3.029,3.0513,3.0544,3.0544,3.0591,3.1938,3.2122,3.2231,3.2453,3.2583,3.2501,3.195,3.1807,0.0,0.0,0.0,3.128,0.0,0.0,0.0,0.0,0.0,0.0,0.0,0.0,0.0,0.0,0.0,0.0,0.0,0.0,0.0,0.0,0.0,0.0,3.7199,3.7235,3.7533,3.8175,3.8193,3.7881,3.7254,3.7235,3.6486,3.5004,3.5004,3.4582,3.3807,3.3807,3.3807,3.3807,3.3807,0.0,0.0,3.385,3.4006,3.42,3.4288,3.45,3.4803,3.5016,3.513,3.5215,3.5432,3.55,3.55,3.55,3.5361,3.519,3.519,3.5327,3.55,3.55,3.55,3.55,3.55,3.55,3.55,3.55,3.4988,3.4237,3.3372,3.3179,3.3122,3.2949,3.2391,3.198,3.1996,3.1424,3.0915,3.0749,3.0716,3.0658,3.046,3.0495,3.0498,3.0451,3.0441,3.0441,3.0441,3.0441,3.0441,3.0441,3.0485,3.0494,3.0446,3.0485,3.0517,3.0517,3.0517,3.0556,3.0603,3.0603,3.0611,3.0628,3.0628,3.0663,3.2748,3.3158,3.3282,3.2661,3.2809,3.2921,3.2091,0.0,0.0,0.0,3.119,3.1533,3.2628,0.0,0.0,0.0,0.0,0.0,0.0,0.0,0.0,0.0,0.0,0.0,0.0,0.0,0.0,0.0,0.0,0.0,0.0,3.6413,3.6431,3.6523,3.6523,3.6486,3.6413,3.6413,3.5936,3.5004,3.5004,3.4582,3.3807,3.3807,3.3807,3.3807,0.0,0.0,0.0,3.4068,3.4183,3.4223,3.454,3.4813,3.507,3.5096,3.5246,3.5479,3.5493,3.55,3.55,3.55,3.5486,3.5453,3.5453,3.5486,3.55,3.55,3.55,3.55,3.55,3.55,3.55,3.55,3.5442,3.5135,3.4276,3.409,3.3859,3.3045,3.2833,3.2831,3.2958,3.29,3.2607,3.1864,3.1757,3.1482,3.0678,3.0587,3.0591,3.0581,3.0581,3.0581,3.0581,3.0581,3.0581,3.0581,3.0587,3.0591,3.0581,3.0587,3.0594,3.0594,3.0594,3.0597,3.0603,3.0603,3.0638,3.0689,3.0689,3.0766,3.372,3.431,3.4794,3.4795,3.4542,3.4116,3.3541,0.0,0.0,3.2074,3.2369,3.286,3.3318,3.3775,0.0,0.0,0.0,0.0,0.0,0.0,0.0,0.0,0.0,0.0,0.0,0.0,0.0,0.0,0.0,0.0,0.0,3.5257,3.5771,3.6266,3.6303,3.6046,3.5518,3.5518,3.5096,3.427,3.427,3.4119,3.3807,3.3807,3.3889,3.4043,0.0,0.0,0.0,3.4464,3.4603,3.4746,3.4889,3.5105,3.5346,3.5346,3.5417,3.55,3.55,3.55,3.55,3.55,3.55,3.55,3.55,3.55,3.55,3.55,3.55,3.55,3.55,3.55,3.5508,3.5558,3.5556,3.5488,3.5175,3.5067,3.4952,3.4633,3.4119,3.3799,3.3911,3.3506,3.3054,3.2736,3.268,3.2369,3.1487,3.1427,3.1235,3.0726,3.0611,3.0603,3.0603,3.0603,3.0603,3.0603,3.0645,3.0631,3.0606,3.1137,3.1449,3.1449,3.1958,3.2246,3.2286,3.1798,3.1589,3.1597,3.105,3.0857,3.4589,3.5311,3.6001,3.6252,3.5628,3.4887,0.0,0.0,3.3132,3.29,3.3295,3.3824,3.419,3.4688,3.5346,0.0,0.0,0.0,0.0,0.0,0.0,0.0,0.0,0.0,0.0,0.0,0.0,0.0,0.0,0.0,0.0,3.4325,3.4931,3.5532,3.5789,3.5514,3.4656,3.4876,3.4601,3.3807,3.3807,3.3807,3.3788,3.3876,3.4018,3.42,0.0,0.0,0.0,3.4793,3.4935,3.5105,3.519,3.5327,3.55,3.55,3.55,3.55,3.55,3.55,3.55,3.55,3.55,3.55,3.55,3.55,3.55,3.55,3.55,3.5494,3.5528,3.5522,3.5546,3.5616,3.563,3.5633,3.5689,3.5667,3.5633,3.5693,3.5166,3.4757,3.4895,3.4405,3.3929,3.3674,3.3637,3.3325,3.2463,3.2376,3.2096,3.1236,3.1097,3.0977,3.0702,3.0683,3.08,3.1055,3.1126,3.1226,3.1428,3.2065,3.2409,3.2409,3.278,3.3002,3.3047,3.2226,3.1816,3.1797,3.1191,3.0898,3.5365,3.6074,3.664,3.6366,3.5628,3.4887,0.0,3.3776,3.3291,3.3626,3.3684,3.4085,3.5353,3.5596,3.6012,0.0,0.0,0.0,0.0,0.0,0.0,0.0,0.0,0.0,0.0,0.0,0.0,0.0,0.0,0.0,0.0,3.3807,3.3825,3.3825,3.4601,3.4619,3.3825,3.4601,3.4601,3.3807,3.3807,3.3807,3.382,3.4062,3.4188,0.0,0.0,0.0,0.0,3.4981,3.5096,3.5122,3.5383,3.55,3.55,3.55,3.55,3.55,3.55,3.55,3.55,3.55,3.55,3.55,3.55,3.55,3.55,3.55,3.55,3.5521,3.5588,3.5605,3.5621,3.5682,3.5703,3.5703,3.5707,3.5703,3.5703,3.5707,3.5684,3.5729,3.5853,3.5882,3.5603,3.4804,3.4687,3.4375,3.3496,3.3398,3.3086,3.2266,3.2187,3.1836,3.0976,3.0898,3.1269,3.2129,3.2187,3.2539,3.334,3.3379,3.3398,3.3398,3.2617,3.2207,3.2207,3.1348,3.0918,3.0918,3.0898,3.0898,3.5122,3.5787,3.6416,3.6329,3.6083,3.5705,3.4972,3.5067,3.5184,3.4687,3.549,3.6425,3.6821,3.6891,3.7211,3.8178,0.0,0.0,0.0,0.0,0.0,0.0,0.0,0.0,0.0,0.0,0.0,0.0,0.0,0.0,0.0,3.3807,3.3807,3.3807,3.4045,3.4064,3.3807,3.4064,3.4064,3.3788,3.3999,3.4062,3.4074,3.4409,0.0,0.0,0.0,0.0,0.0,3.5346,3.5702,3.6151,3.5691,3.5846,3.625,3.5692,3.55,3.55,3.55,3.55,3.55,3.55,3.55,3.55,3.55,3.55,3.5508,3.557,3.5579,3.5574,3.5646,3.5679,3.5702,3.5805,3.5838,3.5849,3.59,3.5864,3.5674,3.5119,3.4984,3.478,3.4271,3.4195,3.4099,3.3848,3.4316,3.4199,3.2754,3.3066,3.2851,3.1465,3.1309,3.1191,3.0918,3.0898,3.1016,3.1289,3.1309,3.1426,3.168,3.2266,3.2578,3.2578,3.2871,3.3027,3.3027,3.2187,3.1484,3.0898,3.0898,3.0858,0.0,3.5628,3.6358,3.667,3.6505,3.6229,3.6009,3.6138,3.6229,3.5991,3.6762,3.7584,3.7915,3.7936,3.812,3.8615,0.0,0.0,0.0,0.0,0.0,0.0,0.0,0.0,0.0,0.0,0.0,0.0,0.0,0.0,0.0,0.0,3.3807,3.3807,3.3807,3.3807,3.3807,3.3902,3.3948,3.3948,3.4242,3.439,3.4401,3.4705,0.0,0.0,0.0,0.0,0.0,3.55,3.5808,3.6192,3.5692,3.5808,3.6192,3.5673,3.55,3.55,3.55,3.55,3.55,3.55,3.55,3.5494,3.5522,3.554,3.5546,3.5585,3.5626,3.565,3.5749,3.5789,3.5807,3.5916,3.5944,3.5948,3.5996,3.5719,3.5303,3.4804,3.439,3.3995,3.3496,3.3398,3.3398,3.3398,3.3867,3.3828,3.2793,3.3086,3.2871,3.1523,3.1387,3.1269,3.0937,3.0898,3.1035,3.1367,3.1387,3.1523,3.1836,3.2363,3.2656,3.2656,3.2851,3.2949,3.2949,3.2109,3.1426,3.0898,3.0898,3.0858,0.0,3.5665,3.6468,3.7235,3.6905,3.656,3.7254,3.6942,0.0,3.7364,3.7547,3.7823,3.856,3.8707,3.8707,3.8707,0.0,0.0,0.0,0.0,0.0,0.0,0.0,0.0,0.0,0.0,0.0,0.0,0.0,0.0,0.0,0.0,3.3829,3.3829,3.3855,3.3855,3.3829,3.4105,3.4253,3.4235,3.4572,3.4724,3.4734,3.4999,0.0,0.0,0.0,0.0,0.0,3.55,3.5538,3.5577,3.5519,3.5538,3.5577,3.5519,3.55,3.55,3.55,3.55,3.55,3.5514,3.5501,3.5515,3.5579,3.5596,3.5591,3.5611,3.5663,3.5732,3.5875,3.5907,3.5916,3.5995,3.5996,3.5976,3.5918,3.5273,3.4668,3.4551,3.3867,3.3281,3.3223,3.3223,3.3223,3.3223,3.3262,3.3281,3.3223,3.3281,3.3008,3.2187,3.2109,3.1777,3.0976,3.0898,3.125,3.2051,3.2109,3.2441,3.3184,3.3223,3.3223,3.3223,3.248,3.2109,3.2109,3.1289,3.0898,3.0898,3.0898,3.0917,3.6211,0.0,3.634,3.6523,3.6905,3.7107,0.0,3.7386,3.801,0.0,0.0,0.0,0.0,0.0,0.0,0.0,0.0,0.0,0.0,0.0,0.0,0.0,0.0,0.0,0.0,0.0,0.0,0.0,0.0,0.0,0.0,0.0,3.4099,3.4099,3.4353,3.4364,3.4099,3.4412,3.4572,3.4582,3.487,3.4999,3.5027,3.5289,0.0,0.0,0.0,0.0,3.55,3.55,3.5865,3.6365,3.5731,3.5885,3.6346,3.5731,3.55,3.55,3.55,3.55,3.5501,3.5556,3.5577,3.5585,3.5659,3.5648,3.5631,3.5791,3.5834,3.5877,3.5951,3.5974,3.5975,3.5996,3.5996,3.582,3.5156,3.4844,3.4316,3.3047,3.2617,3.2266,3.1601,3.1484,3.1484,3.1484,3.2051,3.2246,3.1562,3.207,3.2148,3.1309,3.1211,3.1113,3.0918,3.0898,3.0996,3.1191,3.1211,3.1289,3.1484,3.1484,3.1484,3.1484,3.1309,3.1211,3.1211,3.0996,3.0857,3.0745,3.0745,3.1042,3.7514,3.6853,3.6376,3.6758,3.718,3.7474,3.7422,0.0,0.0,0.0,0.0,0.0,0.0,0.0,0.0,0.0,0.0,0.0,0.0,0.0,0.0,0.0,0.0,0.0,0.0,0.0,0.0,0.0,0.0,0.0,0.0,0.0,3.4423,3.4423,3.4715,3.4744,3.4423,3.4725,3.487,3.4889,3.5166,3.5289,3.5289,3.5432,0.0,0.0,0.0,0.0,3.6019,3.5654,3.5962,3.6615,3.5808,3.5769,3.6096,3.5654,3.55,3.55,3.55,3.5515,3.5558,3.5585,3.5611,3.5659,3.5755,3.5768,3.5768,3.5867,3.5916,3.5949,3.5996,3.5996,3.5898,3.5508,3.5391,3.5156,3.4297,3.3809,3.3281,3.2383,3.1875,3.1445,3.0976,3.0898,3.0898,3.0898,3.1309,3.1426,3.0957,3.1309,3.1426,3.0957,3.0898,3.0898,3.0898,3.0898,3.0898,3.0898,3.0898,3.0898,3.0898,3.0898,3.1094,3.1484,3.1442,3.1593,3.2003,3.197,3.1929,3.1843,3.1843,3.2054,3.8707,3.7698,3.6817,3.7511,3.7676,3.786,0.0,0.0,0.0,0.0,0.0,0.0,0.0,0.0,0.0,0.0,0.0,0.0,0.0,0.0,0.0,0.0,0.0,0.0,0.0,0.0,0.0,0.0,0.0,0.0,0.0,0.0,0.0,3.4754,3.5016,3.5043,3.4813,3.5053,3.5155,3.5155,3.5383,3.55,3.55,3.55,3.55,0.0,0.0,0.0,3.6462,3.5788,3.5904,3.6442,3.5769,3.55,3.55,3.55,3.55,3.5507,3.5515,3.5558,3.5616,3.5636,3.5679,3.5758,3.588,3.5911,3.5911,3.5911,3.597,3.5996,3.5996,3.5996,3.5801,3.5078,3.4805,3.4453,3.3594,3.2773,3.2168,3.2031,3.1406,3.0898,3.0898,3.0898,3.0898,3.0898,3.1016,3.1094,3.1094,3.1211,3.1289,3.1289,3.1289,3.1289,3.1269,3.1269,3.1268,3.1246,3.1131,3.1112,3.1246,3.1246,3.1598,3.234,3.2236,3.2547,3.329,3.3231,3.319,3.3176,3.3176,3.3246,3.8707,3.8524,3.8358,3.8487,3.8524,3.856,0.0,0.0,0.0,0.0,0.0,0.0,0.0,0.0,0.0,0.0,0.0,0.0,0.0,0.0,0.0,0.0,0.0,0.0,0.0,0.0,0.0,0.0,0.0,0.0,0.0,0.0,0.0,3.5044,3.5297,3.5424,3.5376,3.5424,3.5439,3.5439,3.5486,3.55,3.55,3.55,3.55,0.0,0.0,3.5577,3.5673,3.5558,3.5577,3.5673,3.5558,3.55,3.55,3.55,3.55,3.5501,3.5548,3.559,3.5626,3.58,3.5864,3.588,3.5953,3.5976,3.5976,3.5976,3.5996,3.5996,3.5996,3.5996,3.5976,3.582,3.5234,3.4453,3.3594,3.2773,3.1973,3.123,3.0996,3.0898,3.0898,3.0898,3.0898,3.0898,3.1523,3.1992,3.1992,3.2598,3.3027,3.3027,3.3027,3.2986,3.2943,3.2921,3.2904,3.2848,3.2214,3.2141,3.2828,3.2845,3.2903,3.3039,3.3028,3.308,3.3216,3.3203,3.3134,3.3025,3.3025,3.3397,3.8707,3.8707,3.8799,3.9239,3.9019,3.8707,0.0,0.0,0.0,0.0,0.0,0.0,0.0,0.0,0.0,0.0,0.0,0.0,0.0,0.0,0.0,0.0,0.0,0.0,0.0,0.0,0.0,0.0,0.0,0.0,0.0,0.0,0.0,0.0,3.5439,3.55,3.55,3.55,3.55,3.55,3.55,3.55,3.55,3.55,3.55,3.55,0.0,3.575,3.6115,3.5673,3.575,3.6115,3.5673,3.55,3.5494,3.5527,3.5544,3.5568,3.563,3.571,3.5785,3.5867,3.5917,3.5951,3.5996,3.5996,3.5996,3.5996,3.5996,3.5996,3.5996,3.5996,3.5879,3.541,3.498,3.4453,3.3594,3.3105,3.2734,3.2324,3.2246,3.2246,3.2246,3.2246,3.2246,3.2246,3.2598,3.2851,3.2851,3.3164,3.3398,3.335,3.3348,3.3315,3.3259,3.3253,3.3237,3.3197,3.2842,3.2806,3.3177,3.3197,3.341,3.3881,3.3825,3.4029,3.4499,3.4468,3.4414,3.4351,3.4351,3.4552,3.8652,3.856,3.8615,0.0,0.0,0.0,0.0,0.0,0.0,0.0,0.0,0.0,0.0,0.0,0.0,0.0,0.0,0.0,0.0,0.0,0.0,0.0,0.0,0.0,0.0,0.0,0.0,0.0,0.0,0.0,0.0,0.0,0.0,0.0,3.55,3.55,3.55,3.55,3.55,3.55,3.55,3.55,3.55,3.55,3.55,3.55,3.55,3.5846,3.6365,3.575,3.5865,3.6365,3.5731,3.5508,3.5566,3.5824,3.5931,3.5969,3.6232,3.6277,3.6217,3.6226,3.6127,3.5996,3.5996,3.5996,3.5996,3.5996,3.5996,3.5996,3.5996,3.5996,3.582,3.5156,3.4844,3.4512,3.3848,3.3535,3.3398,3.3398,3.3398,3.3398,3.3398,3.3398,3.3398,3.3398,3.3574,3.3691,3.369,3.3865,3.3956,3.3875,3.3869,3.3824,3.3774,3.3743,3.3746,3.3746,3.3751,3.3755,3.3746,3.3746,3.4042,3.4729,3.4627,3.4908,3.5577,3.5528,3.55,3.55,3.55,3.55,3.8505,3.8138,3.7786,3.8597,0.0,0.0,0.0,0.0,0.0,0.0,0.0,0.0,0.0,0.0,0.0,0.0,0.0,0.0,0.0,0.0,0.0,0.0,0.0,0.0,0.0,0.0,0.0,0.0,0.0,0.0,0.0,0.0,0.0,0.0,0.0,3.55,3.55,3.55,3.55,3.55,3.55,3.55,3.55,3.55,3.55,3.55,3.55,3.5538,3.5577,3.5519,3.5538,3.5577,3.5519,3.554,3.5707,3.6581,3.689,3.7021,3.7893,3.7718,3.7121,3.7185,3.666,3.5996,3.5996,3.5996,3.5996,3.5996,3.5996,3.5996,3.5996,3.5996,3.5976,3.5918,3.5293,3.4687,3.4629,3.3965,3.3398,3.3398,3.3398,3.3398,3.3398,3.3398,3.3398,3.3398,3.4082,3.4588,3.4524,3.5222,3.5674,3.5548,3.5538,3.55,3.5437,3.5378,3.5322,3.5322,3.5392,3.5408,3.5348,3.5322,3.5361,3.5418,3.5424,3.5443,3.5501,3.5507,3.55,3.55,3.55,3.55,3.7878,3.7852,3.7905,3.8548,0.0,0.0,0.0,0.0,0.0,0.0,0.0,0.0,0.0,0.0,0.0,0.0,0.0,0.0,0.0,0.0,0.0,0.0,0.0,0.0,0.0,0.0,0.0,0.0,0.0,0.0,0.0,0.0,0.0,0.0,0.0,3.55,3.55,3.55,3.55,3.55,3.55,3.55,3.55,3.55,3.55,3.55,3.55,3.55,3.55,3.55,3.5528,3.5574,3.5606,3.5648,3.578,3.6768,3.7125,3.7269,3.8191,3.7964,3.7262,3.7285,3.6719,3.5996,3.5996,3.5996,3.5996,3.5996,3.5996,3.5996,3.5996,3.5996,3.5996,3.5996,3.5742,3.5508,3.5508,3.5254,3.5019,3.5019,3.5019,3.5019,3.5019,3.5019,3.4999,3.4969,3.524,3.5404,3.531,3.5574,3.5739,3.5657,3.5591,3.5574,3.5547,3.5502,3.55,3.55,3.5528,3.5534,3.55,3.55,3.55,3.55,3.55,3.55,3.55,3.55,3.55,3.55,3.55,3.55,3.7602,3.7706,3.7969,0.0,0.0,0.0,0.0,0.0,0.0,0.0,0.0,0.0,0.0,0.0,0.0,0.0,0.0,0.0,0.0,0.0,0.0,0.0,0.0,0.0,0.0,0.0,0.0,0.0,0.0,0.0,0.0,0.0,0.0,0.0,0.0,3.55,3.55,3.55,3.55,3.55,3.55,3.55,3.55,3.55,3.55,3.55,3.55,3.5515,3.5528,3.5528,3.5566,3.5644,3.573,3.5939,3.6281,3.7276,3.7816,3.817,3.9101,3.8672,3.7715,3.7715,3.6934,3.5996,3.5996,3.5996,3.5996,3.5996,3.5996,3.5996,3.5996,3.5996,3.5996,3.5996,3.5996,3.5996,3.5996,3.5996,3.5996,3.5996,3.5996,3.5996,3.5996,3.5975,3.5949,3.5907,3.5869,3.5794,3.5671,3.5679,3.5633,3.5577,3.5534,3.55,3.55,3.55,3.55,3.55,3.55,3.55,3.55,3.55,3.55,3.55,3.55,3.55,3.55,3.55,3.55,3.55,3.55,3.55,3.7795,3.7701,0.0,0.0,0.0,0.0,0.0,0.0,0.0,0.0,0.0,0.0,0.0,0.0,0.0,0.0,0.0,0.0,0.0,0.0,0.0,0.0,0.0,0.0,0.0,0.0,0.0,0.0,0.0,0.0,0.0,0.0,0.0,0.0,0.0,0.0,3.55,3.55,3.55,3.55,3.55,3.55,3.55,3.55,3.55,3.55,3.55,3.5547,3.5591,3.5591,3.5629,3.5717,3.5843,3.643,3.7315,3.824,3.9141,4.0019,4.0879,4.0039,3.8594,3.8594,3.7402,3.5996,3.5996,3.5996,3.5996,3.5996,3.5996,3.5996,3.5996,3.5996,3.5996,3.5996,3.5996,3.5996,3.5996,3.5996,3.5996,3.5996,3.5996,3.5996,3.5996,3.5946,3.5901,3.59,3.5775,3.5667,3.5606,3.5605,3.5571,3.5501,3.55,3.55,3.55,3.55,3.55,3.55,3.55,3.55,3.55,3.55,3.55,3.55,3.55,3.55,3.55,3.55,3.55,3.55,3.55,3.55,3.6021,3.657,0.0,0.0,0.0,0.0,0.0,0.0,0.0,0.0,0.0,0.0,0.0,0.0,0.0,0.0,0.0,0.0,0.0,0.0,0.0,0.0,0.0,0.0,0.0,0.0,0.0,0.0,0.0,0.0,0.0,0.0,0.0,0.0,0.0,0.0,3.55,3.55,3.55,3.55,3.55,3.55,3.55,3.55,3.5528,3.5566,3.5566,3.5606,3.5687,3.5768,3.5821,3.5845,3.5946,3.6501,3.7302,3.7578,3.8242,3.9023,3.9277,3.8633,3.7695,3.7695,3.6914,3.5996,3.5996,3.5996,3.5996,3.5996,3.5996,3.5996,3.5996,3.5996,3.5996,3.5996,3.5996,3.5996,3.5996,3.5996,3.5995,3.5944,3.5939,3.5893,3.5819,3.5775,3.5739,3.569,3.5653,3.5601,3.5547,3.5522,3.5522,3.5507,3.55,3.55,3.55,3.55,3.55,3.55,3.55,3.55,3.55,3.55,3.55,3.55,3.55,3.55,3.55,3.55,3.55,3.55,3.55,3.5808,3.6615,0.0,0.0,0.0,0.0,0.0,0.0,0.0,0.0,0.0,0.0,0.0,0.0,0.0,0.0,0.0,0.0,0.0,0.0,0.0,0.0,0.0,0.0,0.0,0.0,0.0,0.0,0.0,0.0,0.0,0.0,0.0,0.0,0.0,0.0,0.0,3.55,3.55,3.5515,3.5547,3.5547,3.5544,3.5582,3.5558,3.5577,3.5629,3.5694,3.5746,3.5797,3.5892,3.5944,3.5985,3.6366,3.6836,3.7344,3.7695,3.8144,3.8594,3.8594,3.8027,3.7305,3.7305,3.6719,3.5996,3.5996,3.5996,3.5996,3.5996,3.5996,3.5996,3.5996,3.5996,3.5996,3.5996,3.5996,3.5996,3.5996,3.5975,3.5948,3.5907,3.5867,3.5799,3.5713,3.5675,3.5642,3.5601,3.5577,3.5546,3.5514,3.55,3.55,3.55,3.55,3.55,3.55,3.55,3.55,3.55,3.55,3.55,3.55,3.55,3.55,3.55,3.55,3.55,3.55,3.55,3.5654,3.5981,3.5981,3.6423,0.0,0.0,0.0,0.0,0.0,0.0,0.0,0.0,0.0,0.0,0.0,0.0,0.0,0.0,0.0,0.0,0.0,0.0,0.0,0.0,0.0,0.0,0.0,0.0,0.0,0.0,0.0,0.0,0.0,0.0,0.0,0.0,0.0,0.0,0.0,0.0,3.5508,3.5508,3.5534,0.0,3.5606,3.5657,3.5713,3.5648,3.5657,3.5723,3.5849,3.5908,3.5911,3.5974,3.5996,3.6074,3.6875,3.7226,3.7383,3.8105,3.8418,3.8476,3.8398,3.7832,3.7187,3.7187,3.6641,3.5996,3.5996,3.5996,3.5996,3.5996,3.5996,3.5996,3.5996,3.5996,3.5996,3.5996,3.5996,3.5996,3.5996,3.5924,3.5875,3.5869,3.5764,3.5689,3.5682,3.563,3.559,3.559,3.5547,3.55,3.55,3.55,3.55,3.55,3.55,3.55,3.55,3.55,3.55,3.55,3.55,3.5538,3.5615,3.5538,3.55,3.55,3.55,3.5538,3.5615,3.5615,3.6019,3.6827,3.6793,3.7247,0.0,3.7602,0.0,0.0,0.0,0.0,0.0,0.0,0.0,0.0,0.0,0.0,0.0,0.0,0.0,0.0,0.0,0.0,0.0,0.0,0.0,0.0,0.0,0.0,0.0,0.0,0.0,0.0,0.0,0.0,0.0,0.0,0.0,0.0,0.0,3.5528,3.5582,3.5582,3.5616,0.0,3.5675,3.5743,3.5845,3.5736,3.5743,3.5869,3.5948,3.5975,3.5975,3.5996,3.5996,3.6016,3.6211,3.6699,3.7246,3.6738,3.6992,3.748,3.6797,3.6445,3.6289,3.6289,3.6152,3.5996,3.5996,3.5996,3.5996,3.5996,3.5996,3.5996,3.5996,3.5951,3.5916,3.5916,3.5916,3.5916,3.5916,3.5838,3.5733,3.567,3.563,3.5601,3.5558,3.5528,3.5522,3.5522,3.5508,3.55,3.55,3.55,3.55,3.55,3.55,3.55,3.55,3.55,3.55,3.55,3.55,3.5788,3.6423,3.5846,3.55,3.55,3.55,3.5808,3.6442,3.6442,3.6885,3.7712,3.7444,3.7799,0.0,0.0,0.0,0.0,0.0,0.0,0.0,0.0,0.0,0.0,0.0,0.0,0.0,0.0,0.0,0.0,0.0,0.0,0.0,0.0,0.0,0.0,0.0,0.0,0.0,0.0,0.0,0.0,0.0,0.0,0.0,0.0,0.0,0.0,3.6537,3.6603,3.6225,3.626,3.611,3.5799,3.5799,3.5851,3.5947,3.5872,3.5874,3.5948,3.5976,3.5996,3.5996,3.5996,3.5996,3.6035,3.6465,3.6641,3.668,3.6641,3.6641,3.6601,3.6152,3.5996,3.5996,3.5996,3.5996,3.5996,3.5996,3.5996,3.5996,3.5996,3.5975,3.5948,3.5948,3.5885,3.5805,3.5805,3.5805,3.5805,3.5805,3.5723,3.5633,3.5601,3.5571,3.5534,3.5514,3.55,3.55,3.55,3.55,3.55,3.55,3.55,3.55,3.55,3.5846,3.6077,3.6077,3.6462,3.6692,3.6692,3.6692,3.6892,3.7315,3.693,3.6692,3.6692,3.6692,3.6911,3.7315,3.7153,3.7518,3.838,3.8033,3.835,0.0,0.0,0.0,0.0,0.0,0.0,0.0,0.0,0.0,0.0,0.0,0.0,0.0,0.0,0.0,0.0,0.0,0.0,0.0,0.0,0.0,0.0,0.0,0.0,0.0,0.0,0.0,0.0,0.0,0.0,0.0,0.0,3.6742,3.6755,3.755,3.7662,3.6954,3.686,3.6509,3.5913,3.5913,3.5947,3.5996,3.5996,3.5996,3.5996,3.5996,3.5996,3.5996,3.5996,3.5996,3.6074,3.6797,3.6621,3.6094,3.6816,3.6621,3.5996,3.5996,3.5996,3.5996,3.5996,3.5996,3.5996,3.5996,3.5996,3.5996,3.5995,3.5946,3.588,3.5873,3.5764,3.5682,3.5682,3.5667,3.5679,3.5675,3.563,3.5574,3.5574,3.554,3.55,3.55,3.5615,3.5712,3.5712,3.5712,3.575,3.5904,3.5808,3.575,3.5923,3.6519,3.6923,3.6923,3.7584,3.8007,3.8007,3.8007,3.8065,3.8219,3.8219,3.8281,3.8358,3.807,3.7993,3.8139,3.7791,3.809,3.8917,3.8595,3.8816,0.0,0.0,0.0,0.0,0.0,0.0,0.0,0.0,0.0,0.0,0.0,0.0,0.0,0.0,0.0,0.0,0.0,0.0,0.0,0.0,0.0,0.0,0.0,0.0,0.0,0.0,0.0,0.0,0.0,0.0,0.0,3.6408,3.6891,3.6954,3.709,3.7151,3.7152,3.6417,3.6033,3.5995,3.5995,3.5996,3.5996,3.5996,3.5996,3.5996,3.5996,3.5996,3.5996,3.5996,3.5996,3.6016,3.6133,3.6094,3.6016,3.6133,3.6094,3.5996,3.5996,3.5996,3.5996,3.5996,3.5996,3.5996,3.5996,3.5996,3.5995,3.5939,3.5907,3.5873,3.5761,3.5671,3.5616,3.5616,3.5579,3.5534,3.5591,3.5562,3.5515,3.5515,3.5514,3.55,3.55,3.6077,3.6538,3.6538,3.6538,3.6808,3.7565,3.7007,3.6827,3.7584,3.7757,3.7834,3.7834,3.793,3.8007,3.8007,3.8007,3.8334,3.9111,3.913,3.9344,3.9805,3.8345,3.7944,3.8679,3.8357,3.8633,3.9486,3.9146,3.9053,0.0,0.0,0.0,0.0,0.0,0.0,0.0,0.0,0.0,0.0,0.0,0.0,0.0,0.0,0.0,0.0,0.0,0.0,0.0,0.0,0.0,0.0,0.0,0.0,0.0,0.0,0.0,0.0,0.0,0.0,3.5001,3.6237,3.6965,3.7007,3.7503,3.7574,3.7148,3.6841,3.6442,3.5996,3.5996,3.5996,3.5996,3.5996,3.5996,3.5996,3.5996,3.5996,3.5996,3.5996,3.5996,3.5996,3.5996,3.5996,3.5996,3.5996,3.5996,3.5996,3.5996,3.5996,3.5996,3.5996,3.5996,3.5996,3.597,3.5946,3.5921,3.5814,3.5765,3.5714,3.567,3.5595,3.554,3.554,3.5522,3.5501,3.554,3.5515,3.5635,3.6077,3.6173,3.6327,3.6815,3.7199,3.743,3.743,3.743,3.7565,3.795,3.768,3.7584,3.7969,3.843,3.8719,3.8719,3.9142,3.94,3.94,3.94,3.9519,3.9731,3.9742,3.9767,3.9819,3.926,3.9041,3.9248,3.8905,3.8946,3.9302,3.8999,3.8884,0.0,0.0,0.0,0.0,0.0,0.0,0.0,0.0,0.0,0.0,0.0,0.0,0.0,0.0,0.0,0.0,0.0,0.0,0.0,0.0,0.0,0.0,0.0,0.0,0.0,0.0,0.0,0.0,0.0,0.0,3.4244,3.5593,3.64,3.6401,3.7088,3.7144,3.6498,3.6364,3.5976,3.5332,3.5332,3.5332,3.5332,3.5332,3.5332,3.5351,3.5566,3.5664,3.5664,3.5664,3.5801,3.5996,3.5996,3.5996,3.5996,3.5996,3.5996,3.5996,3.5996,3.5996,3.5996,3.5996,3.5995,3.5972,3.5911,3.5875,3.5812,3.5716,3.5644,3.56,3.5582,3.554,3.55,3.55,3.5654,3.5808,3.5808,3.5808,3.6058,3.6865,3.7019,3.7238,3.7892,3.818,3.8334,3.8334,3.8334,3.8392,3.8604,3.845,3.8411,3.8604,3.9227,3.9611,3.9611,4.0169,4.0496,4.0496,4.0441,4.0313,4.011,4.0012,3.9808,3.9493,3.9731,3.9712,3.9462,3.9139,3.8999,3.8999,3.8788,3.8707,0.0,0.0,0.0,0.0,0.0,0.0,0.0,0.0,0.0,0.0,0.0,0.0,0.0,0.0,0.0,0.0,0.0,0.0,0.0,0.0,0.0,0.0,0.0,0.0,0.0,0.0,0.0,0.0,0.0,0.0,3.3413,3.4236,3.4744,3.4824,3.4863,3.4863,3.4824,3.4004,3.3574,3.3535,3.3535,3.3535,3.3535,3.3535,3.3535,3.3574,3.4414,3.4766,3.4766,3.4766,3.5254,3.5996,3.5996,3.5996,3.5996,3.5996,3.5996,3.5996,3.5996,3.5996,3.5996,3.5996,3.595,3.5905,3.5903,3.5807,3.5693,3.5636,3.5596,3.5599,3.5522,3.5507,3.55,3.55,3.6077,3.6635,3.6635,3.6635,3.6885,3.7757,3.793,3.795,3.7988,3.8681,3.9227,3.9227,3.9227,3.9515,4.0265,3.9708,3.9515,4.0285,4.0419,4.0439,4.0439,4.0477,4.0496,4.0496,4.025,4.011,4.0101,3.9797,3.9481,3.912,3.9133,3.9133,3.9139,3.884,3.8719,3.8719,3.8707,3.8707,0.0,0.0,0.0,0.0,0.0,0.0,0.0,0.0,0.0,0.0,0.0,0.0,0.0,0.0,0.0,0.0,0.0,0.0,0.0,0.0,0.0,0.0,0.0,0.0,0.0,0.0,0.0,0.0,0.0,0.0,3.2669,3.3374,3.3845,3.3867,3.3867,3.3867,3.3867,3.3555,3.3398,3.3398,3.3398,3.3691,3.4219,3.3652,3.3398,3.3418,3.373,3.418,3.4746,3.5293,3.5723,3.5996,3.5996,3.5996,3.5996,3.5996,3.5996,3.5996,3.5996,3.5974,3.5942,3.5942,3.5857,3.5758,3.5717,3.5674,3.5616,3.5544,3.554,3.5657,3.6136,3.6269,3.6404,3.6969,3.7315,3.77,3.8257,3.793,3.7796,3.8661,3.8834,3.8988,3.9515,3.9861,4.0073,4.0073,4.0073,4.0169,4.0458,4.0246,4.0189,4.0477,4.0496,4.0496,4.0496,4.0496,4.0496,4.0496,4.0406,4.0185,3.9797,3.9656,3.9346,3.884,3.8844,3.8844,3.8844,3.875,3.8707,3.8707,3.8707,3.8707,0.0,0.0,0.0,0.0,0.0,0.0,0.0,0.0,0.0,0.0,0.0,0.0,0.0,0.0,0.0,0.0,0.0,0.0,0.0,0.0,0.0,0.0,0.0,0.0,0.0,0.0,0.0,0.0,0.0,0.0,3.2266,3.2422,3.2559,3.2559,3.2559,3.2559,3.2559,3.2559,3.2715,3.3008,3.3008,3.3301,3.3848,3.3262,3.3008,3.3008,3.3281,3.373,3.4336,3.5195,3.5742,3.5996,3.5996,3.5996,3.5996,3.5996,3.5995,3.5972,3.5972,3.5917,3.5836,3.5836,3.5768,3.5659,3.5616,3.5574,3.555,3.5515,3.5692,3.6038,3.6558,3.6923,3.7353,3.8238,3.843,3.8661,3.9515,3.9027,3.8681,3.9534,3.9708,3.9881,4.0419,4.0496,4.0496,4.0496,4.0496,4.0496,4.0496,4.0496,4.0496,4.0496,4.0496,4.0496,4.0496,4.0496,4.0496,4.0496,4.0319,4.0024,3.9622,3.9414,3.91,3.8707,3.8707,3.8707,3.8707,3.8707,3.8707,3.8707,3.8707,3.8707,0.0,0.0,0.0,0.0,0.0,0.0,0.0,0.0,0.0,0.0,0.0,0.0,0.0,0.0,0.0,0.0,0.0,0.0,0.0,0.0,0.0,0.0,0.0,0.0,0.0,0.0,0.0,0.0,0.0,3.3086,3.2246,3.1406,3.0937,3.0937,3.0937,3.0937,3.0937,3.0918,3.1328,3.2168,3.2187,3.2207,3.2246,3.2246,3.2246,3.2324,3.3105,3.3437,3.3516,3.4375,3.5234,3.5996,3.5996,3.5996,3.5996,3.5996,3.595,3.588,3.588,3.5805,3.57,3.57,3.565,3.56,3.56,3.5577,3.5538,3.5538,3.6115,3.6731,3.6769,3.743,3.8296,3.913,3.9342,3.9554,4.0323,3.99,3.9573,4.0342,4.0496,4.0496,4.0496,4.0496,4.0496,4.0496,4.0496,4.0496,4.0496,4.0496,4.0496,4.0496,4.0496,4.0496,4.0496,4.0489,4.0489,4.0489,3.9925,3.9599,3.9587,3.9022,3.8723,3.8707,3.8707,3.8707,3.8707,3.8707,3.8707,3.8707,3.8707,3.8707,3.5585,0.0,0.0,0.0,0.0,0.0,0.0,0.0,0.0,0.0,0.0,0.0,0.0,0.0,0.0,0.0,0.0,0.0,0.0,0.0,0.0,0.0,0.0,0.0,0.0,0.0,0.0,0.0,3.4473,3.3711,3.2285,3.1973,3.1836,3.1836,3.1836,3.1836,3.1836,3.1211,3.1016,3.1269,3.1894,3.25,3.3066,3.3066,3.3418,3.4023,3.4238,3.4336,3.4414,3.5273,3.5781,3.5996,3.5996,3.5973,3.5938,3.5938,3.5853,3.5758,3.5758,3.5702,3.5626,3.5626,3.5568,3.5534,3.5534,3.5926,3.6365,3.6365,3.6988,3.7796,3.8411,3.9181,3.9881,4.0112,4.0169,4.0227,4.0458,4.0323,4.0227,4.0458,4.0496,4.0496,4.0496,4.0496,4.0496,4.0496,4.0496,4.0496,4.0496,4.0496,4.0496,4.0496,4.0496,4.0496,4.0496,4.033,4.0204,4.0204,3.9829,3.9486,3.9238,3.9077,3.8894,3.8707,3.8707,3.8707,3.8707,3.8707,3.8707,3.8707,3.8707,3.9019,0.0,0.0,0.0,0.0,0.0,0.0,0.0,3.8867,0.0,0.0,0.0,0.0,0.0,0.0,0.0,0.0,0.0,0.0,0.0,0.0,0.0,0.0,0.0,0.0,0.0,0.0,0.0,0.0,3.4902,3.4101,3.2773,3.2383,3.2344,3.2695,3.2383,3.2207,3.2207,3.1348,3.1074,3.1445,3.2305,3.2949,3.3418,3.3789,3.4219,3.4707,3.4707,3.4902,3.5273,3.5759,3.5974,3.5996,3.5973,3.5922,3.59,3.5838,3.5743,3.5659,3.5659,3.5621,3.5556,3.5556,3.5528,3.55,3.55,3.6058,3.6692,3.6692,3.7584,3.8738,3.9573,4.015,4.0496,4.0496,4.0496,4.0496,4.0496,4.0496,4.0496,4.0496,4.0496,4.0496,4.0496,4.0496,4.0496,4.0496,4.0496,4.0496,4.0496,4.0496,4.0496,4.0496,4.0496,4.0457,4.0347,4.0186,4.0032,3.9901,3.9576,3.9302,3.9112,3.9314,3.9353,3.9203,3.9533,3.9701,3.9701,3.9368,3.9203,3.9203,3.9203,3.9441,0.0,0.0,0.0,0.0,0.0,0.0,3.8945,3.8867,0.0,0.0,0.0,0.0,0.0,0.0,0.0,0.0,0.0,0.0,0.0,0.0,0.0,0.0,0.0,0.0,0.0,0.0,3.5996,3.5996,3.5195,3.4316,3.3457,3.2812,3.2754,3.3379,3.2793,3.248,3.248,3.1601,3.1523,3.2207,3.3105,3.3496,3.3437,3.4394,3.4844,3.4844,3.4726,3.5175,3.5975,3.5815,3.5841,3.5975,3.5913,3.5871,3.586,3.5739,3.5642,3.5585,3.5585,3.5552,3.55,3.55,3.55,3.55,3.55,3.6135,3.6885,3.7058,3.8238,3.9611,4.0304,4.0496,4.0496,4.0496,4.0496,4.0496,4.0496,4.0496,4.0496,4.0496,4.0496,4.0496,4.0496,4.0496,4.0496,4.0496,4.0496,4.0496,4.0496,4.0496,4.0489,4.0465,4.0457,4.0347,4.0081,4.0012,3.987,3.9564,3.9318,3.9193,3.9193,3.9733,4.0029,4.0029,4.0744,4.1132,4.1224,4.0432,4.0029,4.0029,4.0029,4.0065,3.5914,3.5996,3.6035,0.0,0.0,0.0,0.0,3.6621,0.0,0.0,0.0,0.0,0.0,0.0,0.0,0.0,0.0,0.0,0.0,0.0,0.0,0.0,0.0,0.0,0.0,0.0,3.5996,3.5996,3.5195,3.4316,3.3457,3.3926,3.3965,3.3418,3.3926,3.4219,3.4219,3.3359,3.2676,3.2226,3.373,3.4082,3.3457,3.5039,3.5742,3.5703,3.4953,3.5118,3.5853,3.5083,3.5229,3.5911,3.5797,3.5705,3.5663,3.564,3.5577,3.5515,3.5515,3.5508,3.55,3.55,3.55,3.55,3.55,3.6538,3.8027,3.9373,3.9996,4.0304,4.0458,4.0496,4.0496,4.0496,4.0496,4.0496,4.0496,4.0496,4.0496,4.0496,4.0496,4.0496,4.0496,4.0496,4.0496,4.0496,4.0496,4.0496,4.0496,4.0496,4.0425,4.0195,4.0177,4.0052,3.9712,3.9438,3.9264,3.9199,3.9548,3.9731,3.9731,4.0464,4.0873,4.0873,4.1022,4.1407,4.2066,4.1258,4.0873,4.0873,4.0873,4.1222,3.5996,3.5996,3.5996,3.5996,0.0,0.0,0.0,0.0,0.0,0.0,0.0,0.0,0.0,0.0,0.0,0.0,0.0,0.0,0.0,0.0,0.0,0.0,0.0,0.0,0.0,0.0,3.5996,3.5996,3.5195,3.4707,3.4707,3.4297,3.4043,3.4043,3.4043,3.4043,3.4043,3.3613,3.3203,3.2812,3.4082,3.4473,3.4082,3.4941,3.5331,3.5248,3.4337,3.4433,3.5156,3.4629,3.4925,3.5735,3.5686,3.563,3.56,3.5562,3.5541,3.55,3.55,3.55,3.55,3.55,3.55,3.5577,3.5981,3.7296,3.8911,4.015,4.0496,4.0496,4.0496,4.0496,4.0496,4.0496,4.0496,4.0496,4.0496,4.0496,4.0496,4.0496,4.0496,4.0496,4.0496,4.0496,4.0496,4.0496,4.0496,4.0457,4.0321,4.0304,4.0176,3.9872,3.984,3.9701,3.9377,3.9205,3.9049,3.8909,3.9528,3.99,3.99,4.1056,4.1901,4.2286,4.2304,4.2506,4.2892,4.2488,4.2084,4.1699,4.1699,4.1919,0.0,0.0,0.0,0.0,0.0,3.5937,0.0,0.0,0.0,0.0,0.0,0.0,0.0,0.0,0.0,0.0,0.0,0.0,0.0,0.0,0.0,0.0,0.0,0.0,0.0,0.0,3.6172,3.6016,3.5351,3.5176,3.5723,3.457,3.4141,3.4687,3.418,3.3906,3.3906,3.3906,3.3828,3.3652,3.4531,3.4863,3.4707,3.4687,3.474,3.4797,3.3725,3.3801,3.4683,3.4391,3.4795,3.5588,3.5588,3.5588,3.5571,3.5515,3.55,3.55,3.55,3.55,3.55,3.55,3.5596,3.5904,3.6904,3.818,3.9477,4.0265,4.0496,4.0496,4.0496,4.0496,4.0496,4.0496,4.0496,4.0496,4.0496,4.0496,4.0496,4.0496,4.0496,4.0496,4.0496,4.0496,4.0496,4.0496,4.0457,4.0347,4.0129,4.0032,3.988,3.9541,3.9498,3.9364,3.9049,3.9022,3.8993,3.8924,3.968,4.0194,4.0359,4.1754,4.2837,4.3496,4.3515,4.3515,4.3515,4.3515,4.3167,4.2525,4.2525,4.2525,0.0,0.0,0.0,0.0,3.4844,0.0,0.0,0.0,0.0,0.0,0.0,0.0,0.0,0.0,0.0,0.0,0.0,0.0,0.0,0.0,0.0,0.0,0.0,0.0,0.0,0.0,0.0,3.6055,3.5918,3.5566,3.4883,3.5391,3.5391,3.4726,3.5351,3.5703,3.5703,3.5703,3.5312,3.4551,3.5449,3.5449,3.4707,3.4639,3.5034,3.5646,3.3893,3.4011,3.5408,3.455,3.4732,3.5515,3.5515,3.5515,3.5508,3.5507,3.55,3.55,3.55,3.55,3.55,3.55,3.5981,3.6865,3.8507,3.915,3.9477,4.0265,4.0496,4.0496,4.0496,4.0496,4.0496,4.0496,4.0496,4.0496,4.0496,4.0496,4.0496,4.0496,4.0496,4.0496,4.0496,4.0496,4.0496,4.0496,4.0304,4.0129,4.0101,3.9829,3.9541,3.9186,3.9165,3.9054,3.8777,3.875,3.9047,3.9732,4.0524,4.1295,4.1992,4.2892,4.3423,4.3515,4.3515,4.3515,4.3515,4.3515,4.346,4.3368,4.3368,4.3368,0.0,0.0,0.0,0.0,0.0,0.0,0.0,0.0,3.4941,0.0,0.0,0.0,0.0,0.0,0.0,0.0,0.0,0.0,0.0,0.0,0.0,0.0,0.0,0.0,0.0,0.0,0.0,0.0,0.0,3.6055,3.6191,3.5605,3.5078,3.4707,3.5059,3.5254,3.5254,3.5742,3.582,3.5469,3.5795,3.5498,3.4639,3.4579,3.4431,3.4231,3.3395,3.3706,3.4768,3.4366,3.4718,3.55,3.55,3.55,3.55,3.55,3.55,3.55,3.55,3.55,3.5577,3.6038,3.7103,3.8354,3.9092,3.9631,4.0073,4.04,4.0496,4.0496,4.0496,4.0496,4.0496,4.0496,4.0496,4.0496,4.0496,4.0496,4.0496,4.0496,4.0496,4.0496,4.0496,4.0496,4.0449,4.0295,4.0167,3.9972,3.9576,3.9389,3.921,3.8913,3.9294,3.9515,3.9402,3.9827,4.0249,4.0579,4.135,4.2158,4.2947,4.3331,4.3515,4.3515,4.3515,4.3515,4.3515,4.3515,4.3515,4.3515,4.3515,4.3515,3.5996,0.0,0.0,0.0,0.0,0.0,0.0,0.0,0.0,0.0,0.0,0.0,0.0,0.0,0.0,0.0,0.0,0.0,0.0,0.0,0.0,0.0,0.0,0.0,0.0,0.0,0.0,0.0,0.0,0.0,3.7266,3.6094,3.5293,3.5059,3.5059,3.5059,3.5059,3.5684,3.5996,3.5974,3.5917,3.5547,3.4893,3.4581,3.4205,3.3761,3.3455,3.3797,3.4564,3.4564,3.493,3.55,3.55,3.55,3.55,3.55,3.55,3.5538,3.575,3.5981,3.6327,3.7161,3.8277,3.9342,3.9554,4.0035,4.0496,4.0496,4.0496,4.0496,4.0496,4.0496,4.0496,4.0496,4.0496,4.0496,4.0496,4.0496,4.0496,4.0496,4.0449,4.0389,4.0389,4.0389,4.033,4.0129,3.9932,3.9721,3.9464,3.937,3.933,3.9362,3.9882,4.023,4.023,4.0763,4.1187,4.1407,4.2176,4.2892,4.3478,4.3515,4.3515,4.3515,4.3515,4.3515,4.3515,4.3515,4.3515,4.3515,4.3515,4.3515,0.0,0.0,0.0,3.3867,0.0,0.0,0.0,0.0,3.3926,0.0,0.0,0.0,0.0,0.0,0.0,0.0,0.0,0.0,0.0,0.0,0.0,0.0,0.0,0.0,0.0,0.0,0.0,0.0,0.0,0.0,3.7305,3.7246,3.6836,3.5976,3.5957,3.5957,3.5957,3.5996,3.5973,3.5903,3.5903,3.5817,3.5629,3.4727,3.4744,3.5465,3.4551,3.4648,3.5462,3.5462,3.5462,3.55,3.55,3.55,3.55,3.55,3.55,3.5615,3.6385,3.7219,3.8065,3.8931,3.9246,3.9457,4.0227,4.0477,4.0496,4.0496,4.0496,4.0496,4.0496,4.0496,4.0496,4.0496,4.0496,4.0496,4.0496,4.0496,4.0496,4.0496,4.0295,4.011,4.011,4.011,4.011,4.0101,3.9552,3.9405,4.0165,4.0033,4.0173,4.093,4.104,4.1058,4.1058,4.1077,4.1425,4.2213,4.302,4.3478,4.3515,4.3515,4.3515,4.3515,4.3515,4.3515,4.3515,4.3515,4.3515,4.3515,4.3515,4.3515,0.0,0.0,3.5723,3.4551,0.0,0.0,0.0,0.0,0.0,0.0,0.0,0.0,0.0,0.0,0.0,0.0,0.0,0.0,0.0,0.0,0.0,0.0,0.0,0.0,0.0,0.0,0.0,0.0,0.0,0.0,0.0,3.8476,3.8027,3.7734,3.7715,3.7715,3.7715,3.7629,3.73,3.6762,3.6628,3.5926,3.4781,3.5007,3.4937,3.4692,3.4956,3.5231,3.55,3.55,3.55,3.55,3.55,3.5827,3.6231,3.5692,3.5846,3.6423,3.7276,3.8123,3.8911,3.9207,3.9669,4.015,4.0419,4.0496,4.0496,4.0496,4.0496,4.0496,4.0496,4.0496,4.0496,4.0496,4.0496,4.0496,4.0496,4.0496,4.0603,4.0949,4.096,4.0992,4.1298,4.1211,4.0904,4.0322,4.052,4.0773,4.0818,4.0751,4.0799,4.1058,4.1572,4.1901,4.1901,4.2378,4.28,4.3075,4.3349,4.3515,4.3515,4.3515,4.3515,4.3515,4.3515,4.3515,4.3515,4.3515,4.3515,4.3515,4.3515,4.3515,3.5996,3.5996,0.0,3.4922,3.4277,0.0,3.457,0.0,0.0,0.0,0.0,0.0,0.0,0.0,0.0,0.0,0.0,0.0,0.0,0.0,0.0,0.0,0.0,0.0,0.0,0.0,3.9687,4.0312,3.9277,0.0,0.0,0.0,3.8926,3.8613,3.8594,3.8574,3.853,3.843,3.7968,3.7082,3.6968,3.614,3.4737,3.5265,3.5192,3.4699,3.525,3.55,3.55,3.55,3.55,3.55,3.55,3.5981,3.6635,3.6115,3.6654,3.77,3.8277,3.9008,3.9727,3.9727,4.0073,4.0496,4.0496,4.0496,4.0496,4.0496,4.0496,4.0496,4.0496,4.0496,4.0496,4.0496,4.0496,4.0573,4.0893,4.095,4.1116,4.1637,4.1656,4.1632,4.1831,4.1851,4.159,4.0882,4.1134,4.1453,4.153,4.1534,4.1644,4.1919,4.2415,4.2727,4.2727,4.3185,4.3515,4.3515,4.3515,4.3515,4.3515,4.3515,4.3515,4.3515,4.3515,4.3515,4.3515,4.3515,4.3515,4.3515,4.3515,4.3515]}]]